GFSWCAN_925_thetae_000.txt.gz
Theta_e
314 313 311 311 310 310 310 310 310 310 310 309 310 311 313 314 319 324 322 316 328 329 323 322 322 325 322 325 330 325 325 327 329 318 323 328 325 325 323 320 319 319 321 318 320 320 320 316 315 319 320 318 316 313
309 312 311 311 311 311 311 311 310 310 310 310 310 311 313 314 316 321 326 317 323 327 324 323 321 321 321 321 325 325 323 325 327 327 324 327 319 316 324 324 316 321 323 325 321 322 319 316 316 316 315 316 313 312
306 308 310 311 310 311 311 311 311 311 310 311 311 311 313 314 315 319 324 320 325 332 324 322 322 320 320 321 322 325 327 321 324 323 317 315 315 318 318 324 321 316 316 325 321 318 317 317 316 315 314 313 311 310
304 305 306 308 310 310 311 311 311 311 311 311 311 311 313 314 315 317 323 321 324 320 312 328 319 320 319 320 321 323 322 322 323 319 313 311 314 320 320 321 325 321 317 318 319 318 317 316 315 314 312 311 311 309
302 302 303 305 307 308 310 311 311 311 311 312 312 312 313 314 315 318 321 321 321 326 320 326 320 319 319 321 320 321 322 324 324 317 310 315 324 325 324 321 323 317 317 320 321 318 318 316 313 310 311 310 309 308
301 301 302 304 305 306 308 310 311 311 311 311 312 313 313 314 315 322 322 321 320 323 323 323 320 318 318 320 321 320 321 323 323 322 315 319 320 323 318 319 316 315 314 314 316 316 315 313 311 310 309 307 305 303
301 301 301 302 304 305 306 308 310 311 310 310 311 313 314 314 317 320 320 317 318 322 320 321 324 316 315 319 321 321 320 322 322 323 323 321 322 319 313 318 315 313 313 313 314 314 313 311 310 309 305 304 302 301
300 301 301 301 302 303 304 307 309 311 311 311 311 313 313 314 315 318 317 314 318 321 321 320 319 316 314 316 318 314 318 318 320 320 318 318 320 319 320 316 315 314 314 313 311 310 310 309 309 305 303 301 299 298
300 300 300 300 301 301 302 304 307 310 311 311 311 313 313 313 316 317 315 315 316 319 323 315 315 316 314 311 311 312 313 315 315 316 317 316 316 317 317 315 314 313 312 311 310 309 307 305 303 302 300 298 297 297
299 299 299 300 300 301 301 301 304 308 311 311 311 310 307 310 313 313 314 318 317 319 317 313 316 317 314 309 309 311 309 314 314 312 308 309 314 313 313 313 313 311 311 310 309 307 305 302 300 298 297 297 297 296
299 299 300 300 301 301 302 303 304 306 305 307 304 302 304 307 311 311 312 314 311 314 313 312 312 312 310 312 310 309 309 309 313 312 312 311 311 311 311 311 309 308 308 307 306 305 302 298 297 297 298 297 295 294
298 299 300 300 301 301 303 304 304 304 304 304 304 304 305 303 302 311 310 306 309 315 307 305 309 311 308 310 310 304 308 305 312 307 307 312 312 311 309 308 307 306 305 302 300 298 297 296 296 296 296 295 294 293
297 298 299 300 301 302 302 302 303 303 303 303 300 299 302 299 305 308 311 308 309 303 301 302 303 302 302 303 302 303 307 309 305 309 309 310 309 308 308 307 305 301 297 297 297 296 295 294 293 292 293 292 292 292
296 298 299 300 301 301 301 301 302 302 302 298 299 304 304 306 305 304 304 303 300 300 301 300 301 302 299 303 301 307 305 306 308 310 309 309 306 306 306 305 302 298 292 294 294 294 294 294 293 292 292 292 292 292
296 297 299 300 301 301 302 301 301 301 301 301 301 305 304 300 299 298 296 299 298 300 300 301 301 303 302 303 303 304 305 307 308 310 307 304 303 302 301 301 297 294 292 294 295 294 293 292 292 292 292 292 292 291
296 298 299 299 300 300 300 300 300 300 300 301 301 303 299 302 300 298 297 298 299 299 301 303 302 305 305 305 305 307 307 308 309 307 306 300 299 298 298 297 297 296 295 295 294 294 294 293 292 292 293 292 292 291
296 299 299 299 300 300 299 299 299 298 299 299 299 297 299 300 299 299 299 300 300 300 302 303 306 304 302 305 306 306 307 306 303 305 300 299 298 298 298 298 297 295 295 295 295 294 294 294 293 292 291 292 293 294
298 298 298 299 299 299 299 298 300 300 301 300 302 299 299 298 298 299 299 300 301 301 303 302 301 302 304 305 305 305 304 301 302 301 299 298 297 296 296 296 296 296 295 295 294 294 294 294 292 293 294 295 294 294
297 298 298 298 299 298 297 297 298 301 298 297 297 297 297 297 296 296 296 297 298 298 300 301 302 302 304 303 303 299 301 301 301 299 299 297 296 295 295 294 294 294 294 294 294 294 294 294 294 294 294 295 294 294
296 296 297 297 297 297 297 298 296 299 300 299 297 298 296 296 294 295 296 296 298 300 300 301 303 303 303 302 302 302 301 300 300 300 299 297 295 296 295 295 295 294 294 294 294 294 295 295 295 295 294 294 293 293
296 296 296 296 295 297 298 298 298 298 297 297 295 298 294 294 296 298 298 297 298 300 300 301 301 298 299 298 297 297 297 297 298 299 297 296 295 295 294 294 294 295 295 295 295 295 295 295 294 295 295 293 292 290
295 295 295 293 292 294 296 296 298 297 297 296 296 298 295 295 295 295 295 296 298 299 300 301 301 301 300 298 297 296 296 294 294 294 294 294 295 295 295 295 295 295 295 295 294 294 294 294 294 293 293 291 290 289
294 294 293 292 295 296 295 294 298 297 296 296 296 296 295 294 293 291 294 295 297 297 298 298 298 297 297 296 295 294 294 294 294 294 294 295 295 294 294 294 294 294 294 294 294 293 293 293 291 291 291 289 289 289
293 291 295 296 297 296 294 295 296 296 296 297 296 296 295 294 292 293 295 296 297 296 296 296 295 296 296 294 294 294 294 293 294 294 293 294 294 294 293 293 293 293 293 293 293 292 291 290 289 289 289 288 288 288
294 293 294 294 295 295 294 294 295 296 296 296 296 295 293 292 295 295 295 297 295 292 292 294 296 295 298 297 294 294 293 292 293 293 293 293 292 292 292 292 292 292 291 291 291 291 290 290 288 288 287 287 287 286
295 293 295 295 295 296 296 296 295 296 295 294 295 293 292 294 295 295 295 294 292 290 290 290 292 294 294 292 292 289 288 286 286 287 288 286 285 286 287 288 288 288 283 284 285 286 287 287 287 287 287 286 286 286
295 294 293 291 294 294 294 294 295 295 294 295 294 293 293 293 294 295 291 286 288 286 286 287 287 287 287 286 285 284 283 282 282 282 282 283 284 281 281 281 281 280 280 281 282 282 283 284 285 285 285 285 285 284
294 293 293 294 294 294 294 294 294 294 295 295 294 293 293 294 294 288 285 284 284 284 285 284 283 282 282 282 282 282 280 279 279 280 281 282 282 279 277 277 277 276 277 277 278 279 280 281 281 282 282 282 282 282
293 293 292 292 293 294 294 294 295 294 294 296 295 295 294 286 283 283 281 281 282 282 282 281 280 280 280 280 281 279 277 276 276 277 277 279 278 276 274 274 274 274 274 274 275 276 277 278 279 279 279 280 278 278
291 292 293 292 293 295 294 294 294 292 294 293 294 290 286 281 278 278 279 279 278 278 279 279 278 277 278 277 278 277 276 274 273 273 273 274 273 272 272 272 271 272 272 272 273 274 276 276 277 279 276 275 274 274
290 292 292 293 294 292 291 288 288 289 290 291 291 292 285 279 276 275 275 277 277 276 276 276 277 276 275 275 275 274 274 273 272 271 270 270 270 270 269 269 269 270 270 271 271 273 274 274 275 275 274 272 271 270
291 292 293 293 294 290 289 290 290 291 292 290 291 286 285 284 281 276 273 274 275 274 273 273 273 273 272 272 273 273 272 271 271 270 270 269 268 267 267 267 268 268 267 268 270 272 271 271 272 270 270 268 267 267
290 289 289 290 290 290 290 290 290 290 290 289 288 285 281 282 279 275 273 272 272 272 271 271 271 271 271 272 270 271 271 270 269 269 268 268 267 266 265 266 266 266 266 267 269 270 269 268 267 267 266 265 264 263

GFSWCAN_925_thetae_003.txt.gz
Theta_e
312 311 312 310 309 309 309 309 309 309 309 309 310 311 313 316 321 325 320 323 328 319 320 322 323 321 322 320 315 318 315 315 308 311 311 311 311 311 313 316 313 310 309 313 310 310 311 314 315 312 312 315 312 311
313 312 310 310 310 310 310 310 310 310 309 309 309 310 312 314 318 325 326 324 325 322 322 322 320 319 320 321 319 318 314 322 315 311 311 314 311 312 307 311 315 315 313 313 311 311 310 314 313 314 313 312 311 310
311 311 310 310 310 310 310 310 310 310 310 310 309 310 311 314 316 323 323 323 326 317 318 320 321 321 321 321 322 319 316 320 320 314 310 312 313 312 313 314 314 314 316 311 312 316 316 315 315 314 312 311 309 309
306 309 311 311 310 311 311 311 311 311 310 310 310 310 311 313 315 322 323 322 322 312 307 318 320 321 318 321 322 322 320 321 317 309 308 309 308 313 309 311 309 311 316 315 312 315 315 314 313 312 311 310 310 310
304 305 306 309 310 310 310 311 311 311 311 311 311 311 311 313 315 319 320 321 321 321 310 313 320 319 320 322 322 321 320 318 314 308 307 307 304 310 306 306 309 316 314 311 311 315 314 313 311 310 310 310 310 310
302 304 304 305 306 309 310 310 310 310 311 311 312 312 312 313 315 322 319 322 320 324 314 312 317 318 319 321 321 321 321 318 317 309 304 310 317 310 310 310 314 315 314 313 313 314 313 311 311 311 309 306 302 301
301 301 303 304 304 306 308 310 310 310 310 310 311 313 313 314 318 318 317 318 319 322 308 311 309 310 315 319 315 315 318 317 315 310 306 306 310 315 307 314 313 314 312 312 313 312 312 311 310 309 304 302 301 297
300 300 301 302 303 304 307 308 310 310 310 310 311 313 313 314 316 318 317 315 319 321 311 311 312 309 314 307 308 310 308 311 313 313 310 309 308 303 308 313 314 314 313 311 310 309 309 310 309 304 301 298 296 295
299 300 300 301 301 302 303 307 309 310 310 310 311 312 313 314 315 316 315 315 317 317 307 307 311 312 309 307 306 305 308 309 309 308 310 310 309 314 313 314 313 312 311 310 309 309 309 305 302 299 297 295 295 294
299 299 300 300 301 301 301 303 307 310 310 311 312 312 306 311 313 314 315 307 305 305 307 307 308 311 310 303 305 306 302 307 312 308 307 306 310 309 311 311 310 309 309 308 307 305 303 301 298 296 296 296 295 294
299 299 300 300 301 302 303 303 306 308 308 310 305 302 307 310 312 308 307 307 307 308 309 308 306 309 306 308 307 303 306 305 311 306 309 307 308 307 307 308 307 307 308 307 305 302 299 297 296 295 295 295 295 294
299 300 300 301 302 303 303 304 305 305 305 306 305 305 306 303 302 309 309 305 308 311 304 308 307 306 304 307 304 302 308 305 310 304 307 307 305 307 307 306 306 304 301 299 297 297 296 295 295 294 293 293 294 293
298 299 300 301 301 302 303 303 304 304 304 304 302 299 303 299 306 309 310 308 308 302 301 300 303 300 301 301 301 303 308 308 302 307 307 302 307 307 307 299 297 296 295 296 295 294 293 292 292 292 292 292 292 292
298 299 300 301 301 301 302 302 302 302 304 298 301 304 303 305 304 302 303 302 299 298 299 299 300 302 298 303 301 306 303 302 307 305 301 304 306 305 303 297 295 293 291 292 293 294 293 293 293 292 292 291 292 292
297 299 299 300 302 302 302 302 302 302 301 299 300 304 303 298 297 297 296 297 297 298 298 299 299 300 301 302 301 302 303 306 305 306 302 299 300 300 297 296 292 290 290 293 294 294 293 293 292 292 292 292 292 290
298 299 299 300 300 300 301 301 301 300 299 298 298 300 298 300 300 298 297 298 298 297 297 298 301 304 303 302 303 305 305 306 305 301 298 296 297 296 295 294 293 295 294 294 294 294 294 294 293 292 291 291 291 290
298 299 299 299 300 300 300 300 299 295 297 298 298 295 297 298 298 297 296 298 299 298 301 301 304 302 299 303 304 304 305 302 299 297 295 296 295 295 295 296 296 295 295 295 295 295 294 294 294 291 290 292 293 293
298 298 298 299 299 299 299 298 298 298 297 297 300 296 296 295 296 297 296 296 297 297 298 300 298 301 303 303 302 300 297 297 294 295 294 294 295 296 296 294 295 294 294 294 293 293 293 294 293 292 293 294 294 294
297 297 298 299 299 298 296 296 297 298 297 296 295 295 295 294 294 295 295 297 297 297 296 296 299 299 299 297 300 298 297 295 295 294 293 295 295 295 295 294 294 293 294 294 294 294 294 294 294 294 294 294 294 294
296 296 296 298 297 297 295 295 296 296 298 296 295 296 294 294 293 293 294 294 295 297 298 296 296 297 295 294 293 293 293 294 292 292 292 292 295 295 295 294 295 295 294 294 294 295 295 294 293 293 294 294 292 291
296 296 295 296 296 297 296 295 297 297 294 296 294 294 293 293 295 296 296 294 297 298 294 292 295 295 298 297 297 297 296 296 291 290 290 290 294 293 293 293 294 294 295 294 294 294 293 294 293 294 293 292 292 291
295 295 295 294 293 293 293 296 296 293 295 295 294 295 294 294 294 295 293 295 296 293 292 292 292 291 291 292 296 296 296 295 294 294 294 294 289 292 294 294 294 294 294 293 293 293 293 293 293 292 290 289 290 290
294 294 295 293 293 293 294 294 296 295 293 294 294 294 294 293 292 290 294 294 292 293 297 296 296 296 296 296 295 295 294 293 293 294 294 294 294 293 293 293 293 293 291 292 292 292 292 292 292 291 289 288 288 289
294 294 293 294 294 295 293 294 295 295 295 295 296 296 294 293 289 291 291 290 289 293 292 293 295 291 295 294 290 290 290 291 291 291 291 291 289 290 289 289 289 288 288 288 288 288 289 289 290 289 288 287 287 288
294 291 291 295 294 292 289 293 295 293 295 294 295 294 292 287 291 288 288 289 288 290 291 292 291 291 289 290 290 287 285 285 285 286 287 285 284 284 284 285 286 283 281 281 283 283 284 285 286 287 287 288 287 286
295 291 290 294 295 293 291 295 295 294 294 295 295 289 288 291 288 287 292 292 290 289 289 289 289 289 288 287 285 285 284 282 281 282 282 282 282 281 280 280 279 279 277 278 278 279 279 281 282 283 285 285 285 285
294 294 293 291 294 294 295 294 293 292 294 294 292 291 288 286 285 291 288 287 287 287 287 286 285 285 285 284 283 283 280 279 279 279 280 280 278 276 275 276 276 275 274 275 275 275 277 278 279 279 281 281 281 282
294 293 293 293 294 293 294 293 293 293 292 292 291 290 288 286 289 287 285 284 285 286 284 281 282 282 282 282 281 279 278 277 276 278 281 279 275 274 273 272 272 272 272 272 273 273 274 275 277 278 279 280 279 277
293 293 291 290 291 292 291 290 290 290 291 289 287 287 287 284 282 283 282 282 281 281 281 280 279 279 279 279 278 276 275 274 273 269 268 268 271 271 270 270 270 270 270 270 271 272 273 275 275 276 277 276 274 273
292 291 289 288 288 292 292 291 292 290 289 290 289 285 283 280 277 279 279 278 279 279 279 279 277 276 276 276 275 275 274 273 272 271 268 268 270 270 269 268 268 268 268 268 269 271 272 273 274 274 273 272 271 269
290 291 292 291 293 291 290 288 288 288 289 290 288 286 279 276 275 274 275 277 276 275 275 275 274 273 273 273 274 274 273 272 272 271 270 269 269 268 267 267 266 267 267 267 268 269 271 271 271 270 269 268 267 266
291 290 292 292 292 290 289 289 289 290 290 289 288 285 281 279 274 274 272 274 274 273 272 272 271 271 271 272 272 272 272 270 270 269 269 268 267 267 266 265 265 266 266 267 268 269 269 268 267 267 266 265 264 263
288 286 286 284 284 284 286 282 283 283 282 281 282 279 275 274 272 273 273 272 272 271 270 270 269 270 270 270 269 269 269 268 268 268 267 267 266 265 265 265 266 266 266 266 266 267 267 266 265 264 263 262 262 261

GFSWCAN_925_thetae_006.txt.gz
Theta_e
311 311 310 309 308 309 309 309 309 309 309 309 311 313 316 320 324 321 323 326 323 315 318 321 320 319 318 315 314 316 314 311 306 305 302 310 309 309 310 312 311 309 307 305 303 303 310 309 313 312 310 312 311 309
311 311 310 309 309 309 309 309 309 309 309 309 310 312 314 317 324 324 322 325 323 316 319 319 320 320 320 316 316 314 312 314 309 309 309 313 309 310 303 311 312 312 309 309 311 311 308 309 311 312 311 311 310 308
312 311 310 309 309 309 310 310 309 309 309 309 309 310 313 315 323 321 322 324 322 310 313 317 319 319 321 321 318 315 311 317 316 307 306 309 305 308 312 312 311 312 313 310 312 314 312 312 314 312 311 310 308 307
311 310 310 310 310 310 310 310 310 310 310 310 309 309 312 315 321 321 321 323 318 305 306 314 319 319 320 321 322 319 317 316 310 305 305 308 303 308 305 307 307 308 314 313 310 312 314 314 313 311 310 308 308 308
310 310 310 309 310 310 310 310 310 310 310 310 310 310 310 314 319 319 319 320 323 314 309 313 316 318 319 321 320 320 317 314 309 306 303 306 298 307 304 302 306 312 312 310 312 311 312 311 310 309 309 309 309 308
305 307 309 310 310 310 310 310 310 310 311 311 311 311 310 312 319 320 315 319 322 321 310 310 311 313 317 320 320 317 317 314 311 307 304 305 311 306 310 315 312 313 313 311 312 312 312 311 309 309 308 308 303 299
304 304 305 306 308 309 310 310 310 310 310 311 312 313 312 314 318 316 312 317 320 319 306 311 306 306 313 314 310 311 314 313 312 306 305 306 306 310 307 309 311 311 312 311 312 311 312 310 310 309 302 299 296 295
301 302 304 304 306 307 308 310 310 310 310 311 312 313 313 316 317 318 314 317 320 316 305 308 307 305 311 305 307 306 305 309 310 310 305 307 305 302 310 311 312 312 312 312 312 310 309 308 305 302 297 296 295 294
300 300 301 302 303 304 307 309 309 310 310 311 312 312 312 313 312 315 314 315 317 314 306 303 309 311 305 306 302 301 306 306 306 308 307 309 308 314 313 312 312 312 311 310 308 307 308 307 300 298 296 295 294 293
300 300 301 301 301 302 305 308 308 309 310 311 311 309 307 309 312 313 314 306 305 305 305 305 304 311 308 301 304 304 301 307 312 309 307 307 310 309 307 310 309 309 308 308 306 305 302 300 297 296 296 295 294 293
300 301 301 302 302 303 303 307 308 309 310 310 306 302 307 311 312 304 305 306 306 308 307 306 304 309 301 307 307 301 306 304 311 305 310 306 308 305 305 306 307 306 307 305 301 299 298 297 296 296 294 293 294 293
300 301 301 302 302 303 304 306 307 307 306 307 306 306 307 303 303 308 308 305 307 310 303 306 304 306 303 303 305 302 307 305 310 303 308 309 303 305 305 302 300 298 298 297 297 296 295 294 293 292 291 291 291 292
300 300 301 302 302 302 303 305 306 306 305 305 302 299 305 299 307 314 314 309 307 301 301 300 304 300 301 302 302 303 308 308 302 308 309 304 307 301 298 297 296 296 295 294 294 293 292 291 291 291 291 291 291 291
300 301 301 301 302 302 302 302 302 303 304 298 302 305 304 303 303 302 303 302 299 298 298 298 300 301 298 303 301 306 303 302 307 306 301 302 304 299 298 296 295 294 293 293 292 292 292 292 292 291 291 291 291 291
299 299 300 300 300 301 301 301 301 301 299 299 299 303 300 297 297 297 296 297 296 297 298 299 299 300 301 302 301 301 303 304 304 305 301 298 299 298 296 293 291 290 290 292 293 293 293 293 292 292 292 292 291 289
299 299 299 300 300 300 300 301 301 299 298 297 297 299 298 299 299 298 297 298 297 296 296 297 301 303 302 301 302 304 304 304 303 301 296 297 297 295 294 292 292 294 294 293 293 294 294 294 293 293 292 292 292 291
296 298 299 299 299 299 299 299 298 294 294 298 297 295 297 297 298 297 296 297 298 297 301 300 300 300 299 301 303 303 303 302 300 297 295 295 295 295 294 295 294 294 294 294 295 293 293 293 293 292 292 293 293 293
298 298 298 298 299 299 297 297 297 294 297 296 298 296 295 295 296 296 295 294 297 296 298 299 297 300 301 301 301 300 297 296 295 295 294 293 294 294 295 294 294 293 292 292 293 293 293 293 292 292 293 293 292 293
296 296 297 298 298 296 295 295 296 293 295 294 294 293 293 294 293 293 293 295 296 295 294 294 295 296 299 296 299 298 296 293 294 293 292 294 294 295 294 294 293 293 293 293 293 293 293 293 293 293 293 293 292 292
295 295 295 297 297 294 294 294 296 293 297 294 293 294 293 293 292 293 293 294 294 295 297 292 292 291 294 292 291 289 289 290 288 289 290 290 294 294 293 293 293 293 293 293 293 293 293 293 292 292 293 293 290 290
295 294 294 295 295 296 294 294 295 295 292 295 293 292 292 292 293 295 296 293 296 297 292 291 295 294 293 295 296 296 294 294 288 286 287 288 293 292 293 294 294 293 292 291 289 290 291 290 291 291 292 291 290 288
294 294 295 294 293 292 293 294 295 292 294 293 293 293 293 293 294 294 291 294 295 289 288 287 291 289 288 291 294 295 294 294 293 293 292 292 288 290 289 289 289 287 288 289 288 287 288 288 288 289 289 290 288 287
293 293 293 292 292 292 291 293 296 293 294 294 294 293 292 292 292 290 293 294 293 289 291 292 293 295 293 290 290 289 291 290 289 288 289 288 288 286 286 286 286 285 283 284 284 284 284 284 285 285 286 287 287 287
293 294 292 292 292 293 290 294 294 293 292 293 294 294 291 291 288 290 286 287 292 289 289 289 290 290 288 287 286 284 284 285 285 284 283 283 283 283 284 284 282 278 277 278 279 279 279 279 280 281 282 284 285 286
293 287 291 284 290 289 286 285 291 289 288 288 291 289 289 286 283 282 284 288 289 290 289 289 287 289 289 287 286 283 281 281 282 282 281 281 281 280 278 278 277 275 274 274 275 274 275 275 276 278 278 280 282 283
292 287 291 287 286 287 286 289 287 288 287 294 292 287 287 290 289 284 289 289 288 287 287 287 287 286 286 284 284 282 279 279 279 280 278 277 275 274 274 273 273 273 272 272 272 272 272 273 274 275 276 277 279 280
289 288 290 289 291 290 293 292 292 292 292 293 285 290 290 290 287 287 286 285 286 284 283 283 283 283 283 282 279 276 277 277 277 277 276 274 273 271 271 271 270 269 269 270 270 270 271 271 272 273 275 276 277 277
290 289 290 291 293 292 293 292 292 293 293 291 289 289 289 284 285 283 283 283 282 281 281 280 281 281 279 277 276 276 275 276 277 276 275 273 271 270 269 269 268 268 269 269 268 269 269 270 271 273 274 275 273 273
291 291 290 291 290 289 291 291 291 291 290 288 286 285 285 281 278 280 279 280 280 280 278 277 277 277 276 275 274 273 273 273 272 265 263 261 268 269 268 268 267 267 267 267 268 268 270 271 272 272 272 272 270 270
289 286 285 284 288 290 290 288 290 288 288 288 283 282 280 276 274 276 278 278 278 276 275 274 274 274 273 273 273 272 271 271 271 270 264 264 268 268 267 267 266 266 266 266 266 268 269 269 270 270 269 268 267 266
288 290 290 287 290 289 288 287 288 288 289 289 281 279 276 274 274 274 274 274 275 274 273 272 271 271 272 271 271 271 270 269 269 269 268 268 267 267 266 266 265 266 266 266 266 267 267 267 267 266 266 265 264 263
288 288 286 288 285 287 287 288 288 287 286 284 283 280 276 272 268 271 273 273 273 272 271 270 270 269 269 269 270 269 268 268 268 267 267 266 266 265 265 265 265 265 265 265 265 266 266 266 265 264 263 262 262 262
279 273 276 271 278 278 275 275 273 274 276 280 278 272 270 270 270 272 272 272 271 270 269 269 269 269 268 268 268 267 267 266 266 266 266 266 265 265 264 264 264 264 264 264 264 264 264 264 263 262 262 261 260 260

GFSWCAN_925_thetae_009.txt.gz
Theta_e
309 309 308 308 309 308 308 308 309 309 310 312 314 316 320 320 318 319 323 325 319 314 318 320 318 317 316 314 314 315 313 310 303 304 301 304 306 308 309 310 311 310 308 303 304 303 309 307 310 313 310 310 311 309
309 309 308 309 309 309 309 309 309 309 309 310 313 314 318 323 322 323 323 321 320 315 317 319 319 319 319 314 313 311 314 312 308 305 302 306 308 308 303 311 310 310 307 308 308 309 307 307 311 309 309 310 309 308
309 309 308 309 309 309 309 309 309 309 309 309 311 314 319 324 323 322 324 322 318 308 313 316 318 319 320 318 317 314 309 313 311 304 307 304 304 302 309 310 309 310 309 307 310 311 309 308 310 312 309 310 308 307
309 309 309 309 309 309 309 309 309 309 309 309 309 312 319 321 320 320 322 318 314 303 307 313 317 317 320 321 320 315 314 311 306 303 303 304 302 306 303 306 306 308 311 311 308 309 311 312 311 311 310 308 307 306
309 309 309 309 309 309 310 310 310 309 309 309 309 311 317 319 319 320 321 322 320 311 308 307 315 317 318 319 319 318 314 311 307 304 303 305 297 305 303 302 306 309 310 308 309 309 311 309 310 309 309 308 308 306
309 309 310 310 310 310 310 310 310 310 310 310 310 309 313 318 317 314 310 318 321 316 308 311 308 311 315 317 316 316 315 310 308 307 302 303 306 304 309 313 311 311 311 308 310 308 308 310 309 308 309 308 307 298
309 309 310 310 310 310 310 310 310 310 311 311 311 311 311 315 317 312 307 316 320 315 306 310 306 305 310 311 308 310 311 311 310 306 304 306 304 308 306 311 312 310 310 310 310 310 312 309 310 308 303 300 297 295
304 306 308 309 309 310 310 310 310 310 311 312 313 315 316 316 316 315 316 318 318 312 303 307 307 305 309 305 307 305 304 308 308 308 306 308 304 303 310 311 311 311 310 310 310 310 310 308 305 298 295 295 294 294
302 303 304 306 307 308 309 309 309 310 311 312 311 312 312 312 311 314 314 316 316 312 306 303 308 311 304 305 301 302 305 307 305 310 306 306 306 312 313 312 311 310 311 311 310 308 306 303 298 296 296 296 295 293
301 301 302 302 305 308 308 308 309 310 311 311 310 308 306 308 311 313 313 305 302 304 303 302 303 310 309 301 304 303 301 310 312 309 306 307 311 307 306 305 306 307 307 307 306 303 298 297 299 299 298 296 294 293
302 302 302 302 303 306 307 308 308 310 311 309 305 304 309 310 310 303 306 305 307 309 306 304 302 307 303 308 308 301 306 304 311 306 311 309 307 304 303 302 300 302 300 299 300 299 299 298 296 294 294 295 294 292
301 302 302 302 303 305 307 308 308 309 308 308 306 307 307 301 302 305 307 304 306 309 302 305 304 305 302 301 306 303 307 304 310 302 308 309 301 296 296 297 297 297 296 296 295 295 295 296 297 297 295 292 292 291
301 301 302 302 302 303 305 307 308 307 306 305 303 300 306 301 309 312 313 308 307 301 300 300 305 300 301 301 302 304 308 308 301 307 309 305 300 299 298 297 296 296 296 297 296 296 294 291 291 291 291 290 290 290
300 300 300 300 301 301 301 302 304 304 304 299 302 306 305 304 302 302 303 302 298 297 298 298 300 301 298 303 301 307 303 302 308 304 300 302 300 299 297 296 296 294 293 293 291 291 291 291 291 291 291 291 291 290
300 300 300 299 300 300 300 301 301 301 299 298 298 301 299 297 297 297 296 297 296 296 298 299 299 300 301 302 301 301 303 304 302 301 301 298 297 296 294 292 291 291 291 291 292 292 292 292 292 292 292 292 291 291
298 299 298 299 299 299 300 301 300 299 296 297 297 299 297 299 299 298 297 298 297 296 296 297 301 302 302 301 300 298 300 301 302 300 297 296 295 293 293 294 293 294 293 292 293 293 293 293 293 292 293 293 292 292
297 298 298 298 298 298 299 299 298 293 293 297 297 295 297 298 298 297 296 297 297 297 301 300 299 298 298 299 301 302 302 301 299 298 295 295 294 295 294 294 294 294 294 293 292 292 293 292 292 292 291 293 293 293
297 297 297 297 297 297 297 297 294 292 297 295 297 296 295 294 296 296 295 294 296 297 298 298 296 298 299 300 300 299 298 296 295 294 293 293 294 294 294 293 293 292 292 292 292 292 292 292 292 293 292 292 292 292
295 295 296 297 297 295 293 295 295 292 295 294 293 292 293 294 292 293 293 294 294 293 290 290 291 292 293 294 299 298 296 291 294 292 291 293 294 293 293 293 292 292 292 292 292 291 291 291 291 290 290 290 290 289
294 294 295 296 296 294 292 290 295 292 296 292 293 293 292 293 292 292 293 293 294 295 295 291 293 290 291 289 288 287 290 291 287 286 287 287 292 292 291 291 291 291 291 290 290 289 288 288 288 287 287 287 288 288
294 294 294 294 294 294 293 293 295 294 292 294 292 292 292 291 293 294 295 292 295 296 290 289 290 292 290 290 292 294 293 292 287 286 286 287 289 290 289 288 288 287 287 285 285 285 285 285 284 285 285 286 286 287
293 293 293 293 292 292 293 293 294 292 292 293 293 292 293 293 293 293 290 293 295 289 288 285 292 292 291 291 290 291 291 291 290 289 289 289 285 286 285 284 284 281 282 282 282 282 281 281 280 279 281 282 283 285
292 292 292 291 292 291 288 291 295 292 294 293 293 293 292 292 291 290 292 292 292 291 290 290 291 290 288 287 286 286 287 286 284 282 284 284 283 283 282 279 278 277 277 277 277 276 275 275 275 276 277 277 279 280
292 292 291 291 291 291 290 290 292 290 290 293 294 293 291 291 289 291 291 289 291 289 289 288 289 288 286 285 283 281 282 283 281 280 281 281 281 279 278 276 274 273 272 273 273 272 272 272 273 273 274 275 275 276
290 284 290 289 289 291 290 289 286 289 287 286 291 290 289 286 285 289 286 290 289 288 288 287 288 287 286 285 282 280 279 280 281 279 277 277 276 276 274 273 273 271 270 270 270 270 270 270 271 271 272 272 273 275
290 287 290 288 284 290 281 282 283 289 281 287 288 285 284 289 290 290 289 287 287 286 285 285 285 284 284 283 281 278 276 277 278 276 273 272 272 271 270 269 268 269 269 268 268 268 268 268 269 270 270 271 272 273
289 282 284 287 290 289 292 290 288 290 291 292 287 287 289 292 290 287 285 283 283 282 282 283 282 282 281 277 275 275 276 277 276 274 271 271 270 269 268 267 267 267 267 267 268 267 266 267 268 270 270 271 271 271
285 286 288 286 290 291 292 291 292 292 292 290 290 290 290 288 285 282 281 280 280 280 279 279 279 278 276 274 274 274 274 274 273 272 271 270 269 269 268 267 267 267 267 267 267 267 267 268 269 270 270 270 269 269
287 286 287 288 287 288 290 290 290 290 289 289 287 285 281 278 274 275 278 279 279 277 275 274 273 274 273 273 272 272 272 272 272 263 261 259 267 268 267 266 266 266 266 266 267 267 268 268 269 269 268 268 266 266
287 282 283 281 287 289 288 287 287 287 287 282 281 280 277 274 273 275 276 276 274 272 272 272 272 273 272 272 270 269 269 269 269 268 262 261 267 266 266 266 265 265 265 265 266 266 267 267 267 266 266 265 264 264
288 288 289 285 288 288 287 288 288 288 288 283 278 275 272 271 273 273 273 273 273 272 272 271 271 270 271 270 270 270 269 268 268 268 267 266 266 265 265 265 265 264 265 265 265 265 265 265 265 264 263 263 262 262
286 285 281 283 282 281 277 278 274 282 276 281 280 275 269 267 266 271 272 272 271 270 269 269 269 269 269 268 268 268 267 266 266 266 266 265 265 265 264 264 264 264 264 264 264 264 264 263 263 262 262 261 261 260
271 272 274 269 277 278 272 271 270 273 275 279 273 270 267 268 269 270 271 271 270 270 269 269 268 268 268 267 267 266 266 265 265 265 265 265 265 264 264 263 263 263 263 262 262 263 262 262 262 261 260 260 260 259

GFSWCAN_925_thetae_012.txt.gz
Theta_e
308 308 308 308 307 308 308 309 310 311 313 314 316 319 317 316 316 318 321 324 316 314 317 319 316 314 314 313 313 313 312 309 302 304 302 303 301 307 308 309 310 310 307 302 300 299 306 305 311 312 310 307 309 308
308 308 308 308 308 308 309 309 310 311 312 314 316 319 322 319 319 316 322 319 318 314 315 318 317 317 318 313 312 310 314 311 308 304 297 302 307 306 301 309 308 310 306 306 305 306 305 305 308 308 307 308 309 308
308 308 308 308 309 309 309 309 309 310 311 313 316 321 322 319 318 320 322 318 318 308 312 315 317 318 319 317 316 313 307 310 307 302 299 303 303 300 307 308 308 309 306 305 308 309 307 306 306 308 308 308 308 306
308 308 308 309 309 309 309 309 309 309 310 312 317 321 322 322 322 323 319 314 314 304 307 312 316 316 317 319 318 314 311 307 303 302 298 304 301 303 300 305 305 307 308 309 307 308 308 308 308 308 308 308 308 307
308 309 309 309 309 309 309 309 309 309 309 310 316 319 319 320 320 320 320 317 314 310 308 307 312 314 316 317 316 314 310 308 306 303 300 305 297 303 303 302 305 307 309 307 308 307 308 307 308 309 309 309 307 306
309 309 309 309 309 309 309 310 310 309 309 309 312 318 318 317 315 313 309 319 315 314 309 312 307 308 313 315 314 313 312 308 307 307 301 301 303 303 309 306 309 308 307 306 309 307 306 306 309 308 309 308 306 302
309 309 309 309 309 310 310 310 310 311 311 310 309 311 315 316 311 307 307 315 317 313 306 310 307 304 308 310 306 308 309 308 308 305 302 298 304 305 307 305 312 309 309 309 308 309 310 309 310 308 307 303 297 295
309 309 309 309 310 310 310 310 311 312 312 314 314 314 314 315 316 315 315 318 315 310 302 305 306 304 307 305 306 305 304 307 307 307 304 305 305 304 310 309 309 309 309 309 308 307 308 306 298 295 295 294 294 294
308 309 309 310 310 310 310 310 311 312 312 313 315 314 311 311 310 312 315 316 315 310 304 304 308 309 304 304 301 303 305 307 305 308 306 308 306 311 310 307 306 306 307 308 307 306 301 296 295 295 295 295 295 293
303 306 307 308 309 309 309 309 311 311 311 310 310 308 306 309 310 311 311 304 302 302 303 303 303 310 310 301 303 303 302 309 312 308 306 307 310 304 298 299 298 301 303 305 306 298 296 297 297 297 296 295 294 293
303 304 305 306 307 308 308 309 311 310 310 309 303 304 309 309 308 299 304 303 306 309 305 303 303 306 303 309 308 301 306 304 311 305 310 309 308 300 296 296 296 296 296 296 297 297 297 296 296 295 294 295 294 294
302 303 304 306 307 308 308 309 309 309 308 308 307 308 306 301 302 305 305 304 307 306 302 305 304 304 301 300 306 303 308 304 311 303 308 308 300 297 296 296 297 297 297 297 297 297 297 297 296 296 294 292 291 290
300 301 301 302 304 306 308 308 308 307 306 306 302 299 304 300 309 309 310 308 308 301 300 300 304 299 301 300 302 304 309 309 301 306 308 304 300 300 299 298 298 297 297 297 296 296 293 291 290 290 290 290 290 290
299 299 299 300 301 302 304 306 306 306 306 300 303 307 305 306 302 301 303 302 298 298 298 299 300 301 298 303 302 308 303 302 307 307 302 301 299 297 296 295 295 293 290 290 290 290 290 291 291 291 291 291 291 290
299 299 299 298 299 300 301 302 302 301 299 298 299 302 300 297 297 296 296 297 296 296 297 300 300 301 301 302 301 301 301 300 296 294 300 297 296 294 292 292 293 292 290 291 291 291 291 292 292 292 292 292 292 291
298 298 297 297 298 299 300 300 300 298 296 296 296 299 297 299 299 298 297 299 296 296 296 298 301 302 302 301 299 299 299 297 300 300 296 295 294 293 294 294 294 294 294 292 292 293 292 292 291 291 291 291 291 290
296 295 296 296 297 298 299 299 298 292 296 297 297 295 296 298 298 297 296 297 296 297 301 299 298 299 298 295 298 298 296 299 299 297 295 294 294 295 294 294 293 293 292 292 291 291 291 290 290 291 289 290 291 291
294 295 296 296 297 297 297 297 292 293 297 295 297 296 295 294 296 296 294 293 295 297 297 297 297 295 293 294 293 297 296 296 291 292 292 294 293 293 293 292 292 291 291 292 291 290 290 290 288 287 287 287 287 288
294 294 295 295 296 296 292 294 293 294 294 294 293 292 293 293 291 292 292 293 293 290 290 289 290 292 293 291 296 298 296 294 293 293 292 293 292 292 292 291 291 291 290 289 288 287 286 286 285 284 283 284 284 285
293 293 293 295 296 295 291 290 294 294 295 293 292 293 292 292 291 292 293 293 293 291 291 291 290 289 289 287 286 288 295 293 286 285 286 286 289 289 289 288 288 288 286 285 284 284 283 283 282 282 281 281 282 283
292 292 293 293 294 294 289 291 293 293 293 294 291 291 292 291 292 293 294 291 295 295 292 288 285 290 289 288 289 290 290 289 286 286 289 288 286 286 284 283 283 281 282 281 281 281 279 279 278 276 276 276 277 278
292 292 292 291 291 292 290 291 292 291 292 293 292 292 292 292 292 292 290 293 294 292 291 285 289 292 291 289 287 288 288 288 287 286 287 286 283 283 281 279 278 278 278 277 276 275 274 273 273 273 274 274 275 275
292 292 292 291 284 283 289 291 292 289 293 291 293 293 292 292 290 289 291 292 291 290 290 290 289 288 287 285 284 284 284 282 281 281 282 281 279 278 276 274 273 272 272 273 273 272 271 271 271 271 272 272 272 272
292 290 286 290 286 285 289 291 291 291 286 290 288 291 290 290 288 289 291 290 290 289 289 289 287 286 285 283 282 281 282 281 280 279 280 280 278 276 274 273 271 270 270 270 270 270 270 269 270 270 270 270 270 270
283 284 286 287 288 281 289 288 290 292 291 279 291 283 289 285 289 289 290 286 287 287 286 287 287 286 283 282 280 279 279 280 279 276 274 274 274 273 272 271 270 269 268 268 268 268 268 268 268 269 269 269 269 270
288 286 289 288 288 290 280 283 285 289 286 285 285 284 280 282 284 288 287 284 286 284 284 284 283 282 280 280 279 277 276 277 276 273 271 271 270 270 268 267 266 267 267 266 266 266 266 266 267 268 269 269 269 269
285 282 285 287 288 287 286 285 286 289 291 290 287 288 289 291 289 286 284 280 282 279 280 281 281 279 277 275 274 275 275 276 275 272 270 270 269 268 267 266 265 266 266 266 266 266 266 266 267 268 268 268 268 267
287 288 285 282 286 287 290 283 285 291 291 289 289 289 289 285 282 280 279 278 277 277 277 276 275 274 273 272 273 274 273 272 272 271 269 269 268 268 267 266 266 266 266 266 266 266 267 266 266 267 267 266 266 265
285 284 286 284 283 286 286 286 286 287 287 288 286 283 280 276 273 273 275 276 277 276 274 273 272 273 273 272 272 271 271 271 271 261 261 258 266 267 266 265 265 265 265 265 265 266 266 266 266 266 265 265 264 264
286 280 281 277 282 285 286 282 285 282 283 281 280 278 275 272 272 273 274 274 273 271 272 272 272 273 272 271 270 269 269 268 268 268 261 259 266 265 265 265 265 264 264 264 264 265 265 265 265 265 264 264 263 262
286 287 287 282 284 286 281 286 287 287 284 279 275 272 271 270 272 271 272 272 272 271 271 270 270 270 270 269 269 268 268 267 267 266 266 266 265 265 265 264 264 263 263 263 263 263 264 264 263 263 262 262 261 260
284 280 277 282 281 276 274 274 276 278 280 281 272 269 264 266 265 269 270 270 270 270 269 268 269 268 268 267 267 267 266 266 266 265 265 265 265 264 264 264 263 263 263 262 262 262 262 262 262 261 261 260 260 259
272 271 276 276 279 280 269 268 267 270 276 275 268 266 264 267 268 269 270 270 269 269 268 268 268 267 267 266 266 266 265 265 265 265 265 265 264 264 264 263 263 262 262 262 262 261 261 261 260 260 260 259 259 258

GFSWCAN_925_thetae_015.txt.gz
Theta_e
307 308 309 308 307 306 307 308 310 310 312 314 315 315 315 315 315 318 321 321 317 315 316 317 313 314 313 314 317 314 315 313 307 311 312 311 313 311 311 310 313 314 313 311 303 309 314 305 312 316 315 309 310 311
309 308 307 306 307 308 309 310 312 313 314 315 316 316 315 315 316 318 320 319 318 315 316 316 316 316 316 312 314 311 316 313 312 310 304 305 311 308 307 317 309 314 312 314 310 313 308 306 312 309 308 310 311 311
307 307 307 307 308 309 310 311 312 313 314 317 319 318 315 315 316 318 317 318 316 311 314 316 317 317 317 316 314 316 308 311 308 304 304 305 310 307 313 312 310 310 306 311 310 310 307 307 308 307 308 311 310 310
307 308 308 309 309 309 309 310 311 312 316 320 321 320 315 315 317 317 320 316 313 306 310 314 315 314 315 318 316 313 309 306 304 304 304 305 310 304 307 309 310 310 308 310 310 310 309 309 309 311 310 309 309 309
308 308 308 309 309 309 309 309 310 312 318 320 321 320 319 319 319 318 317 314 311 314 312 309 311 312 313 313 312 310 309 309 308 307 306 310 302 306 304 305 309 309 312 314 316 312 311 311 308 308 310 311 311 310
308 309 309 309 309 309 309 310 310 311 317 319 319 321 321 321 319 317 314 317 313 314 311 313 306 307 311 313 311 311 310 308 309 310 306 304 304 308 311 313 311 308 308 308 311 308 308 308 307 309 310 310 308 307
309 309 309 309 309 310 310 310 310 309 311 317 318 317 315 313 311 309 311 314 313 312 308 310 309 305 306 308 307 309 310 308 310 307 305 304 307 306 308 312 311 310 309 309 308 309 311 310 311 305 301 296 295 294
308 309 309 309 310 310 311 312 313 313 313 314 315 315 315 315 316 315 312 314 312 308 303 307 307 307 306 307 307 305 307 309 309 307 304 306 306 307 313 309 305 305 305 309 307 308 307 298 297 296 295 296 296 296
308 309 308 310 310 310 311 311 312 314 314 313 312 310 310 311 310 313 312 313 313 309 306 302 310 312 305 305 302 305 306 310 305 311 308 310 306 309 302 301 300 299 301 304 300 297 297 296 296 296 297 297 296 295
308 308 309 309 309 309 310 311 311 311 312 311 310 308 305 309 309 309 310 305 304 302 304 304 304 308 309 303 304 305 304 308 312 309 306 308 309 298 297 297 297 297 298 302 300 298 297 298 298 297 297 296 296 297
305 305 306 307 309 309 310 311 311 310 310 309 304 305 309 308 307 301 303 305 305 306 305 303 303 307 303 311 308 302 307 305 312 309 311 310 307 298 297 297 297 297 297 297 298 297 297 297 296 296 296 296 295 294
304 305 306 307 307 309 310 310 310 309 308 308 308 307 306 302 302 306 306 304 305 307 302 305 304 306 302 303 307 304 308 306 312 305 309 309 299 298 298 299 298 297 297 297 297 297 297 296 296 296 294 292 290 290
301 302 303 306 307 307 308 308 308 307 307 307 303 300 305 302 307 304 311 309 306 302 301 301 304 301 302 300 303 306 310 310 302 308 309 303 301 299 298 298 297 295 295 295 295 294 293 291 290 290 290 290 290 289
298 299 300 302 303 305 306 307 305 305 306 298 302 306 302 307 303 303 304 303 298 298 299 300 301 303 299 304 302 310 303 303 309 309 306 301 299 297 296 296 295 293 289 290 290 290 290 291 291 291 290 290 290 290
297 298 299 298 300 302 302 303 303 303 299 299 300 302 300 297 297 297 296 298 296 296 298 301 300 302 302 304 302 303 303 305 303 302 301 297 296 294 294 294 292 291 289 292 291 291 290 290 290 290 290 290 290 290
297 296 296 297 299 300 300 300 300 298 296 296 297 299 298 299 299 298 298 298 297 296 296 299 301 304 303 303 304 305 303 300 301 300 297 295 293 294 295 295 294 293 293 292 291 291 290 290 289 289 289 289 288 288
295 294 295 296 298 299 300 299 297 294 296 297 298 295 297 298 298 297 296 296 296 298 301 300 304 302 299 301 301 300 299 299 298 296 295 295 294 294 294 294 294 293 291 290 290 289 288 288 287 286 285 285 284 284
293 294 294 296 297 297 296 296 292 295 297 295 297 295 295 295 297 296 294 294 296 297 298 299 297 298 298 296 298 298 297 296 295 296 295 295 294 294 294 293 291 290 289 288 287 286 285 284 284 283 283 282 282 283
292 293 294 295 297 296 291 293 292 295 294 294 293 292 293 293 292 292 293 293 291 290 294 292 292 296 296 294 298 296 295 295 295 294 293 292 292 291 290 290 289 287 285 285 284 284 283 282 281 280 279 278 279 280
291 291 292 295 296 294 291 290 294 294 295 294 292 293 292 292 291 292 293 293 294 291 292 292 293 291 291 290 289 293 296 294 291 291 290 288 288 287 286 286 285 284 283 282 281 279 279 279 277 276 274 274 275 276
290 291 292 293 294 293 291 291 292 293 293 294 291 292 292 292 293 293 294 291 295 296 296 290 291 291 289 288 287 290 290 289 289 290 290 288 285 283 282 281 281 280 279 278 278 274 274 274 273 272 272 272 272 273
291 291 291 291 288 290 289 290 292 289 293 292 291 291 293 293 293 292 290 294 294 292 292 291 292 292 291 288 287 286 286 286 286 285 285 284 284 281 278 276 276 276 275 274 274 272 271 271 270 270 271 271 271 271
291 291 290 289 284 285 287 291 290 289 289 287 291 290 291 291 289 289 292 292 291 290 290 290 287 286 285 284 284 283 283 282 282 281 280 279 277 275 274 273 272 272 272 271 270 270 269 269 269 270 270 270 269 270
290 288 281 280 281 282 287 290 291 291 290 286 287 286 285 283 284 286 288 290 290 288 289 288 286 285 283 282 281 281 281 279 278 277 278 278 276 275 273 271 269 268 268 268 268 268 268 268 268 269 269 269 269 268
284 286 281 280 282 282 287 287 289 291 291 287 287 282 290 285 286 283 285 286 285 284 285 285 285 283 282 281 279 278 279 279 277 275 273 273 273 272 271 270 269 267 267 267 266 267 267 267 267 267 267 267 266 266
283 288 288 288 288 289 281 285 285 289 289 283 284 283 283 287 286 286 284 282 283 281 280 283 281 280 278 278 278 276 275 275 275 272 270 270 269 269 268 267 267 267 266 266 266 265 265 266 266 266 267 267 267 266
285 288 287 287 288 287 281 279 284 287 285 287 287 286 286 289 283 283 282 278 279 276 275 277 277 277 276 274 273 272 274 275 274 271 269 269 268 267 267 265 265 265 265 265 265 265 265 265 265 265 266 266 266 264
289 288 287 288 282 283 284 282 284 286 288 289 287 284 285 285 283 278 277 276 275 274 274 274 273 273 272 272 272 272 271 271 271 270 269 268 268 267 266 265 265 265 265 265 265 265 265 265 265 265 265 265 264 263
284 282 281 280 280 282 282 283 283 284 285 284 283 281 279 275 272 272 273 274 275 274 273 272 271 272 271 271 270 270 270 270 270 265 264 265 265 266 265 265 264 264 264 264 264 264 265 264 264 264 264 263 263 262
281 281 279 276 283 284 287 284 286 280 280 279 278 276 274 271 270 271 272 273 273 271 271 271 271 272 270 271 269 269 268 268 267 267 265 264 265 265 265 264 264 264 263 263 263 264 264 264 264 263 263 262 262 261
281 283 285 281 281 285 280 280 284 284 278 275 273 271 271 270 270 270 270 270 271 270 270 270 269 269 269 268 267 267 267 266 266 265 265 265 265 264 264 264 263 263 263 262 262 262 262 262 262 261 261 261 260 259
277 274 276 282 280 274 271 271 275 276 281 278 271 269 267 269 266 269 270 270 270 269 268 268 268 268 267 267 267 266 266 265 265 265 265 265 264 264 264 264 263 263 262 262 262 262 261 261 261 260 260 259 259 258
273 272 277 278 281 282 271 268 267 271 277 276 269 265 266 267 268 268 269 269 269 268 268 268 267 267 267 266 266 265 265 265 265 265 265 264 264 264 263 263 263 262 262 262 261 261 261 260 260 259 259 258 258 257

GFSWCAN_925_thetae_018.txt.gz
Theta_e
299 299 300 302 305 304 306 309 309 307 307 308 309 310 312 314 313 320 321 317 324 325 320 321 319 321 320 324 328 320 321 319 319 329 332 325 328 318 317 316 319 321 322 323 315 326 325 310 315 320 318 317 315 316
300 303 304 306 305 306 308 307 306 307 308 309 309 311 313 314 313 320 323 319 319 324 322 319 318 317 319 320 323 320 325 322 323 326 322 321 321 314 321 325 314 319 319 320 317 318 313 312 316 316 315 316 316 316
307 307 308 308 308 306 307 308 309 309 310 311 312 314 315 314 314 318 320 318 320 324 321 323 322 318 317 317 317 323 319 319 318 316 321 321 323 319 323 322 319 315 312 317 316 315 314 313 312 312 312 314 314 314
307 307 307 308 309 309 311 312 313 313 314 315 315 315 315 314 314 316 320 317 319 321 319 323 316 317 314 317 317 317 318 313 312 316 321 316 325 314 321 318 321 316 314 316 316 315 314 314 314 313 313 314 315 314
308 308 309 309 310 310 311 312 313 316 318 318 317 315 315 314 314 316 316 316 315 321 322 323 316 313 314 314 314 314 315 317 319 320 317 326 314 316 312 314 318 313 316 319 319 315 315 315 313 313 314 315 314 314
308 308 309 309 309 309 310 314 316 318 320 320 318 315 314 315 316 314 320 315 313 314 325 327 313 315 314 315 316 316 316 317 319 322 319 313 309 317 318 321 315 313 313 313 314 313 314 314 314 312 312 308 306 307
309 309 309 310 310 311 311 313 317 317 318 319 315 314 316 317 316 318 319 314 311 312 321 320 321 313 311 314 312 317 316 317 320 317 312 314 315 316 315 323 313 310 309 311 312 314 316 308 308 304 302 301 300 299
309 309 310 311 312 313 312 312 314 315 315 317 317 317 315 314 315 316 310 312 310 313 318 321 317 317 311 315 315 310 314 317 314 311 309 312 311 314 320 310 307 306 307 311 305 308 306 303 302 302 301 300 299 298
309 309 310 311 311 312 313 313 312 310 312 312 312 312 311 313 318 316 311 311 310 315 320 319 322 321 309 308 308 311 313 315 310 317 315 315 312 317 305 303 304 303 304 305 303 303 302 302 301 299 298 297 297 296
309 309 309 310 311 311 311 312 312 311 310 309 309 313 316 311 309 309 311 316 315 312 311 308 308 313 312 310 311 314 313 314 315 314 310 316 309 301 300 299 299 301 303 304 303 301 301 299 298 298 297 297 296 296
307 308 310 310 310 310 310 310 311 310 309 310 313 313 309 308 310 310 311 314 313 314 309 307 308 311 308 316 313 309 313 312 316 314 315 315 309 301 298 299 299 300 301 301 300 299 298 298 298 297 297 298 297 295
307 307 308 309 310 310 310 310 310 310 309 310 311 307 306 309 312 311 310 310 313 312 307 311 309 308 307 307 312 309 313 309 315 309 314 314 303 299 299 299 299 299 299 299 298 298 297 297 297 295 292 292 290 290
305 306 306 306 307 309 309 309 308 308 307 307 307 305 311 306 313 317 313 312 309 305 303 304 307 307 307 308 308 311 315 314 308 311 312 308 300 299 299 298 298 298 297 297 296 294 293 292 291 291 292 290 290 291
303 304 304 304 304 305 306 306 308 308 308 305 308 309 310 311 307 306 307 306 300 300 303 305 305 310 304 309 308 316 305 306 312 313 311 302 300 298 298 298 297 295 292 293 294 292 292 290 290 290 289 289 289 289
298 301 304 303 304 305 304 304 305 305 300 302 304 305 303 299 299 298 297 299 298 298 301 305 305 308 306 308 305 306 309 311 310 310 304 299 297 297 298 297 295 294 293 294 294 292 290 290 291 290 288 287 287 287
296 298 297 298 299 301 302 306 303 298 296 299 300 302 299 301 301 299 298 299 298 298 299 301 303 306 307 308 309 312 311 310 306 303 298 296 296 296 297 296 296 295 294 293 292 291 290 289 289 288 287 285 284 285
294 294 296 298 298 299 300 298 296 297 298 300 300 296 298 299 299 297 296 297 296 299 302 303 308 306 304 306 307 305 306 304 301 299 297 297 297 297 296 296 295 293 293 292 291 289 288 286 285 285 285 284 283 284
293 294 296 297 297 297 296 295 298 298 298 297 299 297 297 295 297 297 297 296 300 301 302 302 300 304 306 306 306 303 300 298 297 298 296 296 296 295 295 296 293 292 290 288 287 286 285 285 285 284 282 281 282 282
291 294 295 296 297 296 297 295 296 297 296 296 296 295 296 295 294 294 295 294 295 297 299 300 303 304 304 302 300 298 298 298 298 296 293 293 294 294 293 291 290 288 287 286 286 285 284 282 281 280 279 279 279 279
291 291 294 295 296 296 296 296 295 296 296 295 295 295 295 295 294 295 296 296 298 300 301 301 300 298 298 295 294 296 296 296 295 294 292 291 290 290 290 289 287 286 285 284 281 280 281 281 279 277 276 276 277 277
291 291 292 293 293 293 293 295 295 295 295 295 294 295 296 296 297 297 297 296 301 299 299 295 295 293 291 290 291 292 293 295 297 297 295 290 287 287 285 284 283 283 283 281 280 278 277 277 276 275 275 275 274 275
290 291 291 291 292 292 294 292 294 294 296 295 296 296 297 298 297 296 294 298 297 294 294 294 293 293 292 289 288 288 289 289 288 288 286 286 285 283 282 281 281 280 278 277 277 276 275 273 272 272 273 273 273 274
290 290 290 289 292 292 292 292 294 293 295 295 295 296 296 296 294 293 296 294 293 290 290 291 288 287 286 285 284 284 285 285 284 283 282 280 279 278 277 276 276 277 276 274 273 273 272 270 271 270 271 272 272 272
289 287 288 290 291 291 291 291 291 292 293 294 294 295 294 293 292 294 294 291 287 286 287 288 287 287 285 283 282 282 282 281 280 279 280 279 278 276 275 274 272 271 270 270 270 270 270 270 269 270 270 270 271 271
291 289 290 289 290 289 290 290 291 292 293 292 293 294 293 291 293 291 290 286 286 285 285 285 285 284 284 282 280 279 278 279 278 276 275 276 276 275 273 272 271 269 268 269 269 269 269 268 268 268 269 269 269 269
290 290 290 290 290 291 290 292 291 292 292 292 292 290 291 292 291 288 286 284 284 281 280 282 283 282 280 278 279 277 276 276 275 274 272 272 272 273 272 272 272 271 267 266 266 267 267 267 267 267 268 269 268 267
290 290 290 288 289 289 291 290 290 292 292 293 292 292 292 291 289 285 283 279 280 277 276 276 278 278 277 275 273 272 272 273 273 272 270 269 268 268 268 269 268 267 265 265 264 265 265 265 266 267 267 268 267 266
290 290 290 289 290 290 291 291 291 291 292 290 291 290 290 289 286 280 279 277 276 275 274 273 272 273 273 272 272 273 271 270 270 269 269 268 267 266 265 265 265 265 265 264 264 263 264 265 266 266 266 265 265 264
290 289 289 286 288 289 289 290 290 289 287 289 290 287 282 277 274 275 275 275 275 275 275 274 272 271 270 270 269 269 269 270 272 272 272 272 270 269 266 264 264 264 263 263 263 263 263 265 264 264 263 263 262 262
289 287 289 286 288 289 288 288 289 286 283 282 280 278 276 274 272 271 273 273 273 272 271 270 270 272 271 272 271 269 267 266 266 268 270 269 268 266 265 264 264 263 262 262 262 262 262 263 262 263 262 262 262 261
287 289 290 289 289 288 285 282 285 283 281 279 277 279 276 274 271 269 269 269 269 270 271 270 269 268 269 269 269 269 269 266 265 265 265 265 264 264 264 263 263 262 262 261 261 262 261 262 262 262 262 261 260 259
285 284 286 287 288 282 280 282 282 285 284 281 277 275 274 275 274 272 269 269 270 270 268 268 269 268 267 266 266 266 265 265 265 265 265 265 264 263 263 262 263 263 262 261 261 261 260 260 261 261 260 260 259 258
283 282 284 284 285 285 280 280 280 281 281 279 276 274 273 275 273 271 268 268 268 268 268 267 267 267 267 266 266 265 265 265 265 264 265 264 264 264 263 262 262 262 262 261 261 260 260 260 260 260 259 258 258 257

GFSWCAN_925_thetae_021.txt.gz
Theta_e
298 298 298 299 298 299 300 300 301 302 303 304 305 309 309 309 310 311 325 324 321 320 321 321 319 320 320 323 330 325 324 324 325 330 335 330 333 324 323 320 323 322 325 327 324 326 326 313 316 318 321 317 316 317
298 298 298 300 301 300 300 301 303 303 306 308 310 309 308 310 311 313 325 323 326 324 326 323 322 321 322 323 325 324 325 326 326 329 330 332 327 320 326 326 319 323 322 323 320 321 317 315 315 315 316 316 316 316
299 299 298 299 300 301 303 306 306 306 307 307 307 308 310 310 312 313 324 325 324 327 325 323 323 321 320 322 323 326 326 325 325 327 330 331 328 326 327 326 323 319 317 319 318 316 315 315 315 314 315 315 315 316
299 299 300 303 304 304 306 307 307 307 307 308 308 309 310 311 313 315 323 324 323 326 325 326 320 321 318 320 322 323 324 322 322 324 330 322 329 322 328 324 322 320 317 317 318 316 315 315 316 315 316 316 316 317
306 307 307 307 307 307 306 307 307 308 308 309 309 310 311 313 314 318 320 319 322 324 325 326 320 318 319 320 320 320 321 322 323 326 321 329 322 323 320 320 322 317 317 320 320 318 318 317 317 316 317 316 314 315
307 308 308 309 309 310 311 311 312 312 311 311 311 312 313 314 313 318 324 317 317 323 327 328 320 319 319 319 320 321 322 323 324 327 325 321 317 322 324 322 319 316 316 315 318 317 317 317 312 310 309 308 307 306
308 309 309 309 311 313 315 315 315 315 315 315 314 314 314 314 314 319 319 318 314 320 325 325 324 319 318 319 319 322 322 323 324 324 320 323 320 321 321 323 318 313 312 314 312 315 317 311 310 308 307 305 302 301
312 311 311 311 312 314 314 312 315 317 317 317 315 314 314 315 315 318 309 313 316 317 323 325 321 322 318 321 322 318 322 324 320 317 316 320 317 321 324 316 312 310 311 310 309 309 309 307 307 305 303 300 300 299
311 311 310 310 311 310 313 312 311 311 312 313 313 314 315 318 320 316 309 311 313 318 324 323 322 324 315 314 315 317 319 322 315 317 319 320 315 321 313 310 309 308 309 309 307 307 307 305 302 301 300 299 298 297
310 310 310 310 310 310 309 309 312 314 315 315 316 317 320 313 311 313 311 319 319 317 316 313 316 318 317 315 315 316 315 318 318 316 314 318 316 305 305 305 305 306 308 307 306 305 302 301 300 300 299 299 299 300
309 310 310 310 310 310 310 310 309 309 310 316 319 317 311 309 311 315 317 320 319 319 312 311 313 315 312 318 314 312 316 315 318 317 317 317 316 306 302 303 303 304 305 304 303 301 301 300 300 299 299 297 294 293
308 308 310 310 310 310 310 310 309 310 310 314 314 310 310 313 316 318 314 313 317 315 309 312 310 310 310 313 314 313 312 312 317 312 317 316 306 302 301 301 301 301 301 301 300 299 299 298 297 294 294 293 291 292
307 308 308 309 310 310 309 308 310 309 309 311 312 309 314 312 318 315 313 315 314 308 306 309 310 310 309 311 313 313 315 317 312 316 314 309 302 300 300 301 301 300 299 298 297 295 294 293 292 293 292 290 292 293
305 305 306 305 306 310 310 308 309 309 308 309 313 311 311 315 308 306 308 307 301 302 307 309 308 310 309 310 311 313 307 311 315 316 314 303 301 300 300 300 300 298 296 295 295 294 293 292 290 290 290 289 289 289
304 305 307 305 302 304 307 309 310 307 303 305 305 307 304 300 299 298 298 300 299 301 306 311 310 312 310 311 310 310 310 314 314 314 306 300 298 298 299 299 296 295 294 296 295 293 292 292 291 290 288 287 287 286
300 300 297 300 303 304 303 305 303 301 299 300 301 302 300 302 301 299 299 299 298 299 302 307 308 312 309 311 313 315 315 314 309 306 300 297 297 297 299 297 296 297 296 295 294 293 291 289 290 289 287 285 285 285
298 297 296 297 298 298 299 298 298 299 300 302 301 297 299 299 299 297 297 297 296 300 304 306 312 308 305 311 310 309 310 306 301 299 299 297 296 297 297 296 295 295 295 294 293 291 289 288 287 286 286 285 284 284
296 296 296 297 297 297 296 298 299 299 299 300 301 298 298 297 299 299 299 299 302 302 302 304 303 307 310 310 309 305 302 299 299 298 298 298 296 296 297 297 295 294 292 290 289 288 287 287 287 286 284 283 283 283
293 294 296 296 297 299 298 297 298 298 298 298 298 297 297 297 297 297 297 299 300 300 302 303 307 306 306 302 301 300 299 299 299 296 294 295 296 296 296 294 293 291 290 290 290 289 286 284 283 283 282 281 281 281
291 293 294 296 298 298 297 297 297 298 298 297 297 297 297 298 297 297 298 300 301 302 302 301 299 297 297 294 294 296 298 297 295 295 293 293 293 294 293 291 290 289 288 285 284 284 285 284 281 280 279 279 279 279
292 291 293 296 296 295 295 297 296 297 297 297 296 298 297 298 299 299 300 300 301 298 299 297 296 295 291 291 291 293 293 295 297 297 296 294 292 291 289 288 288 288 287 286 285 282 281 280 278 277 278 278 277 277
292 291 294 294 295 295 296 295 296 296 296 296 297 297 298 299 299 297 297 299 295 292 293 293 292 292 291 288 287 288 289 290 290 289 289 288 289 287 286 285 285 283 282 281 280 279 278 276 275 275 276 276 276 276
291 293 293 294 295 295 293 294 295 295 296 296 297 296 296 296 295 296 296 294 291 289 290 289 288 287 287 286 285 284 285 286 285 283 283 282 281 280 279 279 279 280 279 277 276 276 275 273 274 273 275 274 275 275
290 291 292 293 294 293 293 292 293 294 296 296 296 295 294 294 295 296 293 290 288 287 287 287 289 289 287 285 283 283 283 282 281 282 282 281 279 278 277 276 275 274 273 274 274 274 274 274 272 273 273 273 274 273
294 291 294 293 293 294 294 293 294 295 294 294 295 295 293 294 295 293 291 288 287 285 285 286 285 286 286 284 282 280 279 280 279 278 278 279 278 277 276 274 273 272 272 273 273 272 273 272 272 271 271 272 271 271
292 291 292 292 293 294 293 294 294 293 293 294 293 293 293 294 293 291 288 285 285 283 282 283 285 285 282 280 280 279 277 278 278 277 274 274 275 276 276 276 276 274 270 270 270 270 271 270 270 270 270 271 271 270
292 291 291 290 291 291 293 293 292 293 293 294 293 293 294 294 292 287 284 281 282 279 279 279 280 280 280 278 276 275 275 274 274 274 272 272 271 271 271 272 271 269 268 268 268 268 268 268 269 269 269 270 269 269
291 291 292 291 292 292 292 293 293 292 292 291 292 292 292 291 288 283 281 279 278 278 277 276 275 275 275 275 276 276 275 274 272 273 272 272 271 270 269 269 268 266 266 266 266 266 266 267 267 269 269 268 267 267
291 290 291 290 291 291 291 291 291 290 289 290 292 290 285 280 277 278 277 277 278 278 278 277 275 275 274 273 272 272 272 272 274 274 274 275 274 272 269 268 268 267 267 266 266 266 266 265 266 266 265 266 266 266
290 289 291 290 290 291 289 290 291 287 285 285 283 281 279 277 274 275 276 276 276 275 274 274 274 274 274 275 274 272 270 269 268 269 272 271 270 268 268 268 267 267 266 266 266 266 266 265 266 266 266 266 266 265
289 291 291 291 290 288 287 286 287 285 284 283 282 283 280 277 274 272 272 273 273 274 274 274 272 272 272 271 271 271 272 269 266 266 265 266 267 267 267 266 266 265 265 265 265 265 265 264 265 266 266 265 264 263
289 287 289 289 289 286 285 286 286 288 286 284 281 279 278 279 278 274 270 272 273 273 270 272 272 271 269 268 268 268 267 266 267 266 265 265 265 266 266 265 265 265 265 264 264 264 264 264 264 264 264 264 263 261
287 287 286 287 287 287 286 285 285 285 284 282 279 279 278 279 276 273 270 269 270 270 270 269 269 269 267 267 267 266 267 266 265 264 264 263 264 263 262 264 265 264 264 264 264 264 264 264 263 263 262 262 261 260

GFSWCAN_925_thetae_027.txt.gz
Theta_e
296 295 296 297 297 297 297 298 299 298 300 301 301 302 302 301 302 303 304 306 313 319 320 322 319 321 325 323 322 322 323 320 316 320 317 316 316 316 318 322 318 316 315 311 315 317 319 315 315 312 316 315 314 313
295 297 296 297 297 297 296 298 298 298 298 299 300 300 300 300 301 303 302 305 308 313 319 322 323 324 324 322 322 320 325 322 323 321 319 315 318 312 316 316 319 318 319 316 317 315 316 313 313 313 312 312 314 314
297 296 297 297 296 297 298 298 296 297 299 299 300 300 301 301 301 302 303 309 311 314 317 321 323 320 326 324 322 322 323 323 325 324 319 317 319 309 317 316 320 319 318 316 315 316 315 313 314 315 315 315 313 310
297 296 296 295 296 297 296 296 297 298 300 300 300 302 302 301 302 303 305 308 312 314 317 323 322 320 321 325 326 325 325 326 324 323 313 312 317 321 312 317 315 317 316 317 316 316 318 316 315 314 311 310 306 304
297 296 296 297 297 296 297 298 299 300 300 301 302 302 302 303 306 307 308 308 311 313 320 321 320 321 321 323 325 326 324 324 321 314 307 314 312 315 307 310 310 316 316 312 311 318 315 313 310 309 308 306 306 304
298 298 297 297 298 298 300 300 300 301 301 301 302 303 303 304 305 309 311 310 310 310 316 317 318 320 321 322 322 323 322 322 323 319 316 317 317 313 310 309 317 315 315 315 317 313 311 308 306 305 304 303 302 301
298 299 299 299 299 299 299 299 299 300 301 303 303 303 304 305 309 310 314 313 313 311 317 314 314 317 320 320 317 320 321 321 320 320 313 314 316 317 307 312 315 313 312 312 312 311 310 308 305 302 301 300 299 298
298 298 298 298 298 300 299 299 300 302 304 304 305 305 307 308 309 311 311 315 317 318 316 314 313 315 318 313 313 316 315 315 315 314 311 309 311 305 312 313 312 312 310 310 308 308 305 303 302 302 300 299 297 296
303 301 302 303 303 301 302 303 304 303 304 306 306 307 308 311 315 316 315 316 314 316 311 310 314 317 315 312 309 312 315 313 313 309 309 310 306 313 315 311 310 311 311 308 305 304 303 302 302 300 297 297 296 295
307 307 306 306 306 305 306 306 305 306 306 308 310 314 311 314 311 314 316 312 310 311 308 307 310 314 314 306 309 310 306 313 310 312 310 307 305 307 307 307 307 308 307 304 302 302 301 301 299 299 297 295 294 294
307 308 309 309 310 308 307 308 308 309 311 314 313 309 310 312 311 306 305 308 308 306 305 306 309 312 311 311 310 306 310 308 309 310 309 311 307 307 304 304 304 304 306 305 302 301 301 300 297 295 293 292 290 289
308 307 307 307 307 310 309 308 309 313 315 314 312 311 311 311 308 308 307 304 310 310 303 308 308 311 307 310 306 309 310 306 312 310 312 310 306 304 303 303 303 303 302 301 300 298 297 296 294 293 291 290 288 288
310 309 309 310 310 308 308 313 312 311 311 310 306 304 310 304 311 311 309 310 308 304 303 304 306 305 305 307 306 308 315 312 306 311 309 304 304 302 302 302 300 299 298 296 295 294 293 292 291 290 290 290 288 286
310 310 309 309 309 310 311 311 310 308 308 304 304 306 306 308 304 303 304 303 299 299 301 303 304 305 302 306 305 310 306 306 312 312 308 304 302 301 301 300 299 297 294 293 292 290 290 289 288 288 287 287 286 285
307 309 309 309 310 309 309 308 307 306 300 300 300 303 301 299 298 298 297 299 297 298 300 305 304 306 305 307 305 306 309 310 309 307 304 301 300 300 299 296 295 293 292 292 291 289 288 287 287 286 286 285 285 284
301 304 300 304 309 310 310 310 302 299 296 297 297 301 299 301 300 298 298 299 298 297 299 301 305 307 307 307 309 310 310 307 304 301 298 298 298 297 296 295 295 294 293 292 291 290 289 287 286 285 285 284 283 283
298 297 299 301 303 305 308 302 298 297 296 298 298 295 297 298 298 298 296 297 297 300 303 303 306 305 303 308 306 303 302 301 298 297 296 297 297 295 294 294 294 293 292 291 290 289 289 288 285 285 285 285 283 282
297 298 298 300 300 299 299 299 297 297 298 297 298 297 296 295 297 296 296 296 298 299 300 302 301 303 302 303 301 299 297 296 295 295 294 296 296 295 295 295 294 293 291 290 289 288 287 287 285 284 283 283 282 281
296 297 298 298 298 298 296 297 298 297 297 296 295 296 296 296 295 295 296 297 298 297 298 299 298 298 296 294 293 294 295 295 295 294 294 295 295 295 295 292 291 290 290 289 288 285 284 283 282 281 281 281 280 280
295 296 296 297 297 296 295 296 298 297 298 296 296 296 295 296 295 295 294 294 295 295 295 295 293 292 291 290 289 291 291 293 293 294 294 294 293 292 292 291 290 287 286 285 285 283 281 280 280 279 280 279 278 278
292 293 294 296 296 296 294 294 295 295 296 296 295 294 295 294 296 295 293 291 291 292 292 290 290 288 287 287 287 288 287 287 288 291 293 290 289 288 287 287 287 286 285 283 282 279 278 277 277 277 278 277 276 277
294 294 293 293 293 293 293 294 293 294 295 296 294 294 293 292 293 294 290 289 289 289 290 288 288 287 286 285 285 285 286 285 284 283 282 283 283 282 282 282 280 279 279 279 279 277 276 276 275 275 276 275 275 276
292 293 294 293 288 288 288 294 290 293 291 293 292 292 294 294 293 292 289 289 288 287 287 288 286 284 283 282 283 282 282 282 282 281 280 279 278 278 277 277 278 278 277 277 277 276 276 275 274 274 274 273 273 274
292 291 289 289 289 291 288 288 291 292 290 290 290 291 293 293 290 286 289 287 285 284 285 285 286 284 282 281 281 281 281 280 280 280 279 278 277 276 275 275 274 275 275 275 274 274 273 273 273 272 271 271 272 272
287 287 288 287 289 287 290 293 293 293 294 294 290 292 293 290 288 289 289 286 281 281 281 283 281 280 281 280 279 278 278 279 277 276 276 278 277 276 275 273 272 272 272 271 271 271 271 271 270 270 270 270 271 271
291 290 291 291 291 293 293 293 293 294 294 293 293 292 291 292 288 286 286 282 279 278 279 279 281 278 278 277 277 276 275 277 276 274 273 274 274 274 274 273 272 269 269 269 269 268 268 268 268 269 269 269 270 269
291 292 291 290 292 292 293 293 293 291 289 291 293 292 292 291 284 284 280 281 279 278 277 278 278 278 278 277 276 275 274 274 274 273 273 272 271 271 271 270 268 268 268 268 267 267 267 267 267 267 267 267 267 267
290 291 292 292 292 292 293 292 291 290 290 289 291 286 285 283 281 281 280 280 278 277 277 276 275 275 275 274 274 273 274 275 274 274 273 271 271 270 269 269 269 268 268 268 267 267 267 267 267 266 266 266 266 266
290 291 287 288 290 290 290 291 290 288 286 288 288 284 281 278 277 278 278 277 277 276 276 276 276 275 273 273 272 271 270 271 272 266 265 264 271 269 268 269 269 268 267 267 267 267 267 267 267 266 266 266 267 266
289 289 287 285 287 289 286 288 286 284 284 284 279 278 277 275 274 274 275 275 276 275 274 274 273 272 271 272 271 269 269 268 268 268 263 262 267 267 267 268 267 267 267 266 266 266 266 265 265 266 265 266 266 265
289 286 285 285 283 285 286 287 285 285 283 279 279 275 274 273 273 272 272 274 273 273 273 271 270 270 270 270 269 269 269 268 268 267 267 266 266 266 266 265 265 265 265 266 266 265 265 265 265 265 265 265 265 264
287 287 282 284 285 283 286 284 286 287 282 280 276 272 272 274 270 271 271 272 271 271 271 270 270 269 269 268 268 268 268 268 267 267 266 266 266 265 265 264 264 264 264 264 264 264 264 264 264 265 265 264 263 263
284 282 281 281 282 284 281 280 284 281 278 277 275 276 272 272 271 272 271 270 269 269 269 269 269 269 269 269 268 268 267 267 266 265 265 265 265 265 264 264 263 263 263 263 262 262 262 262 263 263 264 263 262 262

GFSWCAN_925_thetae_030.txt.gz
Theta_e
296 296 297 297 297 297 297 297 297 297 297 297 297 298 297 300 303 303 305 305 307 312 315 317 314 314 318 321 322 320 321 320 312 317 316 313 310 315 315 317 315 314 312 309 313 311 315 314 313 312 309 312 311 311
297 297 297 297 297 297 297 297 297 297 297 297 298 298 299 302 303 303 304 304 304 307 314 312 314 316 316 319 320 318 320 321 320 318 316 312 315 309 312 317 316 315 313 312 313 313 313 312 313 313 311 312 313 313
296 295 296 296 296 296 298 298 299 298 298 298 298 298 301 302 301 302 303 304 305 309 313 314 317 321 322 321 322 320 319 320 321 317 315 315 314 306 314 311 315 316 317 315 314 315 314 315 314 313 313 309 306 307
296 296 296 296 297 296 298 297 298 298 300 300 300 302 302 301 301 302 303 304 309 312 312 318 321 319 321 321 321 321 320 322 320 314 311 310 312 313 307 313 311 314 314 315 313 316 315 313 310 309 305 304 303 302
296 296 297 296 296 297 298 297 297 298 299 299 300 300 300 301 301 301 303 303 306 313 314 314 317 320 322 324 322 320 322 320 315 310 306 310 306 313 302 307 308 313 314 311 311 314 312 311 308 306 305 304 302 301
296 296 295 295 296 296 296 296 297 298 299 300 301 301 301 301 301 303 307 305 305 308 312 312 315 318 320 322 322 322 321 319 318 314 308 313 315 310 308 307 314 314 313 313 316 311 308 305 304 303 302 301 300 299
296 296 296 297 297 296 297 297 299 299 300 301 301 301 301 301 304 308 309 311 308 307 311 312 313 316 318 316 315 319 318 316 318 316 310 311 314 311 303 311 314 312 311 309 307 307 306 305 302 300 299 298 298 297
297 297 297 297 297 298 299 300 300 301 301 301 302 302 302 304 306 308 310 312 310 311 314 312 315 314 315 312 314 313 313 313 313 314 310 307 310 302 312 313 311 309 308 308 307 306 304 301 299 298 297 297 296 295
298 298 298 299 299 299 299 299 299 299 301 301 302 303 304 307 309 308 309 310 310 312 313 307 313 318 311 308 306 309 308 312 309 309 310 310 308 310 312 311 310 308 308 304 303 302 301 300 298 297 296 295 294 292
297 297 297 297 297 298 299 299 299 301 303 303 304 307 307 309 309 309 309 312 311 310 305 308 309 313 312 305 308 306 305 309 312 308 307 306 308 306 305 306 306 305 304 303 301 300 299 298 297 296 295 293 292 290
301 299 299 300 300 300 300 300 301 304 305 306 309 307 310 308 307 307 306 307 306 306 304 305 305 313 309 311 309 303 309 304 310 310 309 309 309 305 305 304 304 304 303 303 301 299 298 297 295 294 292 290 288 288
305 304 304 303 303 303 303 303 303 305 307 312 311 310 309 309 304 306 305 306 307 309 304 307 307 310 307 309 308 306 309 304 309 308 307 313 306 305 306 305 303 303 302 301 300 298 296 295 293 291 289 288 288 287
307 306 305 305 305 305 306 306 306 310 310 309 304 302 307 301 308 305 309 309 307 303 303 303 306 304 305 306 305 306 309 308 304 311 310 303 305 303 302 300 298 297 296 296 295 294 293 291 290 289 288 287 286 286
306 306 306 306 305 305 306 308 308 306 305 300 301 304 305 305 302 302 304 303 299 299 300 302 303 305 301 306 303 309 306 306 306 305 305 303 303 301 299 297 296 295 293 292 291 290 289 289 288 289 286 285 285 284
308 308 309 309 308 307 307 306 306 303 297 298 300 302 300 299 298 298 297 298 297 298 299 303 303 305 304 306 304 306 309 309 305 305 303 301 300 299 297 295 293 292 291 290 289 288 288 287 286 286 285 285 285 283
308 309 302 305 309 308 305 304 301 299 295 294 297 300 298 299 299 298 298 299 298 297 298 301 304 305 306 306 307 307 308 306 303 300 298 298 297 295 295 293 293 291 290 290 289 288 287 286 285 285 284 284 284 282
305 299 300 302 305 309 309 300 297 295 296 296 297 295 297 298 298 298 296 297 296 299 303 302 304 305 303 304 302 301 300 299 298 296 296 296 295 294 294 292 292 291 291 290 289 288 286 285 285 284 283 282 282 282
298 299 300 300 302 301 299 298 295 296 298 296 297 296 296 295 296 296 295 296 297 297 299 301 300 299 297 299 297 295 297 296 294 294 295 294 294 293 294 294 292 291 290 290 289 288 285 284 284 283 284 282 281 281
296 298 297 297 298 298 295 297 296 297 296 295 295 295 295 295 293 292 293 294 296 295 297 295 294 295 293 291 291 291 291 294 295 294 293 294 294 294 293 291 291 290 289 288 287 285 283 281 281 281 281 280 279 279
295 296 296 296 297 294 295 295 296 296 297 296 295 296 295 295 293 291 290 291 293 293 292 291 289 288 288 287 288 288 287 289 293 294 293 291 291 291 291 289 287 286 285 283 281 281 280 279 279 279 278 277 277 277
293 292 294 296 296 294 291 292 295 295 295 295 292 293 293 292 290 289 289 288 289 290 289 288 286 285 285 285 285 286 285 284 285 289 289 286 284 283 282 283 283 283 281 280 279 278 277 277 276 277 276 276 276 276
292 293 292 293 290 290 290 291 292 291 294 293 292 292 291 291 291 289 287 287 287 288 288 287 285 284 283 283 282 282 282 281 281 281 280 280 280 280 279 279 279 278 278 277 276 276 275 275 275 275 275 274 274 274
292 293 292 288 285 285 287 290 289 292 290 290 289 292 292 291 292 287 287 287 285 284 285 283 282 281 281 280 280 280 280 280 279 279 278 277 276 276 276 276 276 277 276 276 276 275 274 273 273 273 272 272 272 272
293 288 287 284 285 286 282 287 289 289 287 287 288 290 291 291 287 284 285 284 283 281 282 282 282 281 279 278 277 277 278 277 277 277 277 276 275 274 274 273 273 273 273 272 272 272 272 271 271 271 270 270 270 271
286 285 283 283 282 286 290 289 287 287 288 284 287 290 291 284 285 283 283 281 279 278 278 279 278 278 277 276 275 276 276 276 275 274 274 276 274 273 272 270 270 270 270 270 269 269 269 269 269 269 269 269 269 269
289 288 287 290 290 291 291 291 291 291 284 285 290 290 283 280 278 280 282 276 276 275 275 276 274 276 276 275 274 274 274 275 274 272 271 273 273 273 271 270 268 268 268 268 267 267 267 267 267 267 267 267 267 267
290 287 289 289 291 288 288 285 284 283 282 285 284 283 287 279 279 281 280 279 277 276 276 276 276 275 275 274 274 274 274 274 273 271 271 270 270 269 269 269 268 268 268 267 267 267 267 266 266 266 266 266 266 266
290 289 288 288 285 286 283 282 282 284 285 286 285 279 278 275 278 279 278 278 277 276 275 275 274 273 271 270 270 272 274 273 272 271 270 269 269 268 268 268 268 268 267 267 267 267 266 266 267 266 265 265 266 266
289 288 282 284 282 285 285 283 282 285 285 285 280 277 276 275 274 274 275 275 276 275 273 273 272 272 271 270 270 270 270 270 271 261 260 259 266 267 267 267 267 267 266 266 266 266 266 266 265 265 265 265 265 265
283 278 278 276 278 282 281 283 282 279 278 275 275 275 274 273 271 273 273 274 272 271 271 270 270 270 269 270 268 268 268 267 267 267 260 260 266 265 265 265 265 264 264 265 265 265 265 265 265 265 264 265 265 264
280 276 278 277 281 284 284 283 283 279 274 271 271 269 269 270 272 271 271 272 271 271 270 269 269 269 269 268 268 267 267 267 266 266 266 266 265 265 265 264 264 263 264 263 263 263 263 263 263 263 264 264 264 264
275 274 276 279 281 279 279 284 281 280 273 272 269 262 267 265 266 270 270 270 270 269 269 269 269 269 269 268 268 267 267 266 266 265 265 264 264 264 264 264 263 263 263 263 263 262 262 262 262 261 262 262 263 262
274 271 269 271 278 277 272 274 277 275 272 271 270 269 267 267 268 270 269 269 268 268 267 268 268 269 268 267 267 266 265 265 264 264 264 264 264 263 263 263 263 262 262 262 262 262 261 261 261 260 260 260 260 260

GFSWCAN_925_thetae_033.txt.gz
Theta_e
299 300 300 299 298 298 298 298 298 297 297 297 297 297 298 298 299 299 300 305 305 306 310 314 314 314 314 313 314 315 322 319 309 317 315 311 311 314 313 314 313 315 313 309 307 307 313 311 312 310 308 311 311 310
296 296 296 296 297 297 297 297 297 297 297 297 298 298 299 297 299 299 304 305 304 306 309 307 308 309 311 312 315 316 318 320 318 317 312 312 310 306 313 316 315 315 312 313 313 312 310 311 310 310 309 310 309 310
297 297 297 297 297 297 297 296 296 297 297 298 298 298 298 298 298 300 304 305 304 306 305 309 312 315 314 315 317 319 316 319 318 316 315 312 314 307 314 311 314 314 313 312 312 315 314 314 311 310 311 310 309 310
296 296 296 296 296 296 296 297 297 297 297 297 297 297 298 297 300 302 304 304 304 308 309 314 316 316 319 320 319 319 318 319 315 314 312 310 312 311 309 312 310 312 314 314 314 315 313 311 307 304 303 302 302 301
295 296 296 296 297 297 297 297 297 297 297 297 297 298 298 300 302 302 302 304 307 308 310 310 310 315 319 321 319 319 320 317 312 311 306 312 308 311 301 307 306 312 313 313 313 314 312 311 305 304 303 302 301 299
296 296 296 297 297 297 298 298 298 298 298 297 297 298 302 302 302 302 303 302 303 306 309 308 310 314 318 320 318 318 319 316 313 313 307 311 313 312 312 309 313 312 311 310 313 310 307 305 303 302 302 300 299 297
296 295 295 297 298 296 296 298 299 300 300 299 300 302 301 300 301 302 304 305 302 305 308 307 303 310 316 316 314 317 315 316 317 315 307 310 313 308 301 310 313 311 309 307 305 305 304 303 301 299 299 298 296 295
296 296 296 297 296 296 297 298 298 299 300 299 299 300 300 300 300 304 309 308 304 306 310 310 309 310 313 309 315 313 312 313 313 313 307 306 310 302 311 312 310 308 307 306 304 305 304 300 298 297 296 296 295 294
295 296 297 297 298 299 299 299 299 300 301 301 301 301 302 301 305 307 309 307 309 310 312 307 310 313 310 308 307 308 309 312 310 310 311 311 307 314 311 311 309 308 308 303 301 300 299 298 297 296 295 294 293 291
297 297 297 297 298 300 300 300 300 301 301 302 302 304 304 306 307 307 307 310 309 311 305 307 308 313 311 305 306 309 306 309 313 310 308 309 308 305 304 306 305 303 302 301 300 299 298 297 295 295 294 293 291 289
298 298 298 298 298 299 299 299 300 301 301 303 303 305 307 308 306 305 307 307 306 307 304 306 306 312 309 311 310 303 308 305 314 312 313 309 310 305 303 303 303 303 302 303 301 299 298 296 294 292 291 290 289 288
297 297 297 297 298 298 299 299 301 303 302 304 308 307 307 307 305 303 305 305 307 309 303 307 307 310 306 307 307 306 309 305 313 306 307 312 306 303 302 302 302 301 300 299 299 298 296 295 294 291 290 289 288 287
299 298 297 298 298 298 299 299 301 305 306 307 303 302 305 300 307 307 310 308 307 302 303 302 306 303 304 304 302 303 306 305 302 311 312 306 305 303 301 299 299 298 298 297 296 294 292 291 289 289 288 287 287 286
302 302 301 301 301 301 300 302 303 305 305 300 302 303 302 302 301 301 303 303 299 299 300 301 303 304 301 305 303 306 305 306 309 309 305 303 302 300 299 297 297 295 293 293 292 291 290 289 287 287 286 286 285 284
304 304 303 303 303 304 303 303 303 304 297 299 300 302 301 299 298 298 297 299 297 298 299 303 303 304 303 306 304 306 309 309 306 304 302 300 299 297 296 294 293 291 291 291 290 289 288 287 286 285 285 284 283 283
306 307 301 306 306 306 305 302 300 298 294 296 297 299 298 299 299 298 298 299 298 297 298 301 303 306 306 305 306 305 307 305 301 298 297 297 296 295 294 293 291 291 290 290 289 288 287 287 286 284 284 283 281 281
301 299 299 300 300 299 299 298 296 295 295 295 297 296 297 298 298 297 296 296 296 299 302 302 303 302 302 302 301 300 299 297 296 296 295 295 294 293 292 291 290 290 289 288 287 286 286 284 284 283 283 282 281 280
297 297 299 298 300 301 298 297 293 294 296 296 294 295 293 291 292 293 293 294 297 298 298 298 297 294 293 295 293 291 292 295 294 294 294 293 292 292 292 292 291 290 289 288 287 285 284 284 284 283 282 281 280 279
296 296 298 299 300 298 295 296 295 296 296 295 295 294 293 291 289 289 290 291 293 293 294 292 291 291 290 289 289 288 287 289 294 293 292 291 291 292 291 291 290 289 289 287 285 284 282 282 281 281 280 280 279 278
296 296 296 297 298 294 295 295 296 296 297 296 293 291 291 289 288 288 288 289 290 291 289 288 287 286 286 285 285 285 285 286 291 290 287 285 286 287 287 287 285 284 282 281 281 280 280 279 279 279 278 278 278 277
293 292 295 296 295 293 291 293 295 295 295 295 292 292 292 289 287 286 287 287 288 288 287 286 284 284 283 283 282 283 282 282 282 284 285 283 281 281 281 281 281 280 279 279 278 277 277 276 276 276 276 276 277 276
292 292 291 292 288 289 289 289 292 291 293 292 291 290 290 289 285 286 285 285 285 285 284 283 282 282 281 281 280 280 281 280 279 279 278 278 278 278 278 278 278 277 277 276 275 275 274 274 274 274 274 274 274 273
292 293 291 287 285 285 286 289 289 291 290 288 287 289 288 285 286 285 283 284 282 282 282 281 280 279 279 278 278 278 278 278 277 277 276 275 275 274 274 273 274 274 274 274 274 273 272 272 271 271 271 271 272 271
291 285 281 281 284 281 280 284 287 287 285 285 286 288 290 287 283 281 282 281 280 279 279 279 279 278 277 276 276 276 276 276 275 275 275 274 273 272 271 270 270 270 270 271 270 270 270 269 269 269 269 269 270 270
286 284 282 282 280 283 282 281 281 284 282 280 283 289 289 281 279 279 279 278 276 276 276 276 276 276 275 275 274 275 274 274 273 272 272 273 272 271 270 268 268 268 268 268 267 267 267 267 267 267 267 267 267 267
285 287 287 288 283 285 283 283 281 286 278 282 286 287 277 275 275 278 280 274 274 272 273 273 272 274 274 274 273 272 272 272 271 270 269 269 269 269 268 267 267 267 267 267 267 267 266 266 266 266 266 266 266 266
285 284 288 285 284 283 281 278 280 280 281 286 281 276 278 275 275 279 278 277 276 275 274 274 274 273 272 271 272 272 272 272 271 269 269 269 268 268 268 268 267 267 267 267 267 266 266 266 266 266 265 265 265 265
288 283 283 279 280 279 276 275 277 280 278 284 278 273 271 271 274 277 275 275 274 273 272 271 270 269 269 269 270 271 271 271 270 269 269 268 267 267 267 267 266 266 266 266 266 266 266 265 265 265 265 265 265 265
283 279 279 277 277 279 283 278 278 281 281 280 273 274 272 273 271 271 273 273 274 273 271 270 269 270 270 269 269 269 269 269 269 259 258 256 264 265 265 265 265 264 264 264 264 265 265 266 265 264 264 264 264 264
282 274 276 271 275 279 277 274 276 273 274 272 273 273 272 270 270 271 272 272 270 269 269 269 269 269 269 268 267 267 267 266 266 266 259 259 265 265 265 264 264 264 263 263 263 263 263 263 263 263 263 263 263 264
273 273 275 275 279 280 277 275 276 274 268 264 267 266 266 268 270 270 270 270 269 269 269 268 268 268 268 267 267 267 266 265 265 265 265 264 264 264 264 264 263 263 262 262 262 262 261 261 261 261 261 261 262 262
271 268 274 276 278 278 278 276 274 270 267 265 267 262 264 262 263 268 269 269 269 268 267 268 268 267 267 267 266 265 265 265 264 264 264 264 263 263 263 263 262 262 262 262 262 262 262 261 261 260 260 260 260 260
268 267 266 270 274 274 270 275 276 272 270 270 268 266 264 263 264 268 268 268 267 267 267 267 267 267 266 266 265 264 264 263 263 263 263 263 263 262 262 262 261 261 261 261 261 261 261 260 259 259 258 258 258 258

GFSWCAN_925_thetae_036.txt.gz
Theta_e
302 302 302 301 302 302 301 303 302 301 301 301 301 300 299 299 300 298 297 298 302 304 305 308 312 310 311 311 311 312 318 316 308 315 314 312 307 313 314 316 317 319 315 310 306 307 318 308 311 311 309 309 309 308
302 302 303 303 303 303 302 301 300 300 300 300 300 299 299 299 299 297 298 298 299 305 307 306 306 306 308 310 310 311 313 316 314 316 309 310 309 304 312 316 312 317 315 315 314 314 311 309 310 308 307 309 309 308
297 298 299 299 300 299 299 299 300 299 299 299 299 299 299 298 297 297 298 299 301 306 305 307 307 310 310 309 311 312 314 316 315 314 312 313 315 308 314 313 314 313 309 311 311 312 310 311 311 309 310 309 308 309
296 296 297 297 298 298 298 298 298 298 298 298 298 297 297 297 298 297 299 303 303 306 306 309 311 312 314 315 312 313 315 315 313 313 311 311 313 310 309 314 312 312 311 312 311 314 313 311 309 306 304 303 302 301
296 296 297 297 297 297 297 297 297 297 297 296 296 296 297 298 298 298 300 303 303 305 307 308 306 310 314 317 316 315 316 314 312 312 307 312 308 311 305 311 307 311 313 313 314 312 311 310 305 303 304 302 300 300
296 296 296 296 296 296 296 295 295 295 297 297 298 298 298 297 298 300 301 302 303 305 307 307 306 309 312 317 316 316 317 312 311 311 309 312 313 314 313 313 313 311 309 312 313 310 306 303 302 301 301 299 297 297
297 298 298 297 297 297 296 296 296 296 296 297 296 297 297 298 301 301 302 302 304 304 307 307 303 306 313 315 312 313 312 312 314 312 309 312 314 310 304 313 313 312 310 308 305 306 305 304 303 299 298 296 295 294
297 297 296 297 298 298 297 297 297 297 296 297 297 298 301 301 300 301 303 304 303 305 306 307 308 309 311 312 315 311 308 310 311 312 305 308 310 302 312 311 309 307 306 306 304 303 304 300 298 297 295 295 294 293
296 297 297 297 297 298 299 299 299 297 297 298 301 301 300 300 300 302 306 303 305 306 306 307 311 312 309 309 309 306 306 308 309 309 309 309 307 314 311 310 308 307 308 303 300 300 300 299 297 296 295 294 293 292
297 297 298 298 299 299 300 299 298 300 299 300 300 302 297 301 305 304 306 307 308 308 309 307 307 309 311 305 309 308 305 309 309 309 308 308 310 305 304 305 304 303 302 300 299 298 297 296 295 294 294 293 292 291
296 297 299 299 299 299 299 300 299 299 300 302 302 302 303 305 306 304 303 306 306 306 305 305 306 311 308 308 310 304 308 305 315 312 314 311 313 306 304 304 303 302 301 302 300 299 298 296 294 293 291 291 290 290
297 297 298 300 300 300 300 301 301 302 302 302 304 306 306 304 302 305 305 303 304 309 303 306 307 309 306 307 307 305 309 306 315 306 311 314 307 303 303 302 301 299 298 298 298 296 295 294 293 291 290 290 289 287
297 298 298 299 299 299 299 300 301 302 302 304 303 301 303 299 307 306 310 308 308 302 302 302 306 303 304 304 303 307 311 310 304 311 311 306 304 301 301 300 299 297 297 296 296 294 293 291 290 290 288 287 286 285
297 297 297 297 297 298 299 300 301 302 302 300 304 301 302 302 301 301 301 302 299 298 300 300 303 304 300 305 303 310 305 306 309 308 306 303 301 299 298 297 296 295 293 292 292 291 289 288 288 287 287 286 285 284
297 297 297 297 298 298 299 299 301 298 297 299 299 301 301 299 298 298 297 298 298 298 299 302 303 304 304 305 304 306 309 307 305 304 301 299 297 296 295 293 293 292 291 291 290 288 287 287 286 285 285 285 284 284
301 301 302 300 300 300 300 302 300 296 293 296 296 298 297 298 297 297 296 299 297 297 298 300 303 306 305 301 299 300 304 300 299 298 297 296 295 294 293 292 291 291 290 290 289 287 286 286 285 283 282 283 283 282
303 299 302 303 302 301 300 298 296 294 294 295 296 292 293 295 294 293 293 294 294 299 302 301 298 297 297 298 294 293 295 295 294 295 294 294 294 292 291 291 290 289 289 288 287 286 285 284 283 282 281 280 280 280
299 299 300 300 300 298 297 296 293 295 296 296 294 292 290 289 289 289 290 291 295 298 296 295 294 289 288 290 289 289 288 287 293 293 292 292 292 292 291 291 289 288 287 286 285 284 284 284 284 283 281 280 279 279
299 299 299 300 300 296 295 295 295 294 292 292 290 290 289 288 287 287 288 289 290 290 291 289 288 288 287 286 286 285 284 285 289 287 285 286 288 290 290 288 288 287 286 285 283 282 282 281 281 281 280 280 278 278
295 296 298 299 298 295 295 295 295 295 296 290 289 287 287 286 286 285 286 287 288 288 286 285 284 284 284 283 283 283 282 283 288 286 283 282 282 282 282 282 282 282 281 280 280 280 279 278 278 278 279 278 277 276
294 294 295 295 293 292 292 294 295 294 294 294 291 289 288 285 284 283 284 285 285 285 284 283 282 281 281 280 280 281 280 280 280 281 282 280 279 279 279 279 278 278 277 277 277 276 276 275 275 275 276 275 276 275
292 292 291 292 289 289 289 288 292 290 292 291 289 289 288 283 282 283 282 282 282 282 282 281 281 280 279 279 278 278 279 278 277 276 276 276 275 275 275 276 276 275 275 274 274 273 272 272 272 273 273 273 273 273
293 292 289 286 285 285 286 288 287 289 286 284 285 287 285 282 283 282 280 281 280 279 280 280 278 278 277 277 276 276 276 276 275 275 274 273 272 271 271 270 271 272 271 270 271 270 269 270 270 270 270 270 271 271
290 283 280 280 283 280 278 282 285 285 283 283 284 284 286 279 280 278 279 279 278 277 277 277 277 277 276 275 274 274 274 274 273 273 272 271 270 269 268 268 267 268 268 268 268 268 267 267 267 267 268 268 268 268
286 284 281 280 278 281 279 278 279 282 280 278 281 286 281 277 276 276 277 277 275 273 273 274 275 274 273 273 272 272 272 271 271 270 269 271 270 269 268 267 267 267 267 267 266 266 266 266 266 266 265 265 265 265
286 285 286 279 280 283 279 280 280 279 276 280 283 282 274 273 273 276 279 272 273 272 271 272 271 272 272 272 271 270 270 270 269 268 267 268 268 267 266 265 266 266 266 266 266 266 266 266 265 265 265 265 265 265
286 282 285 283 281 281 278 275 277 278 280 285 276 272 272 271 273 278 277 275 274 272 271 271 271 270 270 270 270 270 271 271 269 267 267 267 267 266 266 265 265 265 266 266 265 265 265 265 265 265 265 264 264 264
287 281 280 276 277 277 275 273 274 277 277 282 274 270 268 268 272 274 275 273 272 270 269 269 269 269 269 269 269 269 269 269 269 268 267 266 265 265 265 265 264 264 264 264 264 264 264 264 265 264 264 264 264 264
278 273 277 275 275 277 278 275 275 278 276 272 268 270 271 271 270 270 271 272 272 271 269 268 268 268 268 268 268 268 268 268 268 257 256 255 264 265 264 264 264 263 263 263 263 263 263 263 263 262 262 262 262 262
278 270 274 271 275 277 273 269 268 264 270 269 272 272 270 269 269 270 271 271 270 269 268 268 268 269 268 268 266 266 266 266 265 265 259 257 263 263 263 263 263 263 263 262 262 262 262 262 261 261 261 261 261 261
271 271 274 274 278 273 270 269 272 270 265 263 264 262 263 265 269 269 269 269 269 268 268 268 267 267 267 267 266 266 265 265 264 264 263 263 263 263 263 262 262 262 262 262 262 262 262 261 261 260 260 260 259 259
269 267 272 275 277 273 271 273 264 266 263 262 264 260 259 260 261 267 268 268 268 267 267 267 267 267 266 266 265 264 264 263 263 263 263 263 263 262 262 262 261 261 261 260 260 260 260 260 260 259 259 258 258 258
265 264 265 269 274 275 272 273 272 270 266 266 265 263 261 261 263 266 267 267 267 266 266 266 267 266 265 264 264 264 263 263 263 263 263 262 262 262 262 261 261 260 260 260 260 259 259 259 259 258 258 257 257 257

GFSWCAN_925_thetae_039.txt.gz
Theta_e
301 302 302 300 301 301 301 302 302 302 301 302 302 301 302 302 301 299 299 300 301 304 304 306 306 310 309 309 310 310 313 313 311 314 316 316 316 318 320 318 318 321 320 320 313 320 324 311 310 317 318 311 312 312
301 302 302 302 301 301 301 302 302 301 303 302 301 301 302 301 300 298 297 299 300 302 304 304 306 306 306 309 309 312 311 313 313 316 313 311 315 311 317 323 313 323 320 321 320 323 317 310 315 311 309 312 311 313
300 301 302 302 302 301 302 302 302 303 302 301 301 301 301 301 300 298 297 298 299 301 301 303 305 305 307 307 308 311 311 314 314 314 313 316 315 312 317 316 316 313 311 319 318 317 314 312 310 311 309 311 309 310
298 298 300 302 301 301 302 302 302 301 301 301 301 300 300 300 299 298 298 297 298 303 302 304 306 307 309 312 308 309 313 313 313 314 313 313 316 314 316 317 317 315 314 314 315 313 314 314 312 311 308 308 308 306
297 298 299 299 299 300 300 300 300 301 301 301 300 299 299 299 298 298 297 298 298 303 306 306 306 306 308 307 311 311 312 314 313 313 310 316 311 312 308 312 313 313 315 317 319 315 316 315 313 308 308 308 306 304
296 296 298 298 299 299 299 300 300 300 299 299 299 299 298 298 298 297 299 297 300 300 303 306 306 306 310 313 314 314 313 314 316 315 311 311 313 314 316 318 315 314 313 314 315 312 307 305 305 305 305 304 302 302
296 296 296 296 297 297 297 298 297 298 298 297 297 296 296 297 298 300 301 300 300 303 306 305 306 307 309 314 314 315 314 315 315 315 312 314 315 314 309 318 315 312 312 310 307 308 308 305 307 302 300 299 298 297
297 296 296 296 296 296 296 296 296 296 296 296 295 296 296 297 298 300 302 301 300 304 305 304 306 308 311 311 314 312 313 313 313 313 307 313 310 306 313 312 311 310 309 308 306 305 308 303 300 298 297 297 296 295
297 298 298 296 296 296 297 297 297 297 298 297 298 298 298 299 301 300 303 303 304 304 303 303 307 313 309 310 309 309 309 314 310 311 312 313 310 317 314 311 310 308 309 306 302 302 302 302 299 297 297 297 296 294
296 297 298 298 296 296 296 296 296 296 296 297 298 300 298 299 301 302 303 304 304 305 306 306 307 312 310 304 307 308 306 311 317 311 308 313 313 306 305 304 306 304 303 302 302 301 299 299 298 296 296 295 294 294
299 298 300 299 299 298 297 296 296 297 299 300 300 300 300 302 304 301 301 304 304 307 305 305 306 311 308 310 309 306 308 307 316 315 315 314 315 306 304 303 303 302 302 302 302 299 299 298 297 295 294 293 293 292
299 299 299 299 298 299 298 298 300 300 301 301 302 303 304 303 303 303 304 302 304 309 304 307 307 309 306 307 306 306 309 306 316 308 313 316 307 303 303 303 302 301 300 299 298 296 295 294 294 293 292 291 289 287
299 299 299 300 300 299 299 301 301 302 302 304 301 300 304 300 307 306 309 308 307 302 302 303 305 304 304 304 303 305 309 311 305 312 310 306 303 300 300 299 297 297 296 296 295 293 292 291 291 290 289 288 287 286
298 299 299 299 300 300 301 301 299 300 300 298 301 302 301 301 301 301 301 302 299 298 299 301 303 304 301 304 303 310 305 305 310 309 306 301 299 298 296 295 295 294 293 292 291 291 290 289 288 287 287 286 286 285
297 297 297 297 298 299 300 299 298 297 295 298 297 301 300 299 297 298 297 298 297 297 299 302 303 304 303 306 303 305 308 304 302 302 299 297 296 295 294 293 292 292 290 290 289 288 288 287 286 285 285 285 284 284
297 297 296 297 298 298 298 299 298 296 294 295 291 294 293 295 293 293 292 295 295 296 298 300 303 304 302 299 299 296 301 297 295 293 295 295 294 293 292 291 291 290 289 288 288 287 286 285 284 283 282 282 282 282
298 299 298 299 298 299 299 298 296 294 295 295 293 289 289 290 290 290 290 291 292 299 300 298 294 294 295 294 292 291 290 290 287 290 293 293 292 292 291 290 290 289 288 287 286 285 284 283 283 283 282 281 280 280
299 300 300 299 299 297 296 295 292 293 293 291 290 289 287 286 286 287 288 289 294 295 293 292 291 288 288 289 288 286 286 285 288 286 285 289 290 290 289 288 287 287 286 285 285 285 284 283 282 281 280 280 280 279
299 298 298 298 298 297 295 295 293 290 289 289 288 287 286 284 285 285 287 287 288 288 289 287 285 285 285 284 283 283 283 283 286 284 283 282 283 284 284 283 283 283 283 282 282 281 281 281 281 281 280 279 279 278
299 299 298 297 297 294 295 294 294 293 291 289 288 285 284 283 282 283 284 285 285 285 284 283 282 282 282 281 282 281 281 282 286 283 281 280 280 280 280 280 280 279 279 278 277 278 277 277 276 277 277 277 277 276
298 296 297 296 292 292 292 293 295 293 293 292 290 287 285 283 282 281 282 283 282 282 281 281 281 280 279 279 279 279 278 278 278 279 279 277 276 277 277 276 276 276 276 275 275 274 273 273 273 273 274 273 274 274
292 293 292 291 290 290 290 288 292 289 290 289 288 287 285 281 279 281 280 279 280 280 281 280 279 279 278 278 277 277 277 276 275 274 274 274 274 273 273 273 273 272 272 272 271 271 270 269 270 270 270 271 271 271
292 291 288 286 285 285 285 287 286 288 286 285 284 286 282 279 281 281 279 279 278 277 279 278 277 277 276 275 275 274 274 274 273 272 271 270 269 269 269 268 269 270 269 268 268 267 266 267 267 268 268 268 268 268
289 282 279 279 282 280 277 281 285 284 282 284 285 285 284 279 278 277 278 277 277 275 276 276 276 276 274 273 273 272 273 272 271 270 270 270 269 268 267 267 266 266 266 266 266 266 266 266 266 266 266 266 265 265
285 283 280 280 277 280 278 278 280 282 281 281 282 283 278 277 276 275 277 277 275 273 273 274 274 273 272 272 271 270 270 270 269 268 268 268 268 268 267 266 265 265 266 266 265 265 265 265 265 265 265 265 264 264
284 282 284 277 279 284 281 281 280 278 279 280 280 278 272 273 274 276 278 274 273 273 271 271 272 272 271 271 270 270 269 269 268 267 266 266 266 266 265 265 265 264 264 264 265 264 264 264 264 264 264 264 264 264
283 279 283 280 280 279 277 275 276 277 279 281 276 272 271 271 272 277 275 273 272 269 269 269 270 270 270 269 268 268 269 269 267 266 265 265 265 264 264 263 263 263 263 263 263 263 263 263 263 263 263 263 263 263
283 280 279 274 277 276 274 272 273 276 276 279 272 269 268 269 273 272 273 270 269 269 268 269 269 269 269 268 268 268 267 267 267 266 265 265 265 264 264 264 263 263 263 263 263 263 262 262 262 262 262 261 261 261
276 270 275 272 273 274 275 273 273 274 274 270 268 268 270 270 268 269 270 270 270 270 268 267 266 267 267 267 267 267 267 267 267 262 261 262 262 263 263 263 263 263 263 262 262 262 262 262 261 261 261 260 260 260
275 270 273 270 272 273 268 266 265 263 268 268 271 270 269 267 267 269 270 270 270 269 268 268 268 268 267 267 266 266 265 265 264 264 262 261 262 262 262 262 262 262 262 261 261 261 261 261 261 261 260 260 259 259
270 270 274 274 275 270 267 266 267 266 262 262 262 263 264 266 268 268 268 268 268 268 268 267 267 267 267 266 266 265 264 264 263 263 263 263 262 262 262 262 261 261 261 261 261 261 260 260 260 259 259 259 258 258
267 266 272 274 274 269 269 266 262 264 261 264 261 259 260 262 262 266 267 267 267 268 267 267 267 266 266 265 264 264 263 263 263 263 263 262 262 262 262 261 261 261 260 260 260 260 260 259 259 259 258 258 258 257
263 263 265 269 272 272 270 270 269 268 264 264 263 261 258 263 264 265 266 267 266 266 266 266 266 265 265 264 263 263 263 263 263 263 262 262 262 262 261 261 261 261 260 260 260 259 259 259 259 258 258 258 257 257

GFSWCAN_925_thetae_042.txt.gz
Theta_e
301 302 300 301 301 300 301 301 301 301 302 301 301 300 303 301 301 301 301 303 305 307 307 307 309 310 309 311 313 313 315 317 319 319 319 319 325 322 319 321 323 323 325 326 325 330 330 316 315 321 323 320 319 319
301 301 300 301 300 302 302 301 300 301 301 301 300 301 301 301 301 300 301 302 304 306 305 305 304 306 307 309 312 314 312 314 315 317 320 319 325 321 323 325 320 325 323 326 324 325 323 318 321 319 321 320 318 319
302 301 301 300 301 300 301 301 301 301 301 300 301 302 302 302 300 300 301 302 302 305 303 302 305 305 305 308 310 312 313 311 315 315 320 323 327 323 328 324 323 320 316 323 322 321 321 320 319 317 316 318 317 317
301 302 301 301 301 302 301 301 301 301 301 301 302 301 301 302 299 300 301 301 301 303 303 304 305 307 306 308 310 310 312 313 316 317 321 321 325 319 325 321 323 321 316 321 322 322 318 319 319 318 316 314 314 315
300 301 301 302 302 302 302 301 301 302 302 302 302 301 301 299 299 299 298 299 300 302 305 304 303 304 304 304 306 312 312 315 316 319 318 319 318 319 318 319 323 318 320 323 327 324 323 322 320 319 317 315 314 315
299 300 301 302 302 301 302 302 302 301 301 300 302 302 299 298 298 298 299 298 300 300 303 306 307 307 308 307 309 312 313 313 315 316 319 318 317 320 325 322 317 318 318 319 320 316 318 315 313 317 316 314 314 313
298 299 299 300 300 301 301 300 300 301 301 300 300 299 298 298 299 300 301 300 299 300 301 304 308 308 308 310 313 314 314 316 315 316 318 320 320 318 322 324 318 319 318 317 314 312 315 312 314 310 312 311 308 310
296 297 298 299 299 300 300 300 300 300 300 300 299 298 298 298 298 300 301 301 300 301 304 307 308 309 310 315 315 316 317 316 315 316 315 319 318 318 322 319 319 318 314 314 313 311 310 310 309 308 307 306 306 305
295 296 296 297 298 298 298 298 298 297 297 297 298 298 298 299 299 299 300 300 300 305 306 305 309 315 310 310 311 309 313 318 315 318 319 319 320 321 318 317 315 314 313 313 308 308 307 308 305 303 303 304 305 301
296 296 296 296 297 297 297 298 298 297 297 297 298 299 299 299 299 303 301 301 304 306 307 308 307 306 308 311 314 310 307 311 316 316 315 319 321 314 310 310 310 310 308 307 308 307 306 304 303 303 303 302 301 300
298 296 296 296 297 297 298 298 298 298 298 299 300 301 301 300 302 304 303 304 305 305 307 307 308 306 308 313 313 312 311 307 316 317 320 319 320 309 306 307 307 306 306 306 306 306 305 305 303 301 300 300 299 297
298 297 296 296 296 296 296 297 298 299 300 301 303 302 303 304 305 305 304 304 306 308 308 308 308 307 309 311 314 310 315 310 318 310 320 319 306 302 303 304 304 304 304 303 303 302 302 301 300 299 297 295 292 289
299 299 298 297 296 296 296 298 299 301 303 303 304 304 305 303 306 307 310 310 309 303 304 305 308 308 309 309 308 309 314 316 306 312 307 302 300 299 298 298 298 297 297 297 296 295 294 294 293 291 290 289 288 288
300 299 298 298 299 298 298 299 301 301 299 301 303 303 304 303 302 302 302 303 302 299 301 303 304 306 303 306 304 314 307 307 312 309 303 298 297 296 296 295 294 293 292 292 291 290 289 288 288 288 288 288 287 287
298 299 299 299 299 300 299 298 299 297 295 297 298 301 300 297 295 295 295 298 297 296 299 303 303 304 304 305 303 307 308 304 301 299 297 294 296 295 294 293 292 291 290 290 289 288 288 287 287 287 286 286 285 284
297 297 298 298 298 299 299 298 295 295 295 293 290 291 291 294 292 291 291 293 293 294 296 299 303 304 300 298 298 297 300 295 293 290 290 293 293 292 292 291 290 290 289 289 288 287 286 285 285 284 283 283 283 282
297 298 298 299 298 299 299 297 295 295 294 292 291 288 288 289 288 289 290 290 291 298 300 297 296 296 297 295 293 291 291 289 288 287 287 290 291 291 290 290 289 289 288 287 286 285 285 284 284 283 283 282 281 281
299 297 298 299 297 296 295 295 293 292 291 289 290 288 287 286 286 287 288 290 295 295 293 292 291 290 291 292 290 287 286 287 286 285 284 286 286 285 286 286 286 286 285 285 285 285 284 284 283 283 282 281 281 280
299 299 299 299 298 297 297 296 292 290 288 288 287 287 286 286 286 287 289 289 289 290 289 288 287 287 286 285 284 285 285 287 285 284 283 282 282 283 283 282 282 282 282 282 281 281 280 281 282 282 281 281 281 280
297 297 298 298 297 296 297 296 293 291 290 289 288 286 286 285 285 286 287 288 287 286 284 284 283 283 283 282 282 282 282 285 285 283 281 281 280 279 279 280 280 280 279 278 278 278 278 278 277 277 278 278 278 278
295 295 295 295 292 293 293 296 295 293 292 293 291 289 288 287 286 285 285 285 285 283 282 282 282 281 280 280 280 279 278 279 280 281 280 279 278 278 278 277 277 277 277 276 276 275 274 274 274 275 275 275 274 274
295 294 291 290 293 293 293 291 295 294 294 293 292 289 288 286 285 284 283 282 280 281 281 281 280 280 279 279 278 278 277 277 276 276 275 276 276 276 275 275 275 274 273 273 272 272 271 270 271 271 271 271 271 270
290 290 288 289 292 294 291 291 293 291 293 292 291 289 287 285 284 283 281 280 279 279 279 279 278 277 277 276 276 275 275 276 275 274 274 273 272 272 271 271 272 272 271 270 270 269 268 268 268 268 269 269 269 269
288 285 286 288 291 290 288 290 290 290 290 291 290 288 286 285 283 282 280 279 278 278 278 278 278 279 277 276 275 274 274 274 273 273 273 273 272 271 270 270 269 269 269 269 268 268 267 267 267 267 267 268 267 267
289 287 289 289 289 289 290 289 289 290 290 289 288 287 284 284 282 281 280 279 278 277 277 276 276 276 277 276 274 273 272 273 273 272 271 272 272 272 270 269 268 266 267 268 268 268 267 266 267 266 266 266 265 266
287 285 288 288 288 290 289 289 288 288 288 287 285 282 282 282 281 280 279 278 277 276 275 276 277 276 275 274 274 273 272 271 271 270 269 269 269 270 270 269 269 267 265 265 265 266 266 265 265 265 265 265 264 264
287 287 285 283 285 285 286 285 285 285 285 285 283 281 281 280 279 278 277 276 275 272 271 272 274 274 273 272 270 269 269 268 269 268 267 266 266 265 266 266 266 264 264 263 264 264 264 264 264 264 264 264 263 263
285 285 283 281 282 283 282 282 283 282 282 280 280 277 278 278 278 276 275 272 271 270 270 269 270 271 271 270 269 269 268 266 266 266 266 265 265 264 263 263 262 262 262 262 262 263 264 263 263 263 262 262 262 261
282 281 281 277 279 279 278 279 279 277 276 277 277 275 274 272 271 273 272 272 271 271 270 269 267 267 267 266 266 266 267 267 268 268 268 268 267 265 263 262 262 262 261 262 262 262 262 263 262 261 261 260 260 261
282 280 281 277 277 278 275 274 274 272 272 273 273 272 272 270 269 270 271 271 272 271 269 268 267 269 268 269 268 266 264 264 264 265 267 266 265 262 262 262 262 261 260 261 261 261 261 261 261 261 261 260 260 259
278 282 281 280 278 276 274 272 272 272 272 272 271 272 272 271 269 268 268 267 267 267 268 268 267 266 267 267 267 267 266 263 263 263 263 262 262 262 262 261 261 261 260 260 260 260 260 261 261 260 260 260 259 258
278 279 280 279 277 274 273 276 276 276 274 274 272 270 270 272 272 270 266 266 268 269 268 267 268 268 266 265 265 264 264 263 263 263 263 262 262 261 261 260 261 260 260 260 260 259 259 259 260 260 259 259 258 257
278 279 279 278 277 276 276 277 277 275 275 275 273 271 271 273 273 270 267 267 267 268 267 266 266 266 265 264 264 263 263 263 263 263 262 262 262 261 261 260 260 260 260 259 259 259 259 259 259 259 258 258 257 257

GFSWCAN_925_thetae_045.txt.gz
Theta_e
300 301 301 301 301 301 301 301 300 301 301 302 301 301 302 301 301 301 302 304 307 308 308 307 309 310 309 311 313 311 315 316 319 320 320 316 319 316 315 312 320 324 325 329 328 330 331 321 320 322 323 324 323 322
302 301 301 300 301 301 301 302 303 304 303 301 302 301 302 301 301 301 303 303 305 308 306 307 309 309 309 308 311 312 314 316 315 317 318 315 323 328 316 322 314 323 323 327 324 325 324 321 323 321 322 322 324 322
302 301 300 301 300 300 302 301 300 302 302 301 300 302 301 300 301 301 303 304 304 306 307 307 307 307 307 308 310 313 315 313 314 314 315 318 320 325 325 323 316 317 320 326 324 323 322 323 320 321 322 323 323 322
302 301 301 301 300 300 300 301 301 301 301 301 301 301 300 301 299 301 303 304 304 305 308 307 305 306 306 304 307 311 314 313 315 315 318 320 322 315 323 321 322 320 321 322 322 320 321 321 322 322 322 321 321 319
301 301 301 301 301 301 301 301 301 301 301 300 301 301 302 300 300 302 302 303 303 305 307 306 305 306 308 307 307 310 313 315 315 320 323 320 316 316 319 322 323 318 320 326 324 320 324 325 323 321 322 321 319 318
302 301 301 301 301 301 301 301 300 300 300 301 302 301 299 301 301 300 300 301 302 303 304 308 307 306 306 306 307 310 313 314 315 314 319 315 313 316 322 321 315 314 318 319 320 321 321 321 320 319 321 321 320 318
300 301 301 302 301 302 301 301 301 302 302 302 301 300 300 300 301 302 303 301 301 302 304 305 307 308 307 307 309 312 313 313 316 316 318 317 318 318 324 323 315 313 313 314 317 318 318 317 319 316 317 319 316 317
300 301 301 301 301 301 301 302 302 301 300 299 299 299 300 300 300 303 302 300 301 302 303 304 307 309 309 311 312 313 315 315 315 315 315 318 318 319 321 316 315 316 317 319 318 318 317 314 313 313 313 314 313 315
299 300 300 300 301 300 300 300 299 299 299 299 299 299 299 300 301 302 300 300 302 303 304 306 308 311 304 310 312 313 313 315 314 317 317 317 319 321 318 316 315 318 317 317 313 312 313 312 313 310 310 310 312 311
298 299 298 299 299 300 299 299 298 298 298 298 299 300 301 301 300 300 301 302 303 304 307 308 307 307 303 308 308 311 314 314 316 315 316 318 319 315 309 312 313 312 312 312 313 314 312 311 311 308 309 309 309 306
296 297 298 298 298 298 298 298 298 297 298 301 302 303 300 299 301 305 304 303 303 307 307 307 309 307 307 309 311 313 313 312 317 318 322 320 318 302 301 305 307 308 309 309 309 310 309 310 310 308 306 305 304 303
297 297 297 297 297 297 298 297 297 300 301 301 303 302 302 305 305 306 304 304 306 308 309 309 309 308 306 306 311 313 311 313 318 312 321 309 300 298 298 299 299 300 304 305 305 305 305 305 304 303 300 297 293 291
296 296 297 298 298 297 298 299 299 299 302 303 304 304 305 305 306 305 308 311 309 304 305 309 309 307 306 307 311 313 316 315 304 309 305 302 297 296 296 296 295 294 294 295 294 293 293 292 291 291 291 289 288 287
296 297 297 297 298 298 298 299 300 301 303 302 305 305 305 306 302 300 300 302 300 299 300 305 304 306 305 310 304 313 306 309 311 309 303 298 296 295 294 293 292 291 290 290 289 289 289 289 288 288 288 288 287 287
297 298 298 299 299 298 298 298 298 297 296 297 297 299 298 296 295 295 295 297 297 296 299 303 302 304 303 305 304 311 309 304 300 299 295 293 294 294 293 292 291 290 290 289 289 289 288 288 287 287 286 285 285 284
297 298 299 298 299 298 298 297 296 297 295 292 289 291 290 294 293 292 293 294 294 293 296 300 304 303 301 300 299 299 300 297 295 293 290 292 292 292 291 291 290 289 289 288 288 287 286 285 285 285 284 284 284 284
299 300 298 298 298 296 297 296 293 292 293 292 291 288 288 289 289 290 291 292 293 298 301 299 297 297 298 296 293 291 291 290 289 288 288 288 288 288 288 288 288 288 287 287 286 286 285 285 284 284 284 283 282 281
300 298 297 297 298 298 294 293 292 292 290 288 290 289 288 287 287 289 290 290 295 295 294 293 293 292 293 294 291 289 289 287 286 285 284 286 285 284 284 285 284 284 283 283 284 284 285 284 284 284 283 283 282 282
299 299 298 298 298 298 297 295 292 290 289 289 288 288 289 288 288 289 290 290 290 291 291 289 289 288 288 287 288 288 289 288 286 285 284 282 283 283 283 282 282 281 282 282 281 281 281 281 281 282 282 281 281 282
298 298 298 298 298 297 297 295 293 292 292 290 290 289 289 288 288 289 289 290 289 287 286 285 284 284 284 284 284 284 286 288 286 284 283 283 281 280 281 281 281 281 280 279 278 279 279 279 278 278 278 278 278 278
297 295 295 296 295 295 296 297 295 294 294 294 293 291 291 290 289 288 288 286 286 285 285 284 283 282 281 282 281 281 281 282 283 283 282 281 280 280 280 279 278 278 278 277 277 275 275 275 275 275 275 275 274 274
294 294 293 293 295 294 295 294 296 295 294 294 292 291 291 290 288 287 285 284 283 282 283 283 282 282 281 281 280 280 280 279 279 279 278 278 279 278 278 277 276 276 275 275 274 274 273 271 273 273 273 274 273 272
291 292 293 294 298 297 293 294 294 294 294 294 292 291 290 289 286 286 284 282 281 282 281 280 280 280 279 278 277 278 278 279 279 278 277 277 276 275 275 274 274 274 274 273 273 272 271 271 271 271 272 271 271 271
289 289 291 293 294 293 293 293 293 293 293 293 291 289 288 288 286 285 283 282 281 280 281 281 281 281 279 278 278 277 277 277 277 277 276 276 275 274 273 273 272 272 272 272 272 271 271 271 270 270 270 269 269 269
292 288 292 292 293 294 293 292 292 293 292 291 290 289 287 287 286 285 284 281 281 280 280 280 280 280 280 279 277 275 275 276 276 275 274 276 276 276 274 272 270 269 269 270 270 270 269 269 269 268 268 268 267 267
290 288 290 291 292 293 293 292 292 291 291 289 288 286 287 286 285 284 282 281 280 279 279 279 280 279 279 278 277 275 274 274 274 273 271 271 271 272 272 272 272 269 268 268 268 268 268 268 267 267 267 268 266 266
290 290 287 287 289 290 291 290 290 290 289 289 288 286 286 285 283 280 279 279 278 276 275 277 277 277 276 274 273 272 271 271 271 270 269 268 268 268 268 269 268 266 266 266 266 267 267 267 267 266 266 266 266 265
287 287 286 286 286 287 287 287 287 286 286 284 285 283 283 283 281 279 278 275 275 274 274 273 274 274 274 273 273 272 271 270 269 269 269 269 268 266 266 266 264 264 265 264 264 265 266 266 266 266 265 265 264 264
286 285 283 281 283 282 281 283 283 280 279 283 283 280 277 275 276 275 275 274 274 274 274 273 272 271 271 270 270 270 270 270 271 270 270 271 270 268 266 265 265 265 265 265 264 264 264 264 264 264 263 264 264 264
285 285 283 280 280 281 279 279 278 276 277 277 276 275 274 273 272 274 274 274 275 274 273 273 272 273 272 272 271 269 267 267 266 268 270 270 268 266 265 265 265 264 264 264 264 264 264 263 264 264 264 264 264 262
285 285 283 281 280 278 278 277 276 276 277 277 277 277 275 274 272 271 272 272 271 271 272 271 271 271 271 271 271 270 269 266 264 264 264 265 265 265 265 264 264 263 263 263 263 263 263 263 264 264 264 263 262 262
284 284 283 281 279 278 278 281 280 280 279 279 276 276 275 277 276 273 270 271 272 272 271 271 272 271 268 267 266 265 265 265 265 263 263 263 265 264 264 263 263 263 263 262 263 263 263 262 263 263 263 263 262 261
284 283 282 282 280 281 280 281 281 280 280 279 277 276 276 277 276 273 268 269 271 272 271 270 269 267 266 265 266 265 264 264 263 263 263 262 262 262 261 262 263 262 262 262 262 263 262 262 262 262 261 261 261 260

GFSWCAN_925_thetae_048.txt.gz
Theta_e
298 299 301 301 301 301 301 301 301 301 302 302 301 301 301 301 301 301 300 302 305 308 309 309 308 310 310 311 312 311 313 315 314 319 321 318 320 317 313 314 323 324 325 327 327 329 329 321 320 321 323 325 325 323
300 301 301 300 300 300 301 301 300 300 303 303 302 301 301 301 302 300 300 302 305 308 308 308 308 309 309 310 311 311 313 312 315 318 318 319 325 323 317 317 316 323 320 325 324 325 325 322 321 322 324 326 326 325
301 301 301 301 300 301 301 301 301 302 302 302 302 301 301 301 302 301 301 303 305 306 307 307 308 309 309 310 311 315 313 313 316 315 318 320 321 320 326 321 318 316 320 323 320 320 323 323 321 321 321 322 323 323
301 301 301 301 300 300 300 302 302 303 302 302 301 301 301 302 300 301 302 303 304 307 308 307 305 308 308 309 310 312 313 313 316 317 318 320 320 316 320 319 320 317 317 321 322 320 318 318 319 321 323 323 323 321
301 301 301 300 301 301 301 302 303 302 302 301 301 301 302 301 301 302 303 303 304 307 307 308 307 306 308 308 308 309 312 314 317 316 319 319 316 319 320 320 321 317 318 320 326 321 322 323 321 322 321 320 321 322
302 301 301 301 301 301 301 300 301 301 301 301 302 301 301 301 302 303 300 303 303 304 307 308 307 308 309 308 307 307 310 312 315 315 318 317 316 318 325 321 315 315 316 316 320 320 321 321 319 320 320 320 321 322
301 302 301 301 301 301 300 301 301 301 301 301 301 301 301 302 302 304 304 303 303 304 306 306 307 306 307 309 309 309 310 312 314 315 317 317 318 316 319 320 313 314 314 314 313 316 318 316 319 317 316 317 318 319
301 301 301 301 301 301 301 301 300 301 301 301 301 301 301 301 301 303 302 302 303 304 304 306 308 309 308 310 310 311 313 313 314 316 317 318 317 319 318 314 314 315 315 316 316 316 318 317 315 315 314 314 316 317
300 301 301 301 300 301 301 301 300 300 300 300 300 301 301 301 303 302 301 302 303 304 305 306 308 310 305 310 311 313 313 314 314 317 317 317 319 317 309 310 314 315 316 315 314 314 314 315 314 313 310 311 312 312
300 300 300 300 300 300 299 300 300 299 300 300 300 301 302 302 300 301 302 303 304 305 306 308 306 309 306 304 310 311 313 313 314 316 315 316 315 302 299 300 302 304 309 311 313 313 312 313 314 313 310 310 310 309
299 299 299 299 299 299 299 299 299 299 300 302 303 302 301 301 303 304 303 303 303 304 305 306 308 308 304 307 306 309 313 309 316 316 317 317 308 299 297 298 299 299 303 305 307 308 308 308 310 310 307 303 300 296
298 299 299 299 299 299 299 299 299 301 302 302 302 301 300 301 303 305 305 303 304 307 309 310 309 308 306 304 303 306 310 309 316 314 314 305 299 297 295 295 294 294 296 296 296 297 296 297 297 295 293 292 290 289
297 297 297 298 298 298 299 300 301 302 304 304 304 304 306 304 306 306 305 307 308 301 302 309 309 307 306 304 301 305 310 311 304 308 303 298 295 295 294 292 291 290 290 290 290 290 289 289 289 289 288 287 286 285
298 297 296 297 298 298 299 300 300 302 303 303 304 302 304 301 299 298 299 300 299 298 297 300 304 303 300 303 303 311 306 306 309 305 298 295 294 294 292 291 290 290 289 289 289 288 287 287 286 286 286 285 285 284
299 299 299 299 299 299 298 298 297 297 295 295 296 297 296 295 295 294 295 297 296 296 297 302 302 304 303 305 303 308 307 300 298 295 293 293 292 292 291 290 290 289 288 288 287 287 286 286 286 285 284 283 283 282
299 299 299 298 297 297 297 296 296 296 294 291 289 291 291 293 292 293 293 295 295 295 296 301 304 303 300 299 298 298 298 295 293 291 290 289 289 289 289 289 288 288 287 287 286 286 285 284 284 283 282 282 283 282
300 300 296 295 295 294 296 295 293 291 291 292 291 289 290 290 290 292 292 292 292 296 300 299 297 299 298 295 292 291 291 290 288 288 287 286 286 286 286 285 285 285 286 286 285 285 284 283 283 283 283 282 281 281
299 296 296 297 299 298 294 293 292 291 289 289 290 290 290 289 290 291 291 292 296 295 294 293 292 290 291 292 290 290 287 286 285 284 285 285 284 283 283 284 283 283 283 282 282 282 283 283 283 284 283 282 282 281
299 298 297 297 298 297 295 294 292 290 290 290 289 289 289 289 288 289 291 290 289 290 291 289 288 288 287 287 289 289 287 286 285 284 283 282 283 283 283 282 281 280 281 281 281 280 280 279 279 280 280 279 279 280
298 298 298 298 298 298 296 295 294 293 292 291 291 289 288 288 288 287 286 288 288 286 285 284 285 285 285 285 285 286 287 286 285 284 284 283 281 281 281 281 281 280 279 277 277 278 278 278 277 277 276 276 277 276
297 295 295 297 296 296 298 297 296 295 294 294 293 292 291 289 287 286 287 285 286 285 284 284 283 283 283 283 282 282 283 283 284 284 282 282 281 280 279 278 278 277 277 277 276 275 275 276 275 276 275 274 273 274
295 294 296 295 296 295 296 296 296 296 295 294 293 292 291 291 289 287 285 285 283 283 284 283 283 282 282 282 282 281 281 280 280 280 279 279 280 279 279 278 277 276 276 276 274 274 273 272 273 273 273 274 273 271
293 294 295 296 297 297 294 295 295 295 295 294 293 291 291 289 288 287 284 283 283 282 282 282 281 280 280 279 279 280 280 280 280 279 278 278 277 277 276 275 275 276 275 274 273 273 272 272 271 271 271 271 271 271
291 292 294 295 296 294 295 294 294 294 293 292 291 290 289 289 288 286 283 283 282 282 283 283 282 281 280 279 279 279 279 279 279 278 278 277 276 275 273 272 272 272 273 273 272 271 271 271 270 270 269 269 269 269
292 289 293 294 296 295 294 293 294 293 292 292 290 290 289 289 288 286 284 283 282 282 282 282 281 281 280 279 278 277 277 277 276 275 275 276 277 277 275 272 271 270 270 271 271 270 270 269 269 269 269 268 267 268
290 288 292 293 293 294 294 294 293 292 291 290 289 288 289 288 287 285 284 282 281 280 281 282 281 280 279 278 277 276 275 276 275 273 272 271 272 273 273 273 272 269 268 269 269 269 269 268 268 268 268 268 266 266
291 290 289 290 292 292 292 292 291 290 290 290 289 289 288 287 284 282 281 280 278 277 278 279 278 278 276 275 274 273 272 272 272 271 270 270 269 269 269 269 268 266 267 267 267 267 268 267 267 267 267 267 266 265
288 288 288 288 287 289 288 288 288 288 286 286 287 285 284 284 282 280 278 277 276 276 275 275 275 275 275 274 274 274 273 272 271 271 271 270 269 268 268 267 266 266 266 265 265 265 266 266 266 266 266 265 265 265
287 286 283 282 283 282 282 285 283 281 280 285 285 281 279 278 278 277 276 276 276 276 275 274 273 273 273 272 271 271 270 271 272 271 272 272 271 269 267 267 267 266 266 266 266 266 265 264 264 264 264 265 265 265
287 286 283 281 281 280 279 280 279 280 279 277 277 276 276 275 276 275 276 276 276 276 275 274 274 275 274 274 272 270 268 267 267 269 271 270 268 267 267 266 266 266 265 265 265 265 266 264 265 266 266 265 265 264
287 286 283 281 280 279 278 279 279 278 280 279 279 277 275 275 273 274 274 274 274 273 273 273 273 273 273 272 272 272 271 267 265 265 265 266 266 267 266 265 265 265 264 265 264 265 265 264 264 265 265 265 264 264
287 285 282 281 279 279 280 283 282 282 281 279 278 277 278 278 277 274 272 273 274 274 272 273 273 272 270 268 267 266 266 266 266 265 265 265 266 265 264 264 264 265 264 264 263 264 264 264 264 264 264 264 263 262
285 285 283 282 282 283 282 284 282 282 281 280 279 279 278 279 277 274 271 271 273 274 273 272 270 269 267 267 267 266 266 265 265 264 263 263 263 262 262 262 263 263 262 262 263 263 264 264 264 263 262 262 262 262

GFSWCAN_925_thetae_051.txt.gz
Theta_e
297 299 300 301 301 301 301 301 301 300 301 302 302 301 300 300 300 300 300 298 299 299 306 306 309 309 308 308 308 307 309 309 311 310 311 310 310 314 316 314 314 320 320 317 321 323 324 319 320 319 318 317 318 318
299 301 301 301 301 301 300 300 300 301 301 301 301 302 301 300 300 301 301 298 299 299 306 307 308 308 309 310 310 309 309 308 310 310 312 312 310 312 313 313 314 320 319 319 319 318 319 318 320 321 319 321 321 321
301 301 301 301 301 300 300 301 301 301 301 301 301 302 301 301 300 300 300 301 300 300 304 307 309 308 309 309 310 312 309 308 312 309 311 314 312 312 313 312 314 315 316 317 319 318 315 314 317 318 320 317 318 320
301 301 301 300 301 301 301 301 301 301 301 301 302 302 301 301 300 301 300 301 301 303 304 306 305 308 306 305 305 309 311 311 311 310 312 312 311 314 310 314 313 313 316 318 318 317 316 317 316 318 320 319 318 318
301 301 301 301 301 301 302 301 302 301 303 302 301 302 301 301 300 301 300 301 302 305 306 305 305 306 307 307 304 308 311 310 310 310 308 310 312 313 312 313 311 313 314 317 315 318 318 317 317 319 318 317 318 318
302 301 301 301 301 301 303 303 302 302 301 302 302 302 302 300 301 302 302 300 299 304 307 304 305 307 307 308 307 307 308 309 311 311 312 311 312 314 312 311 314 312 312 313 315 315 318 319 318 319 318 317 316 315
302 301 301 300 300 301 301 302 302 301 301 301 301 300 301 301 301 302 302 302 300 304 306 304 306 307 308 307 306 307 307 309 309 310 311 313 313 314 304 309 313 313 313 313 314 316 315 314 315 313 313 313 313 314
301 301 301 300 301 301 301 301 301 301 301 302 301 301 301 302 302 303 303 303 303 304 303 302 302 304 306 305 306 307 307 308 308 309 310 310 311 310 311 306 306 306 310 312 311 312 313 313 312 310 309 309 310 311
301 301 301 300 300 301 301 301 301 301 301 301 301 301 301 301 302 301 303 303 303 304 303 301 302 304 303 304 305 306 307 307 307 305 308 310 306 306 302 300 302 303 304 307 309 310 310 310 311 309 308 308 308 305
300 300 301 301 301 300 300 300 300 301 301 301 301 300 300 301 302 302 302 303 303 303 304 302 302 304 304 303 307 307 303 303 305 305 311 307 302 299 296 297 298 298 301 302 305 303 304 304 307 301 300 298 296 294
300 299 300 300 300 300 300 300 300 301 301 302 301 301 300 302 303 302 300 301 301 301 302 302 301 303 301 305 305 303 306 305 312 309 310 309 298 296 294 294 293 294 296 297 298 298 297 297 297 296 293 292 289 288
299 299 299 299 299 300 300 300 300 301 302 301 301 301 300 301 303 302 301 301 302 305 304 301 302 303 303 301 300 303 307 305 311 305 306 299 296 294 293 292 291 291 292 292 292 292 292 291 290 289 287 286 285 284
299 299 298 298 298 299 299 300 302 301 301 303 304 299 303 300 303 302 305 305 305 299 299 301 304 298 302 301 299 304 307 310 302 303 297 294 293 292 291 290 290 289 288 288 288 287 286 286 286 286 285 284 283 283
298 297 298 299 299 299 299 299 301 301 300 299 300 296 298 297 296 295 295 297 296 297 296 297 301 302 299 300 302 308 304 302 302 298 292 291 291 290 290 289 288 287 287 286 286 285 285 284 283 283 283 282 282 282
297 298 299 299 297 298 297 298 295 293 292 291 291 293 291 293 292 292 293 295 295 295 295 299 300 301 301 302 300 303 301 295 294 291 290 288 288 288 288 288 287 286 286 285 284 284 283 283 283 283 283 282 282 282
298 297 294 295 295 297 298 293 292 293 291 287 287 287 287 287 284 288 291 293 293 293 295 298 302 300 298 295 294 293 293 291 289 288 287 286 285 285 284 286 286 285 284 284 284 283 283 282 282 281 281 281 281 281
298 297 295 297 296 293 295 293 290 289 289 290 287 287 285 286 288 290 290 290 291 295 298 296 293 293 294 289 288 288 286 286 286 285 284 283 284 284 283 283 283 282 282 283 283 284 283 282 282 281 281 280 280 279
297 296 297 298 299 296 293 291 290 290 289 288 287 288 288 286 286 289 289 288 292 294 293 291 290 288 289 289 288 285 284 283 283 283 283 282 282 281 281 281 281 281 280 280 279 279 279 280 280 279 280 280 279 278
297 298 298 297 297 295 293 293 291 290 290 289 288 287 288 286 285 285 287 288 287 287 289 287 286 286 286 286 286 285 284 283 282 282 281 281 282 282 281 279 278 278 278 278 278 278 277 277 276 276 277 276 276 277
298 298 297 297 298 296 295 294 293 292 292 289 287 286 285 285 285 284 284 286 286 285 284 284 284 284 283 283 284 284 284 284 283 282 281 280 279 279 278 278 278 276 276 275 275 275 275 275 275 274 273 274 274 273
296 295 296 296 296 296 295 295 295 293 293 292 290 289 287 285 283 283 283 283 283 283 283 282 282 282 282 282 281 281 281 281 281 281 280 279 279 278 277 276 276 275 274 273 273 272 272 273 272 273 272 271 272 272
295 294 295 295 294 294 293 293 294 294 292 292 289 290 286 282 282 282 282 281 282 281 281 281 281 281 281 281 281 280 280 279 279 278 277 277 277 276 276 275 274 273 273 272 271 272 271 271 271 271 271 272 271 270
294 293 295 295 292 291 291 294 291 294 290 291 289 288 287 284 286 284 280 282 282 281 281 281 280 280 280 280 280 279 279 278 278 277 276 275 274 273 272 272 273 273 272 272 272 271 270 271 269 269 269 269 270 270
291 291 291 291 291 289 289 289 292 292 289 289 287 286 285 285 284 280 282 282 281 282 282 281 280 279 278 277 277 278 278 276 275 275 276 274 273 272 271 270 270 270 271 271 270 269 269 269 269 268 267 267 268 267
287 286 289 289 291 288 287 287 288 288 287 287 284 286 285 286 282 282 281 281 281 280 280 281 279 278 276 274 276 275 275 274 273 272 272 272 274 271 270 269 268 268 269 269 269 269 268 268 268 268 267 266 266 266
285 286 289 290 289 288 290 287 286 286 284 284 286 287 284 280 279 282 282 279 277 277 279 278 275 275 275 275 273 273 272 273 271 270 270 270 270 270 270 269 267 267 267 267 267 268 268 267 267 267 267 266 265 265
285 288 289 289 290 289 287 287 287 284 283 287 285 284 279 277 278 280 279 278 274 277 276 277 277 275 274 273 272 271 271 271 271 270 269 268 268 268 267 266 266 266 266 266 266 266 266 266 266 266 266 265 265 265
287 286 285 284 282 284 282 281 281 281 280 282 281 277 276 277 278 278 275 276 275 275 274 274 274 274 273 272 272 272 272 271 270 270 269 268 267 267 267 266 266 266 266 266 265 265 265 265 265 265 264 265 265 265
284 283 281 278 279 279 280 279 278 278 279 281 276 275 275 277 275 276 276 275 275 274 274 273 273 272 271 271 270 269 269 271 271 264 263 264 268 267 267 266 266 265 265 265 265 265 265 265 265 265 265 265 265 265
284 282 279 277 276 277 278 277 279 274 275 274 275 275 275 275 276 276 276 276 275 275 274 274 274 273 273 271 269 268 267 267 268 268 263 263 266 266 266 266 265 265 264 265 265 264 265 264 264 264 265 265 265 264
285 281 279 278 277 276 274 276 277 276 276 275 272 272 270 270 273 273 274 273 273 273 273 273 273 273 272 271 270 268 266 266 266 266 266 266 266 266 265 265 264 264 264 264 264 263 264 264 264 264 264 264 264 263
282 279 276 276 277 277 278 280 277 275 275 271 271 270 272 272 271 273 273 273 274 273 274 273 271 269 269 268 267 267 267 266 265 265 265 265 265 265 264 263 263 264 264 263 263 263 263 263 264 264 263 263 262 262
281 280 278 276 276 277 279 279 278 278 276 274 272 273 272 272 271 271 271 272 273 273 271 270 270 268 268 267 267 266 266 266 265 264 264 264 263 263 262 262 262 262 262 262 261 262 262 262 262 262 262 261 261 261

GFSWCAN_925_thetae_054.txt.gz
Theta_e
297 297 297 298 299 300 300 301 300 300 300 301 301 300 299 300 300 298 301 300 299 298 300 303 306 305 305 305 305 304 306 306 305 306 306 306 304 312 312 314 313 315 319 319 318 321 320 318 320 319 318 316 316 318
297 299 299 300 301 301 301 301 301 300 300 301 301 301 300 300 300 300 299 299 300 301 301 300 303 306 305 305 306 304 306 306 307 306 306 306 306 302 309 312 312 314 314 317 318 318 316 317 318 320 318 318 317 317
300 301 301 301 301 300 300 300 300 300 300 300 300 301 301 300 301 300 299 298 299 299 300 300 302 306 307 308 307 307 307 308 308 305 307 309 309 305 307 308 311 312 312 315 317 317 317 317 316 319 317 317 317 317
301 301 301 301 301 301 301 300 300 301 301 300 300 301 300 301 300 300 299 299 299 300 301 304 301 301 308 308 309 309 309 310 310 308 307 305 306 310 305 311 309 311 316 317 316 315 315 314 313 314 315 316 318 317
302 300 300 300 300 301 302 302 301 301 301 301 301 301 300 301 300 300 300 299 301 302 302 303 304 306 307 305 307 308 309 310 309 309 306 306 307 309 307 311 313 312 315 316 315 314 315 314 312 313 315 317 316 317
301 300 300 300 301 302 302 301 301 301 301 301 301 301 302 301 300 300 301 300 300 303 306 305 303 306 306 305 305 305 307 308 309 309 308 308 310 312 310 310 309 308 309 311 313 312 314 316 316 316 317 314 313 314
300 300 301 300 301 301 302 302 302 301 302 301 301 301 301 301 300 300 301 301 300 302 303 304 305 306 307 306 305 305 305 307 308 308 308 310 310 312 307 311 306 305 304 308 308 311 314 311 311 309 310 310 310 309
300 300 301 300 300 301 301 301 301 301 300 301 301 301 301 300 300 302 302 300 301 299 304 302 305 304 304 305 306 305 306 306 307 307 305 308 310 311 310 300 300 301 302 305 305 305 307 308 308 307 307 307 303 299
300 300 301 301 301 302 300 301 301 301 301 301 300 299 301 300 301 302 300 300 300 303 302 299 303 307 301 302 301 304 303 304 303 304 303 307 303 300 297 297 298 297 299 301 304 301 302 303 301 299 299 298 296 293
299 300 300 301 301 301 301 301 301 300 298 298 299 300 297 302 302 302 302 302 301 301 301 298 298 306 303 297 304 304 298 300 308 304 305 299 297 297 294 294 293 294 296 298 302 301 300 300 298 295 293 291 290 289
300 300 300 300 300 301 300 300 301 301 302 301 301 301 301 302 302 300 300 299 300 300 299 299 297 301 299 299 302 302 305 305 309 307 304 299 295 293 292 291 291 292 293 294 295 294 294 294 293 291 289 287 286 285
299 299 299 300 300 300 300 300 301 301 301 300 301 300 300 300 300 298 299 298 299 305 301 298 300 301 300 299 299 303 307 305 310 303 298 293 293 291 290 290 289 289 289 289 288 288 288 288 287 286 285 284 283 283
298 298 297 298 298 297 300 300 301 302 303 303 300 299 299 295 294 295 300 299 300 298 297 299 304 301 300 299 299 303 307 308 301 297 292 291 290 289 288 288 287 287 287 286 285 285 284 283 283 283 283 282 281 281
298 296 297 297 297 298 299 300 301 299 296 293 294 290 290 290 292 291 290 289 292 295 295 297 301 302 299 297 301 305 298 297 295 289 290 289 289 288 287 286 285 285 284 284 284 283 283 282 282 282 282 281 281 280
296 297 295 295 296 295 294 294 293 292 289 289 289 288 287 288 286 288 290 288 292 293 294 299 300 300 298 298 295 297 293 291 290 288 286 286 285 286 285 285 285 284 283 283 282 282 282 281 281 281 280 280 280 280
297 297 297 293 294 297 294 292 291 292 288 286 286 284 284 284 286 286 289 289 290 292 294 296 300 298 294 291 290 289 290 288 287 285 285 284 284 283 283 283 284 283 283 283 282 282 282 281 280 280 279 279 279 279
297 296 298 297 293 292 292 290 289 288 286 286 284 281 280 280 283 285 286 287 289 293 293 292 289 291 291 290 288 287 285 285 284 283 282 282 282 282 282 281 281 280 280 279 280 280 280 280 280 279 279 278 278 277
296 297 298 297 297 294 291 290 288 288 287 286 284 285 283 280 281 281 287 287 290 292 290 289 289 287 288 289 286 283 282 282 282 282 281 280 279 278 278 279 279 279 278 278 278 277 277 278 278 278 278 277 276 276
297 297 298 298 295 293 291 290 290 288 288 286 285 284 284 283 283 284 285 286 285 286 287 286 285 284 284 284 283 282 282 281 281 280 279 279 279 278 278 277 276 276 276 277 276 276 275 274 274 274 274 275 275 274
297 297 296 296 297 293 292 292 291 290 290 287 285 284 283 283 283 283 283 284 284 284 283 282 282 282 282 283 282 282 282 281 280 279 279 278 277 277 276 276 275 274 274 273 273 273 273 272 271 272 272 271 271 271
295 294 295 295 296 295 292 293 293 290 289 290 287 286 284 283 282 281 282 282 282 282 282 281 281 281 281 281 281 281 281 280 280 279 278 277 276 276 275 274 273 272 272 271 271 271 271 270 270 270 271 270 270 270
293 294 295 294 292 292 292 291 293 291 291 290 289 289 285 282 281 281 281 280 280 280 280 280 281 280 280 280 279 279 278 277 277 276 275 275 274 273 272 272 271 271 270 269 269 269 269 269 270 270 270 269 269 269
292 293 293 290 289 288 289 290 290 292 287 288 286 285 282 277 280 282 278 281 281 280 280 279 279 279 279 279 278 278 277 276 275 273 272 271 271 271 270 270 271 270 270 269 269 269 268 268 268 268 269 269 268 268
291 289 289 285 286 286 284 286 289 289 285 285 285 283 284 278 280 278 280 281 281 280 279 278 277 277 276 276 276 275 274 273 273 273 272 271 270 269 269 269 269 269 269 269 268 268 268 268 267 267 267 267 267 267
286 285 285 285 284 284 283 282 282 285 283 282 281 282 281 281 277 276 278 280 278 277 275 277 276 275 273 272 272 273 273 273 271 270 270 271 270 268 268 267 267 267 268 268 268 267 267 267 267 266 266 266 266 265
284 284 286 285 284 285 284 282 281 282 280 283 283 284 277 274 274 278 279 273 274 271 273 269 272 272 273 272 271 271 272 271 270 269 268 270 270 269 267 266 265 266 266 267 267 267 267 267 266 266 265 265 265 265
283 286 287 284 284 285 282 280 281 279 280 281 280 276 272 271 272 277 276 275 273 274 275 275 274 272 272 271 271 271 271 270 270 268 268 267 267 267 267 266 265 265 265 265 266 266 265 265 265 265 265 265 265 265
284 280 278 275 277 278 276 275 274 275 275 280 275 271 271 270 274 274 271 274 275 275 274 274 274 273 272 271 271 270 270 269 269 268 267 267 266 266 266 265 265 265 265 265 265 265 265 264 264 264 264 264 264 264
277 276 277 274 274 275 276 274 274 277 276 274 268 270 274 275 272 274 274 274 274 274 272 271 271 271 270 269 269 269 270 270 268 263 261 259 265 266 266 265 265 265 265 265 265 265 265 264 264 264 265 265 265 264
279 275 274 272 273 275 275 272 269 266 271 271 274 275 273 273 274 275 275 274 273 273 272 272 271 272 270 270 268 267 267 268 269 268 259 260 265 265 265 265 265 264 264 264 264 264 264 264 264 264 264 264 263 263
278 274 275 274 275 273 270 271 274 273 267 265 263 266 267 269 273 273 274 274 274 273 273 272 272 272 271 270 269 267 266 265 265 266 266 266 265 265 265 264 264 264 264 263 263 263 263 263 263 263 263 263 263 262
274 271 273 275 276 274 272 270 267 265 263 265 264 260 263 264 265 270 272 273 273 273 272 272 271 269 269 268 268 268 267 266 265 265 265 265 265 264 263 263 263 263 263 263 262 262 262 262 262 262 261 261 261 260
276 277 272 273 273 272 271 272 270 272 267 265 268 267 266 266 267 269 271 272 273 273 272 271 270 269 268 267 266 266 266 265 265 264 264 264 263 263 262 262 262 262 262 261 261 261 261 261 260 260 260 259 258 258

GFSWCAN_925_thetae_057.txt.gz
Theta_e
297 297 297 297 297 298 299 299 299 299 299 298 298 298 298 298 299 299 299 302 302 301 302 303 304 304 303 304 303 303 305 303 302 303 304 305 301 307 309 311 311 313 316 317 317 319 318 315 316 322 317 315 317 317
296 299 300 300 300 300 299 300 300 300 300 300 300 299 299 299 298 299 299 298 302 301 303 301 303 304 303 303 303 302 304 305 304 304 302 303 302 298 307 308 311 312 310 312 313 315 316 313 315 315 316 317 317 317
300 301 301 301 301 301 301 301 301 301 301 301 301 300 300 300 299 299 297 298 299 299 301 301 301 303 305 306 304 305 304 305 305 303 303 305 306 302 303 305 309 310 309 310 313 311 313 311 311 312 313 316 317 317
301 301 300 299 299 300 300 300 300 300 301 301 300 300 300 301 299 300 297 299 298 300 300 300 301 301 302 304 306 306 306 308 306 306 306 304 303 307 303 307 305 307 310 311 312 311 312 312 312 313 314 315 315 317
301 301 300 300 300 301 302 301 300 301 300 300 300 300 300 300 300 299 298 298 299 300 300 299 303 302 301 302 306 308 308 308 307 306 305 307 304 307 305 306 308 310 312 314 311 313 312 314 313 312 311 312 314 314
300 300 300 301 301 301 301 302 302 300 300 300 301 300 300 300 300 299 299 299 299 302 304 302 301 305 306 305 306 307 308 307 307 308 307 308 307 310 306 306 306 305 305 306 310 307 308 311 310 308 311 311 309 307
300 301 300 301 301 301 301 301 302 301 301 301 301 301 300 301 298 299 300 300 300 301 299 303 305 305 306 305 305 305 306 307 305 305 306 307 310 312 306 305 302 301 301 303 304 304 311 309 306 304 305 304 300 298
301 301 301 301 301 301 301 301 301 301 302 301 301 301 300 297 299 301 301 299 300 299 300 303 305 306 306 305 306 302 303 304 305 305 304 307 308 310 307 298 298 297 299 303 301 302 302 302 300 297 297 297 294 292
301 300 300 301 301 300 300 300 300 300 300 301 300 299 300 300 300 301 300 300 300 301 302 300 302 308 302 301 302 302 302 302 302 302 304 306 302 300 295 295 294 294 295 297 298 301 301 299 296 294 292 291 290 288
300 301 301 300 300 300 300 300 300 299 300 299 299 299 298 300 300 301 299 299 297 300 301 302 296 306 303 300 302 302 301 304 308 305 303 296 296 292 291 291 291 292 295 296 299 300 298 298 295 291 290 289 288 287
300 300 300 300 300 300 300 300 300 300 300 300 297 299 301 300 299 298 300 301 300 300 298 297 297 303 299 301 303 299 305 305 308 306 305 298 294 291 289 289 289 289 291 290 292 291 291 291 290 289 287 286 285 284
299 300 299 299 300 300 300 300 301 301 301 301 301 300 300 300 297 297 299 296 300 304 299 301 299 299 299 297 298 302 305 304 307 298 295 293 291 289 288 287 287 287 287 286 286 286 286 285 285 284 283 283 282 281
297 297 297 296 298 300 300 301 300 301 301 300 295 293 294 290 289 290 296 298 297 297 296 299 303 300 299 298 300 303 306 304 296 293 291 289 288 288 287 286 285 285 285 284 284 283 283 283 282 282 282 281 280 280
295 296 296 294 297 300 301 301 300 295 293 291 290 286 286 285 289 288 288 287 291 294 295 297 300 301 299 300 299 300 295 292 288 287 289 286 286 285 285 284 283 283 283 282 282 282 281 281 281 280 280 279 278 278
296 293 294 297 295 294 294 293 293 291 288 289 288 286 287 286 286 284 285 287 290 292 294 299 297 296 293 292 291 291 288 287 287 284 283 284 283 284 284 284 283 283 282 282 281 281 280 280 279 279 279 279 278 278
298 298 297 293 295 293 292 291 290 290 287 286 285 284 283 283 285 285 286 285 289 290 294 295 295 294 290 288 287 287 287 286 283 283 284 283 282 282 281 281 280 280 281 281 281 280 280 279 279 278 277 277 277 276
298 297 297 296 291 290 291 289 288 287 286 285 282 283 279 280 283 284 285 287 288 291 290 291 290 292 290 288 285 284 284 283 282 280 280 280 280 280 280 280 279 279 278 278 279 279 279 279 278 277 277 276 276 275
297 297 298 297 296 293 290 289 287 286 284 283 282 283 281 279 280 281 285 285 289 290 289 289 288 285 285 286 283 282 281 281 281 280 279 279 278 278 277 277 277 277 277 276 276 276 276 276 276 277 276 275 274 273
296 297 297 297 293 292 289 288 287 284 283 281 281 281 281 281 283 283 284 284 284 286 286 285 283 283 283 282 281 281 281 280 279 279 278 278 277 277 276 276 275 275 275 275 274 273 273 273 273 273 273 272 271 271
296 295 295 297 295 291 291 290 289 287 285 284 283 282 282 282 282 282 283 284 284 283 282 281 280 280 281 280 280 280 280 279 279 278 277 277 276 275 275 274 274 273 273 272 271 272 272 271 270 271 271 270 269 268
294 294 294 295 294 293 290 290 289 288 287 286 285 284 283 282 281 281 282 282 281 281 280 280 279 280 279 279 279 279 279 278 277 276 276 275 275 274 273 272 271 270 269 268 268 268 269 268 269 270 270 269 268 268
292 294 294 293 291 291 291 290 291 289 290 289 287 287 282 278 278 280 280 279 280 279 279 280 280 279 279 279 278 277 277 276 275 274 273 273 272 271 269 270 269 268 268 268 268 268 268 269 269 269 269 268 267 267
291 293 291 288 288 287 291 289 290 291 287 286 285 284 280 275 278 280 277 280 280 279 278 278 278 278 277 276 275 275 275 274 273 271 270 269 269 269 269 269 269 269 268 268 268 267 267 268 268 268 268 268 267 266
290 287 286 282 286 285 282 284 289 287 284 285 284 284 280 276 278 276 279 279 278 278 278 277 277 276 275 274 274 273 272 272 271 270 270 269 268 267 268 268 268 268 268 268 268 267 267 267 267 267 267 267 266 266
287 285 284 283 282 283 282 280 281 283 281 280 281 280 278 279 275 275 276 277 275 273 270 275 274 273 270 268 270 271 272 272 271 270 270 269 268 267 266 266 267 267 267 267 267 267 266 266 266 265 265 265 265 265
285 284 284 282 281 285 283 281 280 280 279 279 280 278 274 273 273 275 277 272 272 268 266 269 270 271 271 272 270 271 270 271 271 268 268 269 269 268 266 264 265 265 266 267 267 266 266 266 266 265 265 264 264 264
282 283 284 281 281 282 278 278 279 278 276 278 276 271 270 269 270 275 275 273 271 273 274 274 273 272 270 270 270 270 270 269 269 267 267 267 267 267 267 266 265 265 265 265 265 265 265 265 265 265 264 264 264 264
282 278 277 272 274 275 271 269 269 272 273 278 273 269 268 269 273 272 271 273 273 273 273 272 272 271 270 270 270 269 269 268 267 267 266 266 266 266 265 265 265 265 265 265 265 265 264 264 264 264 264 264 264 264
274 271 273 269 271 273 274 270 271 275 275 269 267 268 272 273 270 272 272 273 274 273 271 270 269 270 270 270 269 269 269 269 268 260 258 257 264 265 265 265 265 265 264 265 265 264 265 264 264 264 264 264 264 264
274 270 271 269 272 273 270 267 268 266 270 270 273 274 272 270 272 274 273 273 273 272 272 271 270 270 268 268 266 266 267 268 268 268 259 256 265 265 265 265 264 264 264 264 264 264 263 264 264 263 263 263 263 263
274 271 273 273 274 270 269 268 272 271 264 265 261 265 266 267 272 272 273 273 273 272 271 270 270 270 270 270 269 268 267 266 266 266 266 266 265 265 264 264 264 263 263 263 263 263 263 263 263 262 262 262 262 261
270 269 272 274 274 271 269 264 263 262 259 263 262 257 261 262 263 268 271 272 272 272 272 272 271 270 269 268 268 268 267 266 265 264 264 264 264 264 263 262 262 262 262 262 262 261 261 261 261 261 261 260 260 259
274 275 270 271 271 270 269 269 268 267 263 263 266 263 262 261 265 268 270 272 272 273 272 271 270 269 268 267 266 266 265 265 264 264 264 263 263 263 262 262 262 261 261 261 261 260 260 260 260 259 259 258 258 257

GFSWCAN_925_thetae_060.txt.gz
Theta_e
296 297 297 297 298 299 298 298 297 298 297 297 297 297 299 300 300 300 300 300 300 298 303 304 304 305 304 304 304 303 305 302 300 302 304 307 303 305 306 308 313 314 315 312 315 316 314 312 315 321 316 314 314 314
297 297 297 299 300 300 300 300 299 299 299 299 298 298 297 298 299 301 296 300 299 301 302 302 304 303 303 303 304 304 303 302 302 302 301 302 301 297 306 308 309 309 309 310 311 311 310 311 313 313 314 315 315 314
297 299 300 301 301 301 300 300 300 300 299 300 300 300 298 297 297 298 297 298 298 297 301 301 302 303 303 303 303 303 302 303 302 301 300 302 303 300 302 304 307 307 308 309 310 308 310 309 308 309 311 313 313 313
299 301 301 301 300 300 300 300 300 300 300 300 300 300 300 299 298 298 298 298 298 300 302 303 301 303 304 305 304 305 304 306 304 303 303 301 303 304 301 305 303 304 308 309 308 311 311 311 310 310 308 311 311 311
301 300 300 300 300 301 301 300 300 300 300 301 301 300 300 300 299 299 298 298 298 301 301 300 301 301 303 305 304 305 307 306 306 306 301 306 302 305 303 305 306 308 310 309 308 310 310 310 308 304 306 307 305 304
300 300 300 300 301 300 301 301 301 301 300 300 301 301 300 301 300 298 299 298 298 300 303 301 300 303 301 301 303 305 307 307 305 306 305 304 305 307 309 304 306 305 303 304 308 304 304 304 306 300 300 301 299 297
300 301 301 300 301 301 301 302 301 301 300 300 300 301 300 300 299 299 299 299 298 299 302 302 303 304 303 304 303 304 306 308 308 307 306 304 306 309 307 309 301 300 298 299 303 302 306 304 302 297 297 297 294 291
300 300 300 300 300 301 301 301 301 300 300 300 300 300 301 298 299 300 300 298 299 300 300 302 305 306 304 305 305 304 306 306 306 306 303 305 306 307 308 297 297 296 295 298 298 298 301 301 297 294 293 292 291 289
300 300 300 300 300 300 302 301 300 300 300 301 301 300 298 297 298 300 299 299 300 300 298 299 304 307 303 303 304 302 304 304 302 303 302 304 304 302 293 292 293 292 293 295 295 297 300 299 295 292 291 290 289 287
300 299 300 299 299 299 300 301 300 300 300 298 298 297 296 300 299 299 299 299 298 298 301 302 298 304 303 301 302 303 300 301 302 302 297 296 294 290 290 289 290 290 291 292 294 296 294 294 292 289 288 287 286 286
300 299 299 300 300 300 298 299 299 299 300 298 299 300 299 299 298 299 299 299 299 301 300 299 300 304 300 300 303 298 303 303 306 302 301 298 293 290 288 287 287 288 288 288 289 288 287 288 288 287 285 284 283 282
298 298 299 300 300 300 299 300 300 300 300 300 300 298 296 295 296 299 299 298 301 303 299 302 301 301 300 295 300 302 303 304 303 295 295 291 290 287 287 286 285 285 285 285 285 285 285 284 284 284 283 282 280 279
296 295 296 299 299 300 300 300 300 300 299 295 293 291 293 289 291 294 296 295 296 296 295 299 302 299 298 298 301 302 305 298 294 292 290 288 287 286 286 285 284 283 283 283 283 282 282 281 280 280 280 279 279 278
295 296 295 293 294 293 298 299 299 296 292 290 288 285 284 283 286 287 286 286 291 293 294 298 300 300 298 299 297 298 291 289 287 287 287 285 285 284 283 283 282 282 282 281 281 280 280 279 279 279 278 278 277 277
297 294 292 294 292 291 291 290 291 290 287 287 285 283 284 285 285 286 286 287 289 290 294 297 291 294 288 287 288 290 287 287 287 284 283 283 282 282 281 282 282 281 281 280 280 279 278 278 278 277 277 276 276 276
298 297 296 290 293 293 291 290 288 288 286 284 283 282 281 281 282 281 283 284 287 288 289 291 289 287 286 287 285 285 287 284 281 281 282 281 281 280 280 280 280 280 280 280 279 279 278 277 277 276 276 275 275 274
297 297 297 295 290 289 290 288 287 286 285 283 283 280 278 278 279 281 282 285 286 289 288 290 288 290 289 285 283 283 279 279 279 279 279 280 279 279 279 279 278 278 277 277 277 278 277 277 276 276 275 274 274 273
296 296 297 296 296 292 289 288 286 285 282 280 279 280 280 280 280 281 283 285 288 289 288 288 286 285 284 285 283 281 281 280 280 279 278 278 277 277 277 277 276 276 276 275 275 275 275 275 275 275 274 273 272 271
296 294 296 295 292 291 289 287 285 282 280 280 280 281 281 280 282 283 284 285 285 285 285 285 283 283 283 282 281 280 280 280 279 278 277 277 276 276 275 275 274 274 274 274 274 273 272 272 272 272 271 271 270 270
295 294 296 295 293 290 291 288 286 285 284 283 283 282 282 282 282 282 282 283 283 283 282 281 280 280 280 279 279 278 278 279 278 276 275 275 274 274 273 273 273 272 272 271 270 270 270 269 269 270 270 269 269 267
293 293 294 294 293 292 289 288 287 286 285 285 284 283 283 282 281 281 281 281 280 280 279 279 277 278 278 278 278 277 277 277 276 275 275 274 273 272 271 270 269 269 268 267 267 267 268 267 267 268 268 268 268 268
292 294 293 292 290 289 288 288 288 287 288 288 287 285 282 280 279 279 279 278 278 278 279 279 279 278 278 278 277 276 275 275 274 273 272 272 271 269 267 268 268 266 266 267 268 267 267 267 268 267 267 266 266 266
292 292 289 288 288 288 291 289 290 290 286 286 284 281 277 273 276 279 276 279 278 278 278 277 277 276 275 275 274 274 274 273 271 270 269 268 268 268 268 268 268 268 267 266 267 268 267 267 267 268 267 266 266 266
290 285 283 282 286 284 281 283 287 285 283 283 283 281 277 274 277 275 278 278 278 277 277 277 276 275 274 273 272 272 271 270 269 269 269 269 267 267 267 267 268 268 268 267 267 266 266 267 266 267 267 266 266 265
285 283 282 280 281 283 281 279 279 282 280 279 279 278 276 277 274 274 275 276 274 271 272 273 273 271 268 267 270 271 271 271 270 269 268 269 268 267 266 266 266 267 267 267 267 266 266 266 265 265 265 265 265 265
284 281 281 280 279 282 280 279 278 278 277 277 277 274 272 273 273 274 276 269 272 267 264 266 268 269 271 271 269 270 270 271 270 268 268 268 268 268 265 263 264 265 266 266 266 266 266 266 265 265 264 264 264 264
278 279 281 278 280 280 276 275 277 275 274 277 274 268 269 269 269 274 273 271 269 272 273 273 273 272 270 269 269 269 269 269 269 267 267 268 267 267 267 266 265 265 265 265 265 265 265 265 265 264 264 264 264 264
278 276 276 270 272 273 269 269 269 271 273 277 272 267 267 267 273 271 271 271 272 273 272 271 271 271 270 269 269 268 267 267 267 267 266 266 265 265 265 265 265 265 265 265 264 264 264 264 264 264 264 264 264 263
271 268 272 269 269 270 271 268 270 273 273 268 266 267 271 271 268 271 271 271 272 272 270 269 268 269 269 269 269 269 268 268 268 258 257 256 263 265 265 265 264 264 264 264 264 264 264 264 264 263 263 263 263 263
272 267 269 265 268 269 267 266 266 264 269 268 272 273 270 269 270 272 272 272 272 271 270 270 269 269 268 268 267 267 267 267 267 267 261 258 265 266 265 264 264 264 264 264 263 263 263 263 263 263 263 263 263 262
270 266 269 270 270 268 267 264 271 269 262 263 260 264 264 265 271 271 272 272 272 271 270 269 269 269 270 268 268 267 266 266 266 266 266 266 265 265 264 264 263 263 263 263 262 262 262 262 262 262 262 262 261 261
264 264 268 270 270 267 265 260 261 261 257 262 261 256 259 261 262 267 269 271 271 271 271 271 271 270 269 268 268 267 266 265 264 264 264 264 263 263 262 262 262 262 262 261 261 261 261 261 260 260 260 259 259 258
268 271 267 269 269 268 266 266 266 265 261 262 263 259 257 260 265 267 269 271 272 272 271 270 269 268 267 266 266 265 265 265 264 264 263 263 263 262 262 262 262 261 261 261 261 260 260 260 259 259 259 258 258 258

GFSWCAN_925_thetae_063.txt.gz
Theta_e
296 296 296 297 297 297 297 298 298 298 297 297 297 298 298 298 298 299 298 299 300 298 301 303 304 305 305 304 305 304 305 304 304 306 307 307 308 308 308 308 314 314 315 316 317 319 316 311 315 317 315 315 315 316
296 297 297 297 298 299 299 299 299 300 299 297 297 296 296 297 300 299 299 299 299 300 300 301 303 303 304 304 304 304 305 303 303 305 305 306 307 304 308 309 308 311 314 316 315 316 311 312 313 311 312 313 314 314
297 296 298 298 299 300 300 301 300 301 300 299 298 298 297 297 298 299 297 300 299 299 299 300 303 302 303 303 303 305 304 304 303 302 304 305 307 304 309 309 308 308 308 312 311 309 311 311 311 311 309 311 309 306
296 298 300 300 300 300 300 300 299 299 300 300 299 299 299 297 297 296 298 299 299 299 303 303 300 302 303 303 303 303 305 304 304 305 305 305 307 305 307 307 307 306 308 310 310 310 312 311 309 306 307 306 304 303
300 300 300 300 300 300 300 300 300 299 299 300 300 299 300 299 297 297 297 297 298 301 302 302 301 301 303 303 304 304 305 306 308 308 304 308 305 308 305 307 309 309 311 312 312 307 307 308 308 302 303 303 300 299
300 300 300 299 300 300 300 300 300 300 300 300 300 300 300 299 298 296 297 298 297 298 302 304 300 302 302 304 305 305 305 306 306 307 307 307 306 309 309 309 307 305 303 301 305 303 304 305 304 299 299 299 296 293
299 299 299 299 299 300 301 301 300 300 300 300 300 300 300 300 298 298 299 298 297 299 301 303 303 303 302 302 303 305 305 306 307 307 307 307 309 309 308 309 302 299 297 298 299 300 306 303 302 296 295 295 293 291
299 299 299 300 301 300 301 301 301 301 300 300 300 301 300 299 298 299 299 298 298 299 300 303 304 305 303 304 305 305 306 306 306 306 305 308 308 308 307 297 296 294 294 297 295 295 297 299 296 293 292 292 291 290
299 299 300 300 301 300 301 301 301 300 300 300 301 300 296 294 297 299 299 298 299 299 301 300 305 306 303 304 304 303 305 305 303 305 304 307 307 307 293 292 292 291 291 292 293 294 295 296 292 290 289 289 288 287
299 299 299 299 299 300 300 301 301 301 301 298 298 298 296 295 299 299 299 298 299 299 302 300 301 305 304 303 302 303 302 304 307 305 299 300 293 290 289 288 288 288 289 290 291 293 290 291 290 287 286 286 286 284
298 300 299 299 299 298 298 298 298 298 298 299 299 299 299 299 299 299 300 298 297 299 300 301 301 303 297 304 304 301 304 304 306 303 305 298 293 289 288 286 285 286 286 286 288 287 286 287 287 285 284 283 282 281
297 299 299 299 299 300 300 300 300 300 299 299 298 296 294 293 297 298 300 299 300 302 300 302 301 301 299 299 304 302 305 304 304 295 296 292 289 287 286 285 284 284 284 284 284 284 283 283 282 282 281 280 279 278
293 296 299 299 299 299 300 298 299 299 297 293 291 290 292 287 289 292 297 296 295 294 295 299 302 299 299 299 302 303 303 297 292 291 289 287 286 285 284 284 283 282 282 282 282 281 280 280 279 279 278 278 277 276
294 291 295 298 299 299 300 300 299 295 290 289 288 285 284 285 287 288 287 288 291 292 293 299 298 298 295 297 295 297 291 291 289 289 286 285 284 284 283 283 282 281 281 280 280 279 278 278 277 277 277 276 275 275
292 291 292 292 290 289 292 296 295 291 286 286 285 285 284 284 284 285 285 288 289 289 295 295 291 292 288 288 289 290 289 287 287 285 284 283 282 282 281 281 281 281 280 279 279 278 277 277 276 276 275 275 275 274
297 295 295 289 290 290 289 289 288 287 285 283 282 283 281 282 283 282 284 286 287 288 290 290 289 287 286 286 285 285 287 285 283 282 281 281 280 280 280 279 279 279 279 279 278 277 277 276 276 275 274 274 273 273
296 296 296 295 289 288 288 287 285 285 284 283 282 279 278 280 281 282 282 284 285 289 288 288 288 289 287 284 282 282 282 280 279 280 280 279 279 279 279 278 278 277 277 277 277 277 276 276 275 275 274 274 273 273
295 294 296 294 293 290 286 286 285 284 282 280 281 281 281 281 281 282 284 285 288 288 287 287 286 284 284 284 283 282 281 280 279 279 278 278 277 276 277 277 276 276 276 275 275 275 275 275 275 274 273 272 271 271
295 295 296 292 291 290 288 286 284 282 281 278 280 282 281 281 282 282 283 284 284 285 285 284 283 283 282 282 281 280 280 279 278 277 276 276 276 276 276 275 274 274 274 274 274 273 272 272 272 272 271 271 270 270
294 294 293 293 292 289 289 287 285 284 283 283 283 282 282 282 282 281 281 283 283 282 281 280 280 280 280 279 279 279 279 278 277 276 276 275 274 273 273 273 273 272 272 271 270 270 270 269 268 268 269 268 268 266
293 293 293 292 291 290 288 287 286 285 284 284 283 283 283 282 281 281 280 280 280 280 279 279 278 278 278 278 278 278 278 277 277 277 275 274 272 272 271 270 270 269 269 268 269 268 267 267 267 267 267 267 267 266
292 292 292 292 289 288 288 287 287 286 287 286 285 283 282 280 280 279 279 278 278 278 278 278 278 278 277 277 276 276 275 274 273 273 272 272 272 270 269 268 268 267 267 266 267 266 266 266 266 266 266 266 266 265
292 292 289 288 286 286 291 289 289 289 287 286 284 282 279 277 278 279 277 278 278 278 277 277 276 276 275 274 274 274 274 273 272 270 269 268 268 267 267 267 267 267 267 266 266 266 265 266 266 266 265 265 265 265
290 284 281 282 286 284 282 284 287 285 283 283 282 279 278 276 277 277 277 277 278 277 277 276 275 275 274 273 273 271 270 270 269 268 268 269 268 267 267 266 267 267 266 266 266 266 266 266 266 266 266 265 265 265
285 281 281 281 281 282 281 278 278 280 279 278 278 276 275 277 275 275 276 277 275 273 272 274 273 272 270 270 270 270 271 270 270 269 268 268 267 267 266 265 266 266 266 266 266 265 265 265 265 265 264 264 264 264
281 279 280 278 277 281 279 277 275 276 275 275 274 273 272 273 273 275 277 273 274 271 269 269 271 272 272 271 271 270 269 270 270 268 267 268 267 267 265 265 265 265 266 266 266 266 265 265 265 264 264 264 264 263
275 275 279 276 278 278 274 274 276 275 274 276 272 269 271 270 270 275 273 271 272 271 272 272 272 271 270 269 268 269 269 269 269 268 267 267 267 267 266 265 264 265 265 265 265 265 264 264 264 264 264 263 263 263
276 274 274 268 271 271 267 268 269 271 274 275 272 268 269 269 273 273 271 270 271 271 271 271 271 271 270 269 268 267 267 267 267 267 266 266 265 265 265 265 265 265 264 264 264 264 264 264 264 263 263 263 263 263
270 266 270 266 267 268 270 268 270 273 272 268 268 270 272 271 268 269 270 270 271 271 269 268 267 269 268 268 268 268 267 267 268 263 262 264 262 265 265 264 264 264 264 264 264 263 264 263 263 263 263 263 263 263
270 267 268 264 266 269 266 267 267 265 268 268 272 272 270 269 269 270 271 271 271 270 270 270 269 269 268 268 267 267 267 267 267 266 264 264 264 265 265 264 264 264 263 263 263 263 263 263 262 262 262 262 262 261
269 267 268 268 269 269 267 263 270 268 263 265 262 265 266 266 269 269 271 271 271 270 269 268 268 268 268 268 267 266 266 266 266 266 265 265 265 264 264 263 263 262 262 262 262 262 261 261 261 261 261 260 260 259
267 265 268 270 270 267 264 260 260 263 261 265 264 259 262 264 264 267 268 268 269 270 270 270 270 270 269 268 267 267 266 265 264 264 264 263 263 262 262 262 262 262 261 261 261 261 261 260 260 259 259 259 259 258
268 270 268 269 268 267 264 265 266 266 263 263 262 258 257 262 266 266 268 269 270 271 271 270 269 268 267 266 265 265 265 264 264 264 263 263 262 262 262 262 261 261 261 261 261 260 260 260 259 259 259 258 258 258

GFSWCAN_925_thetae_066.txt.gz
Theta_e
296 296 295 296 297 297 297 297 297 297 297 297 297 298 298 296 296 296 296 297 298 299 300 302 302 303 304 306 306 305 306 306 308 308 308 308 309 308 308 311 313 312 313 314 313 315 318 315 314 314 316 314 316 316
296 296 296 297 297 297 297 298 299 299 299 298 297 297 298 297 297 297 298 297 298 300 301 300 301 302 303 304 306 305 304 306 307 308 308 308 308 310 309 310 309 313 312 314 313 314 316 315 314 315 314 315 315 314
297 297 297 297 298 298 299 299 300 300 300 300 300 297 297 298 297 297 298 298 298 299 299 302 302 302 303 304 303 305 305 306 306 307 308 308 309 309 311 310 310 310 310 312 311 312 313 314 314 312 312 312 310 309
297 298 298 299 300 300 300 300 300 300 300 300 299 297 297 297 297 298 298 299 299 299 303 302 300 300 302 304 304 304 305 305 305 306 308 308 308 308 309 309 309 309 309 309 310 310 312 313 312 309 309 309 308 305
299 300 300 299 300 300 300 300 300 300 300 300 300 299 298 297 297 298 298 300 299 302 303 302 302 301 301 302 304 304 304 305 307 308 309 310 308 309 309 311 311 310 310 312 312 310 309 310 308 305 306 306 304 302
299 299 299 299 300 299 300 300 300 300 299 299 300 300 299 298 296 296 296 298 299 300 302 304 302 303 302 304 304 305 306 305 305 308 309 309 308 309 311 310 310 309 307 306 309 306 306 307 304 300 300 300 300 299
299 299 299 300 300 300 300 300 300 300 300 299 300 300 299 297 296 300 301 298 299 299 302 305 305 303 302 304 305 306 305 306 306 307 308 308 308 309 310 311 307 301 300 301 300 301 306 302 302 297 297 296 294 292
299 299 299 300 300 301 300 300 300 300 300 300 300 300 299 297 297 300 299 298 298 300 302 306 306 305 303 305 306 305 306 307 306 307 306 308 308 308 310 298 296 295 297 298 296 296 297 298 295 293 292 293 292 290
299 299 299 300 301 301 301 301 300 300 299 300 300 300 297 297 299 300 298 299 299 300 304 304 306 307 304 305 304 306 305 307 305 306 308 308 310 306 294 293 292 291 293 293 293 295 294 293 291 290 289 289 289 286
299 298 299 300 300 301 301 300 300 300 299 297 297 295 296 297 299 298 297 297 299 300 303 305 304 306 306 305 306 306 306 307 309 306 303 307 295 291 290 289 289 289 289 290 292 295 293 293 291 288 287 286 286 285
299 299 299 299 300 300 300 299 298 299 299 299 299 298 299 299 299 299 301 303 302 302 303 303 304 305 302 306 306 305 306 306 308 306 308 304 297 291 289 287 287 287 287 287 288 288 288 288 289 287 285 284 282 281
299 299 299 299 298 299 299 299 299 299 300 299 297 294 293 295 300 302 302 300 301 303 301 302 302 303 301 301 305 303 308 307 308 300 306 302 290 288 287 286 285 285 285 285 285 285 285 284 284 283 282 280 279 278
299 298 299 299 299 297 298 298 297 297 296 294 294 292 294 292 297 301 302 301 302 297 297 300 303 302 299 301 304 307 307 303 298 301 297 291 287 286 286 285 284 283 283 283 283 282 281 281 280 280 279 278 278 277
297 298 299 298 299 298 295 294 294 294 292 292 293 290 292 292 292 292 294 295 294 294 295 301 300 302 299 301 299 301 295 297 300 299 293 289 286 285 284 284 283 282 281 281 280 279 279 278 278 277 277 276 276 275
291 292 293 292 293 294 295 293 292 290 288 289 290 290 290 288 288 288 289 292 292 293 298 299 298 298 296 297 296 296 297 296 294 294 288 286 284 283 283 283 282 281 280 280 279 278 278 277 277 277 276 275 275 274
297 296 291 290 290 290 290 291 289 288 287 286 285 289 288 290 290 289 290 292 290 293 295 297 297 296 293 293 294 292 296 295 289 287 285 284 282 282 281 281 281 280 280 279 278 278 277 277 276 276 275 274 274 273
296 296 295 289 289 289 288 287 286 285 285 285 286 285 285 287 287 287 288 289 289 294 296 295 296 292 291 291 289 288 289 287 285 284 283 282 282 281 280 280 279 279 279 279 278 278 277 276 276 276 276 275 274 273
296 295 295 293 290 288 286 286 286 285 285 285 285 285 285 285 286 287 287 288 292 292 291 290 289 289 290 290 288 285 283 283 283 282 281 280 280 279 279 279 278 278 278 277 277 277 277 277 277 276 275 274 273 272
295 295 292 291 291 290 289 286 286 285 285 285 285 285 284 285 285 285 286 287 287 287 288 287 286 286 285 284 284 283 282 282 281 280 279 278 278 278 277 277 277 277 276 277 276 276 275 274 275 275 274 274 274 273
293 292 292 292 291 291 288 287 286 286 286 285 285 285 284 284 284 284 284 284 285 285 283 283 283 283 283 283 283 282 282 281 281 281 280 279 277 277 277 277 277 276 275 274 274 274 274 273 272 271 272 272 272 271
293 292 292 291 291 290 290 288 287 286 286 286 285 285 285 284 284 283 282 282 282 282 282 282 281 281 281 281 281 281 281 281 282 282 281 279 276 276 275 274 274 274 274 274 274 272 272 272 270 270 270 269 269 269
292 292 292 291 292 291 290 289 289 288 288 287 286 285 285 284 284 282 282 282 281 280 281 281 281 281 280 280 279 279 277 277 276 276 275 275 277 275 274 273 273 273 272 272 272 271 270 269 269 269 269 268 268 268
292 291 291 291 292 292 291 290 290 289 289 288 285 284 283 283 282 282 282 280 280 279 279 279 278 278 277 276 276 276 276 276 276 275 274 273 272 272 272 271 271 272 271 270 270 270 269 267 267 268 267 268 268 267
289 285 288 290 292 290 289 289 288 288 288 287 285 284 283 283 282 283 281 280 279 279 279 278 278 278 277 276 277 275 274 274 273 273 273 273 273 271 271 270 270 269 269 269 268 268 267 267 267 267 267 267 267 267
290 283 286 288 287 289 288 288 287 287 287 286 285 284 283 282 283 282 281 280 279 279 278 278 278 278 278 276 275 274 273 274 274 273 272 272 271 271 270 269 269 268 267 269 268 268 267 266 266 266 266 266 266 266
284 281 285 286 287 289 287 287 287 287 286 284 282 280 281 282 282 282 281 280 279 279 278 278 278 277 277 276 276 275 273 272 272 273 271 270 270 271 271 271 270 269 266 267 267 268 267 266 266 265 266 265 264 264
283 282 280 278 282 283 284 284 284 285 284 284 282 280 281 280 280 278 277 276 278 275 274 274 276 276 275 273 271 270 270 270 270 270 268 268 267 267 268 269 268 267 265 265 265 266 266 266 266 265 265 265 265 264
279 278 280 275 276 277 278 279 279 280 280 278 279 277 278 278 278 277 276 273 273 273 272 271 272 272 272 270 269 268 268 267 267 267 267 267 266 265 265 265 265 265 264 264 264 264 264 264 265 265 264 264 264 263
277 275 275 271 274 274 274 275 276 276 274 276 277 276 275 273 272 273 273 272 272 272 272 270 268 268 268 268 268 268 268 269 270 270 270 270 269 267 264 264 264 264 263 263 264 263 263 263 263 263 263 263 262 261
276 275 274 272 272 274 274 272 274 272 273 273 274 274 273 272 270 271 272 272 273 272 271 270 269 271 270 270 269 267 267 267 266 268 270 269 268 265 264 264 263 263 263 263 263 263 263 263 262 262 262 262 262 262
275 275 275 275 274 273 273 274 273 273 274 274 274 274 273 273 271 268 268 268 268 268 270 269 268 268 269 269 270 269 269 266 266 265 265 265 264 263 263 263 263 262 262 261 261 262 261 262 262 262 262 261 260 259
275 275 274 274 274 274 272 275 275 275 275 276 275 274 273 275 274 271 267 268 270 271 270 270 271 270 268 268 267 266 266 265 264 264 264 263 262 262 262 262 262 262 261 261 260 260 260 260 261 260 260 260 259 258
276 276 276 276 275 275 274 276 277 276 276 276 273 271 270 273 273 270 267 268 269 270 270 269 268 268 267 266 265 265 264 264 264 263 263 263 263 262 262 262 261 261 261 260 260 260 260 260 260 259 259 258 258 258

GFSWCAN_925_thetae_069.txt.gz
Theta_e
294 294 295 296 296 296 296 296 297 297 298 298 298 298 298 297 296 296 296 296 297 299 299 300 302 303 303 304 308 308 306 307 306 311 311 310 311 311 310 312 313 312 313 313 313 314 315 316 315 317 318 316 316 316
294 295 295 296 297 297 297 297 297 298 298 298 298 298 298 298 297 296 296 296 297 298 300 301 299 301 303 304 305 305 306 307 308 309 311 310 311 311 310 312 313 314 311 314 312 313 316 316 317 315 315 315 314 313
295 296 296 297 298 298 298 298 298 298 298 299 299 298 298 298 298 296 296 297 297 297 299 301 303 301 302 303 304 307 306 305 307 307 310 311 312 310 312 312 312 311 312 313 314 315 315 315 314 313 313 313 311 310
297 297 298 299 300 299 300 300 300 299 299 300 300 300 298 297 299 297 297 297 297 299 302 303 301 301 303 303 304 304 305 306 307 309 309 311 311 309 312 313 311 311 311 310 311 313 314 314 312 310 311 310 309 308
298 299 299 299 299 299 299 299 300 300 300 300 300 300 298 297 298 298 297 297 298 301 303 302 302 303 301 302 303 304 305 306 307 308 309 310 310 310 309 310 311 310 312 311 315 312 313 312 309 307 307 306 306 305
299 299 299 299 300 299 299 300 300 300 300 300 300 299 297 297 299 298 296 298 299 299 302 306 302 303 302 302 303 304 305 306 306 307 309 309 309 311 311 311 312 310 308 308 310 307 308 307 304 302 303 302 301 300
299 299 299 299 300 300 300 300 300 300 300 300 300 299 298 297 297 299 301 299 299 299 302 303 305 304 303 304 305 306 305 306 306 306 309 309 309 309 310 311 305 303 304 303 302 303 307 303 302 299 297 298 297 296
299 299 300 300 301 300 300 300 300 300 300 300 300 299 299 297 298 299 299 299 299 300 302 306 306 306 304 306 306 305 306 305 305 307 309 309 309 310 311 300 298 298 300 301 298 299 299 298 296 294 293 294 294 292
299 299 301 300 301 301 301 300 300 300 300 299 300 298 297 297 300 300 299 300 300 301 305 306 309 308 304 305 305 305 305 306 306 306 308 309 309 302 295 295 294 293 294 294 296 298 297 296 294 292 291 291 292 291
299 300 300 300 300 301 300 300 300 300 300 300 296 294 296 299 298 298 298 297 299 302 304 306 306 307 305 306 306 306 306 308 307 307 306 310 298 293 292 292 291 291 291 292 293 294 293 294 293 291 290 289 288 287
299 299 299 299 299 300 300 300 300 299 297 297 296 299 299 298 299 300 302 303 304 305 305 305 306 307 304 307 308 307 309 308 308 309 308 307 298 292 290 290 289 289 289 289 290 289 289 289 289 289 287 285 284 283
298 298 299 299 299 299 297 298 298 300 300 300 297 296 297 299 300 303 305 303 304 305 304 305 305 305 304 305 307 305 307 308 308 305 308 305 293 290 289 288 287 287 287 286 286 286 285 285 285 284 283 282 280 279
298 297 298 299 299 299 299 299 299 298 298 298 296 296 299 297 303 304 302 303 302 301 301 304 305 303 304 303 305 307 308 307 302 306 302 294 290 288 287 287 285 285 284 284 283 283 282 281 281 280 280 279 279 278
292 294 295 297 295 296 295 295 296 296 296 296 297 294 298 298 297 297 299 300 296 298 300 303 302 304 301 304 304 305 300 302 305 305 298 291 287 286 285 285 284 283 282 282 281 280 279 279 279 278 278 278 277 276
293 292 293 291 293 293 294 294 293 292 292 293 294 295 293 291 292 292 293 296 295 295 298 303 302 303 301 301 300 300 301 301 301 299 292 288 286 285 284 284 282 282 281 281 280 279 279 278 278 277 277 276 276 275
295 295 291 289 289 289 291 293 290 289 290 290 289 293 292 295 294 293 294 295 293 295 299 302 301 300 298 299 300 298 303 301 294 290 287 285 284 283 283 282 282 281 281 280 280 279 278 278 277 277 276 275 275 274
297 298 291 289 290 289 290 290 289 288 288 289 290 289 291 291 292 291 292 292 292 297 300 301 300 296 296 297 294 293 293 290 287 287 286 285 283 282 282 281 281 281 281 280 279 279 279 278 278 278 277 276 275 274
298 296 293 290 291 290 288 288 289 289 288 290 289 289 288 289 291 290 291 292 295 296 296 294 295 295 295 295 292 287 287 286 285 284 283 283 282 282 282 281 281 280 280 279 279 279 279 279 279 278 277 276 275 274
298 294 293 293 292 291 290 289 289 289 288 288 289 288 289 289 288 288 289 290 291 291 292 292 291 290 288 288 287 286 285 285 284 283 282 281 280 280 280 280 280 280 279 280 280 279 277 277 278 277 277 277 277 276
292 293 291 291 293 292 290 290 289 290 290 288 288 288 287 287 287 288 287 288 288 288 286 286 286 287 287 287 286 285 284 284 284 284 283 282 280 280 280 280 280 279 278 278 277 277 277 276 275 274 275 275 275 274
294 292 292 293 292 292 292 291 290 289 289 288 288 288 288 288 287 287 287 286 286 286 285 284 284 284 283 283 283 283 284 284 286 286 284 282 280 280 279 278 278 278 278 278 277 276 275 275 274 273 273 273 272 272
294 293 294 293 292 291 291 290 291 290 290 289 289 289 289 288 287 285 285 285 283 284 284 284 283 283 282 282 281 281 280 280 279 279 279 279 280 279 278 277 277 277 276 276 275 275 274 273 272 272 272 271 271 271
293 294 294 294 294 293 291 292 291 291 291 290 289 288 288 288 285 286 285 283 282 282 282 281 281 280 279 279 279 279 280 280 280 279 278 277 277 276 276 275 275 275 275 273 273 273 272 270 270 271 270 271 271 270
289 289 292 295 293 292 292 291 290 290 290 290 289 288 287 287 286 286 284 283 282 281 281 281 281 281 280 280 280 278 278 278 277 277 277 277 277 275 274 274 273 273 272 272 272 272 271 270 269 271 270 270 270 270
292 286 290 291 292 292 291 291 290 290 290 289 288 288 287 287 288 287 285 283 282 282 281 281 282 282 282 280 278 276 276 278 278 277 275 275 275 274 274 273 272 271 271 272 272 271 270 269 269 269 269 269 269 269
288 284 289 290 291 292 292 291 291 291 289 288 286 285 287 288 287 286 285 283 282 281 282 282 282 281 281 280 279 278 276 275 276 276 274 273 273 274 274 274 274 273 270 270 270 271 270 269 269 268 269 269 266 266
288 286 284 283 287 288 290 289 290 289 289 287 287 286 287 286 285 282 281 281 281 279 279 279 280 280 279 277 275 274 273 272 273 273 271 271 270 270 271 272 272 270 268 268 268 269 269 269 269 268 268 268 268 267
282 282 283 281 282 284 284 285 285 285 285 283 284 283 283 284 282 281 280 278 277 277 277 276 277 276 276 274 273 272 271 270 270 271 270 270 269 268 268 267 266 266 267 266 267 266 267 267 267 267 268 267 267 266
281 280 278 276 279 279 279 281 281 279 278 282 282 281 278 276 277 276 276 276 276 276 275 274 273 273 272 272 272 272 273 272 273 272 272 274 273 270 268 267 267 267 267 267 266 265 266 266 266 266 266 266 266 265
279 280 278 277 277 278 276 277 277 277 277 278 277 276 275 274 275 275 276 276 277 277 275 275 274 275 274 274 272 271 270 269 269 270 273 272 271 268 267 267 267 266 265 266 266 266 266 265 265 265 265 265 266 266
280 280 279 278 277 277 277 276 277 278 279 279 279 278 276 275 273 272 273 274 274 274 274 273 273 273 273 273 273 272 272 267 265 265 267 267 266 267 265 264 264 264 264 264 264 265 264 264 265 265 265 265 264 262
280 279 278 277 277 276 277 279 279 280 279 279 278 278 279 279 277 275 271 273 274 275 273 274 274 273 270 269 268 267 267 266 265 264 265 265 265 264 263 263 263 263 263 263 264 264 264 263 264 264 264 264 263 262
281 280 280 279 278 279 278 281 281 280 280 280 278 277 277 279 277 273 269 269 272 274 273 271 269 268 267 267 267 266 265 264 264 264 264 263 263 263 263 263 263 263 262 263 263 264 263 263 263 263 262 262 262 261

GFSWCAN_925_thetae_072.txt.gz
Theta_e
293 293 294 294 295 295 296 296 296 296 296 297 297 297 297 297 296 296 296 297 297 299 298 299 300 301 304 305 307 307 307 307 306 306 308 310 311 312 312 312 312 313 314 315 314 315 317 316 317 319 319 318 315 315
293 293 294 295 296 296 297 297 297 297 297 297 298 298 298 297 297 296 296 296 297 299 298 298 299 300 301 301 305 303 306 306 306 308 309 312 313 314 312 313 312 313 312 315 312 314 317 317 316 316 315 314 312 312
293 294 295 296 296 297 298 298 298 299 298 298 298 298 298 298 298 297 297 297 297 298 299 298 299 298 300 302 302 306 306 305 306 308 309 311 313 312 314 313 314 314 313 316 315 317 316 314 313 313 311 311 310 309
294 295 296 298 298 299 299 299 299 298 298 299 298 298 298 298 298 298 296 297 297 298 298 299 298 300 298 301 303 304 305 305 306 309 308 310 312 311 314 313 314 313 312 313 316 315 312 311 309 310 308 308 307 306
295 296 298 299 299 299 299 299 299 300 300 300 299 299 299 299 298 298 297 297 297 299 300 300 300 300 302 301 303 304 305 306 306 307 309 310 310 311 311 313 314 312 313 316 316 310 311 309 306 306 306 305 304 303
296 298 299 299 299 299 299 299 299 299 300 300 300 300 299 299 298 297 294 297 297 297 300 304 302 303 303 302 303 303 305 305 306 307 308 309 309 311 313 313 307 306 306 304 305 306 307 306 302 301 301 301 300 299
298 298 299 299 299 299 300 300 299 299 300 300 300 300 301 298 298 298 300 299 297 298 299 303 303 304 303 303 304 305 305 305 306 306 307 309 309 310 312 311 302 301 304 301 301 304 304 300 299 297 298 298 296 294
298 299 299 300 300 300 301 300 300 299 300 300 300 300 298 298 297 298 300 300 297 299 300 304 304 306 304 306 307 306 306 305 305 307 307 309 310 310 304 298 297 296 299 298 298 300 299 298 296 295 295 295 295 292
299 299 300 300 301 301 301 301 300 299 300 301 299 298 297 297 298 300 299 299 299 300 303 305 305 308 305 306 306 306 304 305 305 306 308 309 307 300 296 295 294 293 294 295 297 296 296 296 295 294 293 292 292 290
299 298 300 300 301 301 301 300 300 300 300 299 297 295 296 298 299 299 299 296 298 300 303 306 306 307 306 307 306 305 306 307 309 307 307 305 297 294 294 292 291 291 292 292 293 293 292 292 293 290 289 288 287 286
299 299 299 300 300 300 300 300 300 299 297 297 296 299 299 299 299 299 300 302 302 304 304 306 305 305 305 307 306 306 307 309 309 308 308 306 298 293 291 290 289 289 289 288 289 288 288 288 289 287 285 284 283 282
299 298 298 299 300 300 300 300 298 299 299 297 298 298 298 300 301 303 303 304 304 305 306 307 306 306 305 304 306 306 308 309 310 307 307 301 293 290 289 288 287 287 286 286 285 285 285 284 284 283 282 281 280 279
299 298 297 297 297 297 298 299 299 298 298 298 299 299 302 299 304 305 302 303 305 303 303 305 306 305 305 305 307 307 307 308 304 307 301 294 289 288 288 287 285 284 284 283 283 282 281 280 280 280 279 279 278 277
296 296 298 296 294 298 297 296 296 297 297 298 298 296 300 299 299 298 300 300 298 301 303 304 304 305 304 303 305 304 302 303 306 306 297 291 288 286 285 285 283 283 282 281 280 280 279 279 279 278 278 277 276 276
294 293 296 294 295 296 296 296 294 294 294 295 296 296 294 293 293 295 296 298 296 297 300 304 305 303 302 302 302 301 302 303 299 296 291 288 286 285 284 283 283 282 282 281 280 279 279 278 278 277 277 276 275 275
294 295 290 289 292 293 293 292 292 292 292 291 292 295 295 297 296 295 297 296 295 297 298 303 302 302 300 302 302 301 304 300 294 289 287 285 284 284 283 283 283 282 281 281 280 279 278 278 277 277 276 275 275 275
298 296 290 290 291 291 291 291 290 290 291 291 291 291 293 293 293 293 294 294 295 298 303 303 301 299 298 299 295 293 294 290 289 287 286 284 283 283 283 282 282 281 281 280 280 280 279 279 279 278 278 277 276 274
298 289 291 291 292 291 290 291 291 290 290 291 291 291 290 291 292 292 292 294 297 298 297 296 297 297 295 297 292 289 288 287 286 285 284 284 283 283 282 282 282 281 281 280 280 280 280 280 279 278 277 276 276 276
298 294 290 294 292 292 291 291 291 290 290 291 290 290 290 290 290 290 291 293 292 293 294 293 291 291 290 289 288 287 286 285 284 284 283 282 281 281 281 281 281 281 280 281 280 279 278 278 278 278 278 278 278 276
293 293 292 292 293 292 291 292 292 291 292 290 290 290 289 290 290 290 290 290 290 289 288 288 289 289 288 288 287 287 286 285 284 283 283 282 282 282 282 281 281 280 280 279 278 278 278 277 276 275 275 275 277 275
293 292 293 294 293 293 293 292 291 290 291 291 291 290 290 289 289 289 288 287 287 287 286 286 286 286 285 285 285 286 286 287 288 286 283 282 281 281 280 280 280 280 280 279 279 277 277 276 275 274 275 274 273 272
294 293 295 293 293 293 292 292 292 291 291 291 291 291 291 290 288 287 286 285 285 286 285 284 284 284 283 283 282 282 282 282 282 281 281 281 281 281 280 279 279 278 277 277 277 276 275 274 272 273 273 273 272 270
295 295 295 294 293 292 291 293 293 293 293 291 291 291 290 289 287 287 285 284 284 283 283 282 282 281 281 281 281 281 282 281 281 280 280 279 278 278 278 277 277 277 277 275 274 275 273 271 271 272 272 272 272 271
290 291 294 295 293 292 293 292 292 292 292 291 290 290 290 289 288 287 285 284 283 282 282 282 281 282 281 281 281 280 280 280 279 279 279 279 278 276 276 275 275 274 273 273 273 273 272 272 270 272 271 271 271 270
293 287 292 293 294 293 292 292 292 292 292 290 290 290 288 289 290 288 286 284 284 283 283 283 284 284 282 281 279 278 279 280 279 278 277 277 277 276 275 274 273 272 272 274 274 273 271 270 271 271 270 270 269 269
289 286 291 292 293 293 293 293 293 292 291 290 288 288 290 291 290 288 286 284 284 283 283 284 283 283 282 281 280 279 277 277 278 277 275 275 275 276 276 275 275 272 271 271 271 272 272 271 270 269 269 270 268 268
290 288 286 286 290 291 292 292 291 291 290 289 289 289 290 288 286 283 285 283 283 282 282 282 282 282 280 278 276 275 274 274 274 274 273 272 272 272 272 272 272 270 270 269 269 269 270 270 270 269 269 269 269 269
284 285 285 285 286 287 287 287 288 288 287 286 287 286 286 286 284 283 282 280 280 279 279 278 279 278 277 276 275 274 273 272 272 272 272 272 271 270 269 268 267 267 267 267 267 267 268 268 268 268 268 268 268 267
284 282 280 279 282 281 281 283 283 281 280 285 285 282 279 279 279 279 278 278 278 277 277 276 275 275 274 275 275 274 274 274 274 273 274 275 274 270 269 269 269 268 268 268 267 267 267 266 266 266 266 266 266 266
282 283 280 279 279 279 279 281 280 279 279 278 278 278 278 278 277 278 278 279 278 278 277 277 276 276 275 274 273 272 271 270 270 272 273 273 271 269 268 268 268 267 267 267 267 267 267 267 266 267 267 266 267 267
283 283 281 280 279 278 279 280 281 281 281 279 280 277 276 276 274 275 276 276 276 276 276 275 275 275 274 275 274 274 271 268 266 267 268 268 268 268 266 265 265 265 266 266 266 266 265 265 266 266 266 266 265 264
283 281 280 278 279 280 280 282 281 280 280 280 279 279 279 280 278 275 273 275 277 276 276 276 274 272 271 269 268 269 268 267 266 266 266 267 266 265 265 265 265 265 265 264 265 265 265 265 265 265 265 265 264 263
283 282 280 280 279 280 280 283 282 282 282 281 279 280 279 280 278 274 272 272 274 275 273 272 270 269 269 269 268 267 266 265 265 264 264 264 264 263 264 265 264 264 264 264 264 265 265 264 264 263 263 263 263 262

GFSWCAN_925_thetae_075.txt.gz
Theta_e
293 292 293 293 293 293 295 295 295 296 296 296 296 296 297 297 296 296 295 296 296 296 296 297 298 298 300 301 304 304 305 306 303 302 304 304 306 309 312 312 311 310 313 312 311 313 314 318 318 321 319 316 313 312
293 293 293 293 294 294 295 296 296 297 297 296 297 296 297 297 297 296 295 295 296 297 295 297 297 298 299 299 301 299 303 304 306 305 305 307 310 310 311 315 313 313 311 312 311 312 316 315 317 313 311 311 310 309
293 293 293 293 294 295 296 297 298 298 299 298 298 297 297 298 297 297 296 296 296 295 296 296 296 296 296 297 301 301 303 304 304 306 307 308 310 310 311 312 314 313 310 314 314 315 314 311 310 309 309 308 306 305
293 293 293 295 296 297 298 299 299 299 299 299 299 298 297 298 298 297 297 296 296 295 293 296 297 298 298 298 299 301 302 303 304 304 305 306 309 310 311 312 311 308 313 314 309 305 308 307 307 306 305 305 304 301
292 293 295 296 297 298 299 299 299 299 299 299 298 299 298 298 298 298 298 296 297 296 299 299 298 300 299 300 300 299 303 304 303 304 307 308 309 309 309 310 307 306 305 310 310 306 305 303 303 302 302 301 298 298
294 295 296 297 298 299 299 299 299 299 299 299 300 299 299 299 298 299 294 296 297 297 297 298 300 301 301 301 301 302 302 302 302 306 306 306 308 308 309 308 302 300 300 300 305 304 302 299 298 299 299 296 294 292
295 296 298 298 299 299 299 299 299 299 299 299 299 300 299 299 298 297 298 297 296 297 297 299 300 301 302 303 301 301 303 303 303 304 306 306 308 308 306 304 298 297 297 298 300 301 298 296 296 296 297 294 291 288
296 298 298 299 299 299 300 300 300 300 299 299 300 300 300 298 297 298 300 299 297 297 299 300 301 303 303 302 304 303 305 304 304 305 305 307 307 303 298 296 294 294 295 295 297 297 297 295 294 292 293 292 289 288
298 299 299 299 300 300 301 300 300 300 299 300 300 300 297 296 297 298 299 297 297 298 299 300 301 305 303 304 304 304 304 303 304 304 305 307 300 296 295 293 292 292 292 292 294 292 293 293 291 290 289 289 287 286
299 299 298 300 300 301 301 301 300 300 300 298 297 295 296 298 298 298 298 298 297 300 301 303 302 302 304 302 303 304 302 305 307 304 305 298 295 293 291 290 289 289 289 289 290 290 289 290 287 286 285 285 284 283
298 299 300 300 300 300 301 300 300 297 297 297 297 298 298 298 298 298 297 300 300 300 299 301 301 303 303 304 304 302 305 303 306 306 306 302 296 291 288 287 287 287 286 286 286 285 285 286 285 283 282 281 280 279
298 299 299 300 300 300 300 298 297 297 298 297 299 298 298 299 300 301 302 300 300 300 299 301 303 304 303 303 303 302 305 304 308 304 306 296 291 288 286 285 285 284 284 283 282 282 282 281 281 281 280 279 278 277
297 297 299 299 299 298 298 298 298 298 299 299 298 298 301 298 300 299 301 297 302 302 301 301 304 302 302 303 303 303 305 304 299 302 293 290 288 286 286 284 283 282 281 281 280 279 279 278 278 277 276 276 276 275
297 296 297 297 298 298 298 298 298 297 297 297 295 290 297 299 297 297 298 299 298 299 300 300 301 302 300 301 302 303 300 301 302 297 291 287 283 283 282 283 282 280 279 278 277 277 276 276 276 276 276 275 275 275
295 294 294 295 296 296 297 295 293 293 293 293 293 294 292 291 290 294 295 296 295 296 298 299 298 300 300 299 300 298 301 302 294 288 285 285 283 282 280 280 280 278 277 277 278 277 276 276 275 275 275 275 274 274
293 292 291 296 295 294 298 295 291 292 291 290 290 293 292 294 293 294 296 295 294 295 296 296 300 300 299 300 298 294 299 291 286 283 283 281 279 278 281 280 279 280 279 279 278 278 277 276 275 275 275 274 274 274
297 292 290 291 291 291 294 291 290 290 290 290 288 288 292 287 290 292 292 294 293 297 302 298 297 299 296 294 291 289 287 286 285 284 281 278 277 276 278 281 281 281 280 280 279 278 277 276 276 276 275 274 273 273
292 289 292 293 293 292 291 291 290 290 290 289 288 287 284 288 290 290 291 290 294 293 292 294 293 289 287 291 286 285 284 284 282 281 280 279 281 282 282 281 281 280 280 280 279 279 279 279 278 277 276 275 275 274
292 292 293 293 292 292 291 291 290 289 290 288 290 289 289 289 289 289 289 290 289 288 291 290 288 286 286 284 285 283 281 282 282 282 281 281 281 281 281 281 280 279 280 280 279 278 277 277 276 275 276 277 276 275
292 293 295 293 293 292 292 291 291 291 291 290 290 289 289 289 289 288 288 288 288 287 286 286 286 286 284 285 283 283 283 282 281 280 280 279 281 280 281 281 280 279 279 278 278 277 277 276 275 274 274 274 273 272
292 292 293 294 292 293 292 290 291 290 290 290 290 290 289 288 287 286 285 286 285 285 285 284 284 284 284 284 283 283 284 284 280 279 281 280 280 280 280 280 280 279 279 278 277 276 275 274 274 273 273 273 272 271
293 294 294 293 292 292 291 291 291 290 291 290 290 290 289 286 285 284 284 283 284 284 283 283 283 282 281 281 282 282 282 281 281 281 281 281 279 278 277 278 277 277 275 275 275 274 272 272 273 272 272 272 271 271
295 296 295 294 289 288 291 292 292 292 290 290 291 290 288 285 286 285 283 283 283 282 281 281 281 281 281 281 281 281 281 280 280 279 278 278 278 277 276 275 275 275 274 274 273 273 272 271 271 272 272 272 272 271
291 290 292 290 290 291 291 290 291 291 291 291 289 289 289 286 287 284 284 282 280 281 280 280 280 280 281 280 279 279 279 279 279 278 278 277 276 276 275 274 273 273 273 273 273 272 272 271 271 271 270 270 271 270
288 284 286 288 290 287 288 289 291 291 288 288 287 286 286 288 287 284 282 282 282 281 278 282 282 281 278 274 278 278 279 279 277 275 276 276 276 275 274 273 272 272 272 272 272 272 271 270 271 270 269 269 269 269
284 282 287 290 290 289 290 287 287 288 287 286 285 286 287 287 283 283 282 283 282 278 279 281 279 279 279 279 276 276 276 276 276 274 273 273 273 274 274 273 271 270 270 270 270 270 270 270 270 269 269 269 269 269
284 284 286 287 289 290 288 288 289 287 286 285 285 284 282 279 279 283 283 281 281 282 282 283 281 278 276 275 274 274 274 275 274 272 272 271 271 271 271 270 269 269 269 269 269 269 268 268 268 268 268 269 269 268
283 284 281 284 282 283 283 283 283 283 282 284 282 278 279 277 280 281 281 280 278 277 277 277 277 276 275 274 273 272 272 272 272 272 271 270 270 270 269 268 268 268 268 268 267 267 267 267 267 267 267 266 267 267
281 280 279 276 278 278 278 279 279 278 279 281 276 275 276 278 279 278 278 277 277 276 275 274 275 275 275 274 273 273 273 273 273 267 266 267 269 269 268 268 268 267 267 267 267 267 267 267 266 266 266 266 266 266
281 281 278 275 274 276 277 279 277 275 275 276 277 278 277 277 278 278 278 278 277 276 275 275 275 274 273 272 271 270 270 270 271 271 267 266 268 268 268 268 267 266 266 266 266 266 266 266 266 266 266 266 266 265
283 280 278 277 277 279 279 279 278 277 276 276 274 274 273 274 274 275 276 276 276 276 275 275 274 274 274 273 271 269 267 267 268 268 268 268 268 267 266 265 265 265 265 265 265 265 265 265 265 265 265 265 265 264
280 277 275 275 277 279 280 277 275 277 277 276 274 271 272 273 272 274 273 275 276 276 275 273 272 270 270 270 270 270 269 266 266 266 267 266 266 265 265 265 265 264 264 264 264 265 265 265 264 264 264 263 263 263
278 277 277 275 275 277 278 278 278 280 279 277 277 277 273 272 271 272 272 273 274 273 272 271 270 269 269 268 268 267 267 266 265 265 265 264 264 264 264 265 264 264 264 263 264 264 264 264 264 263 263 262 262 262

GFSWCAN_925_thetae_078.txt.gz
Theta_e
293 293 292 292 292 293 294 294 295 295 295 295 296 296 296 296 296 297 295 295 294 295 294 295 296 296 297 298 300 300 301 305 303 301 302 303 302 305 307 310 312 309 310 309 310 313 313 316 316 319 315 313 312 311
293 292 293 293 293 293 294 294 294 295 296 296 296 296 296 296 296 296 295 295 295 294 292 297 297 297 297 297 298 300 302 303 302 303 302 304 305 306 310 313 311 313 310 309 309 311 314 313 314 312 311 309 307 308
292 292 293 293 293 293 293 295 296 297 298 298 298 297 297 296 297 297 296 295 295 294 294 294 294 295 296 296 298 298 302 300 302 302 306 308 309 308 310 312 313 308 311 312 312 310 309 308 308 307 304 303 301 300
292 293 293 292 293 294 295 296 298 298 299 298 299 298 297 297 297 297 296 295 295 292 288 292 295 295 296 296 296 298 300 300 301 303 305 306 307 307 309 306 304 304 306 311 308 304 306 304 302 302 302 300 297 295
293 292 292 293 294 295 297 297 298 299 299 299 299 299 298 297 298 298 297 295 295 293 293 295 296 297 297 298 297 298 300 302 303 303 303 307 307 309 305 305 301 301 301 309 308 302 303 302 299 298 296 294 294 293
292 292 293 294 296 297 298 298 299 299 299 299 299 299 299 298 298 299 294 296 295 296 295 294 295 299 300 299 299 298 300 302 302 303 305 304 307 305 308 304 298 297 298 300 302 298 297 297 298 295 293 290 289 289
292 293 294 296 296 298 298 298 299 299 299 299 299 299 299 299 298 297 297 296 296 296 298 295 297 298 301 300 300 299 301 300 300 303 305 304 307 305 301 299 295 295 296 297 298 299 296 294 294 294 291 289 287 285
294 295 296 297 298 298 299 299 299 299 299 299 299 299 299 299 298 298 299 298 296 296 297 297 296 299 302 301 303 299 301 301 303 304 304 305 302 298 296 294 292 292 293 293 294 295 293 292 290 291 290 288 286 284
296 298 298 298 298 299 298 299 299 300 299 299 299 300 296 296 296 297 299 297 297 297 297 298 301 300 302 302 302 302 303 303 303 304 304 303 296 294 292 290 289 289 290 291 291 292 291 289 288 288 287 286 286 284
298 299 298 298 299 300 300 300 300 299 299 299 297 295 295 298 298 297 298 297 297 298 300 300 299 302 303 302 302 302 302 304 304 303 300 296 292 289 288 287 287 287 287 287 289 288 289 287 285 284 283 283 282 281
298 298 298 300 300 300 301 301 300 299 298 297 295 297 299 298 297 297 297 299 298 299 297 296 300 303 302 303 302 301 303 303 306 304 304 298 294 288 286 286 285 284 283 284 283 283 283 284 283 282 281 280 279 278
299 299 300 300 300 300 300 300 298 298 296 297 298 298 298 297 298 300 300 299 298 298 295 301 300 302 301 302 301 302 303 304 306 303 298 290 289 286 284 283 283 282 281 281 281 281 281 281 280 280 279 278 276 275
300 299 300 300 299 299 298 298 298 298 298 299 298 297 299 297 300 297 299 299 301 301 300 302 302 301 298 301 302 302 301 304 299 292 290 288 287 285 283 282 281 280 280 279 279 278 278 277 276 276 275 275 275 274
298 298 298 298 297 297 297 298 299 298 297 296 294 291 291 297 296 291 294 298 297 298 300 298 300 299 299 299 301 301 298 299 298 291 289 285 283 282 282 281 279 276 276 275 274 274 274 273 274 274 274 274 274 273
297 297 296 295 295 296 295 293 294 293 291 292 292 291 287 288 288 293 293 296 294 295 298 298 295 296 297 298 298 298 299 297 292 290 283 282 280 279 278 278 276 275 273 273 275 274 274 274 274 274 274 274 274 274
295 295 295 294 296 295 293 292 291 291 289 288 288 290 291 290 290 292 294 295 294 295 296 295 299 298 298 298 293 291 295 291 283 278 278 280 278 277 277 276 275 276 276 276 276 276 275 275 274 274 274 274 273 273
292 291 293 296 297 298 297 291 291 290 289 288 286 280 280 280 288 287 291 292 292 297 300 297 298 297 295 288 286 285 281 279 282 280 277 274 276 276 276 278 278 278 277 277 277 276 275 275 275 274 273 273 273 272
291 293 292 291 292 292 291 290 289 289 288 286 285 283 277 279 282 285 289 290 292 292 290 292 289 285 282 285 282 280 280 279 278 278 273 273 278 280 280 279 280 279 279 279 278 278 276 275 276 275 275 274 273 273
291 293 293 294 292 291 290 290 289 287 285 282 284 283 282 283 285 285 285 286 286 286 287 286 283 281 281 279 281 278 276 280 281 280 279 279 280 280 280 280 279 280 280 280 278 277 276 276 275 275 275 275 274 274
293 293 292 292 292 291 291 290 290 289 288 288 286 286 286 286 284 284 285 285 287 286 284 282 283 283 280 276 276 280 280 280 280 279 276 276 280 279 279 279 279 278 278 277 277 276 275 274 274 274 274 273 273 272
293 293 292 293 292 292 290 289 289 289 290 290 289 288 287 287 285 284 284 285 283 284 283 281 280 282 281 281 282 281 280 279 276 276 279 278 279 280 280 279 279 278 278 275 273 273 273 273 273 273 273 272 271 270
293 293 293 292 290 290 289 288 289 289 290 291 290 290 287 283 281 281 283 281 282 282 281 281 281 281 281 280 281 281 282 281 280 280 280 279 277 276 276 276 275 274 276 275 274 273 272 272 272 272 272 271 271 270
294 295 294 290 286 285 289 291 290 290 288 288 289 288 284 281 281 283 279 281 280 279 279 280 280 280 280 280 280 280 280 279 278 277 277 276 276 275 275 275 275 274 273 273 273 272 272 271 271 271 271 271 271 271
292 289 287 284 286 288 284 286 289 290 290 289 287 287 284 282 285 281 281 280 278 278 278 279 280 279 279 278 277 278 277 278 277 276 277 276 274 274 275 273 273 273 273 272 272 272 271 271 271 271 270 270 270 269
286 282 282 283 284 283 283 284 286 286 283 283 283 283 283 285 280 278 277 278 276 272 273 279 279 277 274 270 275 277 277 277 275 273 275 276 274 273 272 272 271 271 272 272 271 271 271 270 270 270 269 269 269 269
281 278 286 284 286 286 285 283 282 282 281 281 281 283 283 279 277 279 280 275 275 272 273 279 278 274 276 276 274 275 275 275 275 273 272 274 275 274 271 269 270 269 270 270 270 269 269 269 269 269 269 269 269 269
279 279 284 285 286 288 285 285 285 283 280 281 279 278 275 273 274 279 277 275 276 280 282 280 278 276 274 273 274 275 276 275 275 273 271 271 271 272 273 271 269 269 268 268 268 268 268 268 267 267 267 267 267 267
281 279 279 277 277 278 277 276 275 277 276 281 279 274 273 273 277 278 277 276 278 279 278 277 277 276 275 274 273 273 272 272 271 271 270 270 269 269 269 268 268 268 268 267 267 267 266 266 266 266 266 266 266 265
275 275 276 273 273 273 275 274 275 276 277 276 271 270 273 276 275 276 275 275 276 276 274 273 273 273 272 272 273 272 272 272 271 264 262 262 268 268 268 268 267 267 266 267 267 267 266 266 266 266 266 266 266 266
277 274 273 269 271 274 273 271 271 269 271 272 275 277 276 276 276 276 276 276 275 273 274 273 273 273 272 271 269 270 270 271 272 272 262 261 268 268 267 267 267 266 266 266 265 265 265 265 265 265 265 265 265 264
276 271 272 272 275 274 274 274 274 274 268 270 266 269 270 273 275 275 275 275 275 274 274 273 273 273 272 271 270 268 266 268 269 269 269 268 267 267 266 265 265 265 265 265 265 265 264 264 264 264 264 264 263 263
269 268 271 274 275 274 270 267 268 269 265 266 267 263 268 268 268 270 272 275 275 273 274 274 273 271 272 272 271 271 271 267 267 267 267 267 266 265 265 264 264 264 264 264 264 264 264 264 264 264 263 263 262 262
271 269 268 270 270 274 274 271 272 275 271 272 272 271 267 265 267 269 272 274 275 274 273 272 271 270 269 269 268 267 267 266 265 265 265 265 264 264 264 264 264 263 263 263 263 263 263 263 263 262 262 261 261 261

GFSWCAN_925_thetae_081.txt.gz
Theta_e
293 293 293 293 293 293 293 293 294 294 294 294 295 295 295 296 296 297 295 294 294 291 293 295 295 295 295 296 294 297 297 299 302 303 303 303 302 304 305 305 308 307 308 308 307 309 309 314 315 314 313 311 310 309
294 293 293 293 292 293 293 294 294 294 294 295 295 295 296 296 296 297 294 294 294 293 291 295 296 296 295 295 295 297 296 299 301 302 300 303 304 302 306 307 310 311 308 308 308 308 310 310 313 310 306 307 306 307
293 292 292 292 292 293 293 293 293 294 295 296 296 296 297 296 296 296 295 294 294 294 293 292 292 294 294 295 297 298 298 301 299 300 304 306 305 308 307 309 305 304 304 311 310 306 305 305 302 301 299 298 299 299
292 292 292 292 293 293 292 293 294 295 297 298 298 297 298 297 296 297 296 294 294 291 288 290 293 293 295 295 295 297 299 299 299 301 304 304 306 307 308 303 301 300 301 308 308 305 304 300 298 298 296 294 293 293
292 291 292 292 293 292 293 294 296 297 298 298 299 298 298 298 297 297 297 295 294 292 291 293 294 296 297 297 295 295 297 299 301 302 300 305 306 306 303 302 297 297 299 302 305 301 300 299 296 293 292 291 290 289
291 292 292 292 292 293 293 295 297 298 299 299 299 299 299 298 297 298 295 295 294 294 294 292 293 295 298 297 296 296 298 299 300 303 301 303 305 305 305 300 295 295 295 297 300 297 297 295 292 291 289 288 287 286
292 292 292 292 292 293 295 296 297 298 299 299 299 299 299 298 297 298 297 296 295 295 296 294 294 295 300 298 297 299 299 300 302 301 302 304 304 301 298 296 292 293 294 295 295 297 295 294 292 290 288 286 284 283
292 292 292 293 294 295 296 297 298 298 299 299 299 299 298 299 298 298 297 298 295 295 296 296 294 298 300 298 301 298 299 302 301 300 303 305 299 297 294 292 291 290 292 292 293 291 291 290 289 289 287 285 284 283
292 292 294 295 297 297 298 298 298 299 299 299 299 299 298 297 296 297 298 296 296 296 296 296 297 300 299 300 301 301 298 302 300 303 304 299 294 291 291 289 288 288 288 289 290 289 288 287 286 286 285 284 284 282
293 294 296 297 298 298 298 298 299 298 299 299 298 295 294 296 298 296 297 295 296 297 298 297 295 298 301 299 301 301 301 303 305 303 297 294 290 288 287 287 286 286 285 285 288 288 287 285 284 283 282 282 281 280
295 297 298 298 298 298 299 299 299 299 299 297 294 296 297 297 296 297 297 298 297 298 297 297 298 300 300 303 301 300 302 303 305 304 302 295 291 287 286 285 283 283 283 283 283 283 283 283 282 281 280 279 278 277
298 298 298 299 300 300 300 300 299 299 297 297 297 297 296 296 297 298 298 298 296 297 292 299 300 300 301 299 301 301 303 303 306 302 296 287 287 285 284 283 282 281 281 281 281 281 281 280 280 279 278 276 274 274
299 300 300 300 300 300 300 300 298 298 298 298 297 296 298 297 300 297 299 300 299 298 298 301 302 300 298 300 301 302 301 299 299 286 287 285 286 284 283 282 281 280 280 279 278 278 277 275 275 275 273 274 274 273
299 299 299 298 298 297 297 298 298 298 298 296 296 294 296 297 291 290 287 288 294 298 299 299 301 300 298 299 300 294 294 294 289 289 287 283 283 282 281 280 278 275 274 273 272 273 273 273 272 273 274 274 274 273
298 298 298 298 298 297 298 298 297 294 292 293 292 291 285 289 291 293 294 296 294 295 298 298 296 299 295 295 296 298 295 290 289 286 278 280 279 278 277 276 274 272 271 272 273 272 273 273 273 273 274 274 273 272
296 295 295 294 293 293 295 293 292 291 289 289 287 291 290 290 290 292 294 295 294 295 296 295 295 295 295 294 294 291 295 292 282 275 276 278 276 276 275 274 273 274 274 274 274 274 274 274 274 273 273 273 273 273
296 293 295 295 296 294 292 291 291 290 289 288 286 282 280 284 285 290 291 291 292 297 298 292 291 294 292 288 287 285 283 277 275 278 277 273 276 273 272 274 275 276 275 276 275 275 274 274 274 273 272 272 272 272
292 292 292 296 297 294 290 290 288 288 288 285 285 286 286 282 281 288 288 288 292 292 289 289 288 284 282 287 280 277 280 274 275 276 272 270 275 276 278 277 277 277 277 277 276 276 275 274 274 275 274 273 272 272
293 292 293 294 293 291 290 289 288 287 284 282 282 284 280 280 281 282 285 287 286 286 286 284 281 279 277 275 275 277 276 276 279 278 277 278 279 279 279 279 278 278 278 278 277 276 276 276 275 275 275 275 274 273
292 292 294 294 292 291 290 289 289 288 286 286 285 285 284 283 283 280 282 284 286 285 283 280 278 280 277 274 273 279 278 279 280 279 277 275 278 279 279 279 279 278 278 277 276 275 274 274 274 274 274 274 273 273
293 292 292 292 291 290 289 288 288 288 288 286 285 285 283 283 281 281 282 283 282 281 279 277 282 281 280 280 280 280 279 279 276 275 276 277 277 279 279 278 278 278 276 275 274 274 274 274 273 273 272 272 271 270
293 293 292 291 290 290 289 288 288 287 289 289 288 287 282 279 278 279 281 280 280 277 277 278 280 281 280 279 280 279 279 279 279 278 278 278 274 275 276 277 277 275 275 274 274 273 272 272 272 271 271 271 271 270
293 293 291 289 287 288 289 290 290 290 286 288 287 285 280 278 279 282 278 279 277 277 280 280 280 280 280 280 281 280 280 279 277 277 277 276 276 276 275 275 275 275 274 273 273 272 271 271 270 271 270 271 271 270
291 288 285 284 287 288 285 286 290 290 289 287 286 284 282 279 282 278 279 279 277 278 279 279 279 278 278 278 276 277 277 278 276 275 275 275 273 272 274 273 273 273 273 272 272 272 271 270 270 270 270 270 269 269
286 282 282 284 283 283 283 282 283 284 281 281 281 281 282 282 278 277 278 276 276 273 272 277 277 276 273 268 274 276 277 277 275 273 274 275 273 271 271 271 271 271 272 272 271 271 271 270 270 269 269 268 269 268
282 278 284 283 284 284 284 282 280 281 279 280 280 282 281 276 276 276 278 273 272 268 269 274 274 274 274 276 273 274 275 276 276 274 272 273 274 274 271 269 269 269 270 269 269 269 269 269 269 269 268 268 268 268
279 277 283 282 284 286 283 282 283 281 278 280 278 277 274 274 274 277 273 272 273 278 279 278 278 276 274 274 275 275 275 275 275 273 271 272 272 272 272 271 270 269 268 268 267 267 267 267 267 267 267 266 266 266
279 278 280 275 275 276 274 272 272 275 276 280 277 272 273 274 275 275 272 276 279 279 279 278 277 277 275 275 275 274 273 272 271 270 270 269 269 269 269 269 268 268 267 267 267 267 266 266 266 265 265 265 266 265
275 273 275 272 272 273 275 272 273 275 276 274 270 270 273 274 272 273 274 275 277 277 273 271 271 273 272 272 272 272 272 271 271 262 260 259 267 268 268 267 267 267 266 266 266 266 266 266 265 265 265 266 266 265
276 271 272 268 270 273 270 269 270 268 272 271 273 274 272 272 273 274 275 275 275 273 272 272 271 272 271 271 270 270 271 271 272 272 263 260 268 268 267 266 266 266 265 265 265 265 265 265 264 264 264 264 264 264
273 269 270 271 272 270 270 269 272 270 264 265 265 267 268 272 273 273 273 274 274 273 272 271 271 272 272 271 271 269 268 269 270 270 270 269 268 267 266 265 265 265 264 264 264 264 264 264 264 264 263 263 263 262
266 266 270 272 272 270 266 265 266 267 266 266 268 261 264 266 266 269 271 273 273 272 273 273 272 271 271 271 270 271 271 268 268 267 267 267 266 265 265 265 265 264 264 264 264 264 264 264 263 263 263 262 262 261
266 264 264 268 272 272 270 268 268 269 268 270 269 266 261 263 267 268 271 273 274 275 274 273 272 272 271 270 269 268 267 267 266 266 265 265 264 264 264 264 264 263 263 263 263 263 263 262 262 262 261 261 261 261

GFSWCAN_925_thetae_084.txt.gz
Theta_e
292 292 293 293 292 292 293 293 293 293 294 294 294 294 294 295 295 296 294 293 293 292 290 293 295 294 294 294 295 295 296 296 301 303 304 303 303 304 305 304 306 307 308 307 308 309 308 309 313 314 311 304 301 300
291 292 293 293 292 292 292 293 293 293 293 294 294 294 295 295 296 297 294 294 293 292 290 293 294 295 295 294 294 295 297 299 300 303 302 302 303 302 304 306 304 309 308 308 307 308 305 302 304 302 301 300 302 299
292 292 294 293 292 292 292 293 293 293 293 293 294 296 296 295 296 297 295 294 293 295 294 291 292 293 293 294 295 296 297 299 299 299 302 304 306 306 308 303 303 298 302 304 309 304 301 300 298 296 295 295 295 295
292 293 293 292 292 292 292 292 292 292 293 294 296 297 297 296 296 297 295 294 294 292 293 290 292 292 294 294 294 295 298 299 299 299 301 302 302 305 306 301 297 297 298 299 306 304 300 296 295 294 293 292 290 290
292 293 292 292 292 292 293 293 292 293 294 296 297 298 298 296 297 297 296 295 294 293 289 291 293 294 296 295 294 295 296 297 297 296 302 299 303 305 302 300 294 295 296 298 301 300 298 295 292 291 290 288 288 288
292 292 292 292 292 293 292 292 293 294 296 297 298 299 299 298 297 297 294 295 294 294 294 291 291 293 296 295 294 294 295 296 297 301 303 300 303 304 303 298 293 293 293 295 298 295 293 291 289 288 287 285 285 285
292 292 291 292 292 292 292 292 293 294 296 298 299 299 299 298 298 297 297 297 295 294 296 294 293 293 299 297 295 295 297 298 297 301 300 301 301 300 297 295 292 291 293 293 292 296 293 291 289 287 285 284 283 281
291 291 291 292 292 292 292 293 294 295 297 298 298 299 299 298 297 297 297 297 294 294 296 295 293 294 299 296 298 295 297 298 300 301 300 303 298 296 294 291 290 289 291 291 290 290 289 288 287 286 285 284 282 281
291 291 291 291 292 293 294 295 295 296 298 298 299 299 299 297 297 297 298 295 295 295 295 296 296 294 298 300 300 299 298 297 297 301 302 299 294 290 290 289 287 287 286 287 288 287 285 285 284 283 283 283 282 281
290 291 291 292 292 294 296 297 296 297 298 299 299 295 293 295 298 297 295 294 295 295 298 292 292 296 299 299 298 297 299 300 305 303 295 293 288 288 286 285 284 284 284 284 288 286 286 284 283 282 281 281 280 279
292 292 292 294 295 296 297 297 298 297 298 297 294 295 296 297 296 295 296 297 296 297 295 296 294 295 299 301 300 299 301 302 305 304 302 294 289 288 285 284 282 282 282 282 282 282 281 281 281 280 279 278 277 275
292 293 295 296 297 298 298 298 298 298 296 296 297 297 296 296 296 298 296 297 297 295 295 296 297 297 299 297 300 301 302 302 304 299 296 288 287 285 284 283 281 280 280 280 280 280 279 279 278 277 276 275 273 272
295 297 297 297 298 298 299 298 298 298 297 297 297 295 298 297 299 294 298 298 296 291 295 299 300 299 298 299 300 302 303 302 296 290 289 284 285 284 282 281 280 280 279 278 277 276 275 274 274 274 272 272 273 272
298 299 299 299 299 299 300 299 298 297 298 296 296 295 296 296 291 292 294 290 290 298 298 299 300 300 298 300 300 295 295 299 296 292 289 283 282 281 280 280 277 274 273 273 271 272 272 272 271 273 273 273 273 272
298 297 296 298 299 299 300 298 297 297 293 293 292 294 287 287 288 293 294 295 295 295 298 298 297 299 294 294 294 296 298 297 290 288 278 279 279 278 275 274 272 270 270 270 272 272 272 273 273 272 273 273 272 272
296 295 294 295 294 293 292 294 294 290 289 290 286 287 288 289 292 293 294 295 294 295 295 294 294 292 293 294 296 294 293 291 282 273 274 277 275 275 274 274 273 273 273 272 273 273 273 273 273 273 273 273 273 273
296 293 294 295 294 294 294 292 290 289 289 287 284 283 281 282 289 290 291 291 291 296 295 291 291 293 292 289 289 285 284 278 274 276 274 274 275 273 272 272 273 273 273 273 273 274 274 274 273 273 272 272 272 272
294 294 292 294 296 295 289 289 289 289 287 285 285 285 285 281 287 287 286 287 292 291 290 290 289 286 285 290 283 276 275 273 272 276 272 269 273 274 275 274 275 275 275 276 275 275 274 274 273 274 273 272 272 271
292 292 292 292 291 291 290 288 288 287 285 283 283 282 281 280 284 284 284 285 285 284 285 283 282 280 278 274 273 271 275 275 278 275 271 275 277 277 277 277 276 276 277 277 276 276 275 275 275 275 275 274 273 272
293 293 292 292 292 290 290 288 288 287 286 285 283 284 282 281 281 282 283 285 285 285 283 280 277 278 275 273 273 278 277 278 279 278 275 274 277 278 278 278 278 278 277 276 276 275 274 274 274 273 273 273 273 272
293 293 294 292 291 289 287 288 288 287 287 285 284 284 283 283 281 280 281 282 281 281 278 276 281 280 277 278 279 279 279 279 275 275 276 275 276 278 277 277 277 277 276 275 274 273 274 273 273 272 272 271 270 270
291 292 291 291 290 289 287 287 288 286 287 288 287 285 281 279 278 278 280 280 278 276 275 280 281 279 279 278 278 278 278 278 278 278 278 277 275 274 275 277 277 274 275 275 274 273 273 272 272 271 271 271 270 270
292 292 290 289 288 285 287 289 287 288 285 287 285 283 279 278 278 281 278 278 275 276 278 279 279 280 279 279 279 279 279 278 276 276 277 276 276 276 276 276 276 275 274 273 273 272 271 271 270 270 270 270 270 270
290 287 288 288 289 288 287 286 289 288 288 286 284 282 280 278 280 277 277 277 275 278 279 279 279 278 278 278 276 276 277 277 275 274 275 275 272 272 273 273 273 273 273 272 272 271 271 270 270 270 270 269 269 269
288 284 285 286 285 286 286 283 281 282 281 279 280 279 280 280 275 274 277 275 275 275 274 277 277 277 273 271 273 275 276 278 274 272 273 275 272 271 271 271 271 272 272 272 271 271 271 270 270 269 269 268 268 268
283 280 283 283 283 284 283 282 278 278 277 277 277 280 277 274 276 276 277 272 274 270 270 273 273 274 274 275 273 275 275 276 276 273 272 273 273 273 271 269 269 270 270 270 269 269 269 269 268 268 268 268 267 267
278 278 282 280 282 284 279 278 280 278 276 278 277 275 273 276 274 275 273 271 272 276 277 278 278 276 274 274 274 274 275 275 276 273 272 272 272 272 272 271 270 270 269 268 267 267 267 267 266 266 266 266 265 265
277 276 280 273 274 275 271 270 270 273 274 279 276 272 274 274 275 273 273 275 276 277 276 276 277 277 276 275 274 274 273 272 271 270 269 269 268 269 269 269 269 268 267 267 267 266 266 266 266 265 265 265 265 265
273 270 274 271 271 271 272 270 271 274 276 273 270 269 272 272 270 271 274 274 276 277 273 271 271 274 273 272 272 273 272 272 271 262 260 259 267 268 268 268 267 267 266 266 266 266 266 266 265 265 265 264 264 264
273 269 270 266 268 271 269 268 268 267 271 270 271 273 271 270 271 273 274 274 275 274 273 273 272 273 270 271 269 269 270 271 271 271 263 262 269 269 268 267 266 266 265 265 265 265 265 264 264 264 264 263 263 263
271 268 269 269 269 268 268 266 269 268 263 263 261 264 266 269 272 271 272 272 272 272 272 270 270 271 271 270 271 270 269 270 271 271 271 270 269 268 267 266 265 264 264 264 264 264 264 264 264 264 263 263 263 262
264 264 268 269 270 268 265 263 264 266 266 268 266 259 262 265 265 268 270 271 271 271 271 272 272 271 271 271 270 270 270 269 268 268 267 267 266 265 265 265 264 264 264 264 263 263 263 263 263 262 262 262 261 261
262 262 262 266 270 269 266 266 267 269 267 268 268 260 257 262 267 266 270 272 273 274 273 272 272 271 271 271 271 269 268 267 267 266 266 265 265 264 265 264 264 264 264 263 263 263 263 262 262 262 262 261 261 261

GFSWCAN_925_thetae_087.txt.gz
Theta_e
293 293 292 292 293 293 293 294 293 293 293 293 293 294 294 294 294 296 295 294 293 292 291 293 294 295 294 294 295 296 297 298 301 303 304 304 304 305 306 306 306 307 308 308 306 308 307 303 308 310 308 301 300 297
292 292 292 292 293 292 293 293 292 291 291 292 293 294 294 295 295 296 295 294 292 293 293 292 293 293 293 294 295 296 297 299 301 300 302 304 303 304 304 307 304 309 305 304 309 308 301 299 299 297 298 298 298 296
291 292 292 293 293 293 292 291 290 291 292 293 294 293 294 295 295 296 295 294 292 294 294 292 293 293 292 293 294 296 297 299 300 299 300 304 304 306 307 302 301 297 297 302 302 300 297 296 295 294 293 292 292 292
291 291 292 292 293 293 291 291 290 292 293 293 292 294 295 296 295 296 296 294 293 291 292 292 292 292 293 293 293 294 295 298 299 299 299 303 301 304 303 299 297 295 296 297 302 300 297 293 292 291 291 290 289 288
290 291 292 292 293 292 292 292 291 292 292 292 294 295 296 297 296 297 296 295 294 293 293 293 292 293 295 294 293 293 294 296 297 298 300 302 303 305 301 297 294 294 295 297 297 296 293 291 290 288 287 287 287 286
291 291 291 292 292 292 292 292 292 292 292 294 295 296 298 298 297 296 294 295 295 293 295 293 292 293 294 294 293 294 294 296 298 299 301 302 302 304 302 297 293 292 294 293 296 292 290 288 287 287 285 284 283 283
291 292 292 291 291 291 292 292 291 292 293 295 296 298 298 298 297 296 297 296 295 294 295 294 295 293 296 295 294 295 295 298 299 300 302 302 300 299 297 296 291 290 293 291 292 292 290 289 287 286 284 282 281 280
291 292 291 292 291 292 291 291 291 293 294 295 297 299 299 299 297 296 297 296 294 294 294 296 295 295 297 298 299 296 296 298 301 301 300 303 297 296 294 291 289 288 290 290 288 288 288 286 285 284 283 282 282 281
292 291 292 291 291 291 291 292 293 293 294 296 298 298 298 296 296 296 296 295 295 295 296 295 295 297 297 300 300 299 299 300 298 302 302 300 294 292 291 289 287 286 286 287 287 286 285 284 283 283 283 282 281 280
291 291 291 290 290 290 291 293 294 295 295 297 298 296 294 295 297 295 294 294 295 295 297 295 293 296 298 300 299 299 300 300 301 302 295 295 289 287 286 285 284 284 284 286 288 286 285 283 282 282 281 280 279 278
291 290 290 291 291 291 292 293 295 296 297 297 295 296 296 296 296 294 296 297 297 297 296 297 294 296 299 301 300 297 302 302 304 304 303 296 291 288 285 283 282 282 282 282 282 282 282 282 281 280 279 277 276 275
290 290 291 292 292 293 294 295 297 297 297 295 296 296 297 296 297 298 297 297 297 297 295 296 296 297 299 299 300 301 303 302 304 299 299 297 288 286 284 282 281 281 280 280 280 280 279 279 278 277 276 274 273 272
292 293 293 292 294 294 296 297 297 297 297 297 295 295 297 297 299 296 295 298 296 294 292 297 299 298 299 299 301 303 304 304 298 298 298 288 286 284 282 281 280 279 278 277 277 276 275 274 274 273 272 271 271 271
291 292 293 294 295 296 296 297 298 296 296 297 298 297 296 296 295 292 294 295 293 293 295 298 300 300 298 300 301 301 298 299 300 299 297 287 284 282 281 280 278 275 274 273 273 272 272 271 270 272 272 272 272 271
293 296 297 297 297 297 297 298 298 296 292 295 294 295 291 288 288 292 291 295 294 295 298 299 299 299 297 298 296 297 300 300 299 298 286 283 281 279 277 275 274 272 271 271 271 271 271 272 271 270 271 271 272 271
295 295 296 298 298 299 298 298 294 291 289 290 288 286 286 290 294 294 293 295 294 296 296 296 297 299 298 295 298 299 298 297 292 282 278 278 276 276 275 275 273 272 272 271 272 272 272 273 272 272 272 272 272 272
294 292 292 295 296 295 294 294 290 289 289 287 282 277 280 283 289 290 292 292 291 297 299 294 295 297 293 292 293 289 292 285 278 278 278 277 277 275 273 273 273 273 273 273 273 274 273 273 273 273 273 272 272 272
292 292 292 292 293 292 290 289 289 288 286 284 284 281 283 281 287 288 287 288 292 293 293 294 291 293 293 294 291 283 279 276 277 278 277 275 274 273 275 274 274 274 274 274 274 274 274 274 274 274 273 273 272 272
293 293 294 294 294 291 290 288 288 287 285 283 284 284 283 283 284 284 285 286 286 287 288 286 287 289 288 281 280 277 278 279 279 276 275 274 275 275 275 275 275 275 275 275 275 275 275 274 274 274 274 273 273 272
293 293 294 293 291 290 290 289 288 288 287 287 286 286 285 284 283 283 284 285 285 286 286 285 284 282 281 278 277 280 278 279 279 279 277 276 275 276 275 276 276 276 276 276 275 275 274 273 273 272 272 272 272 271
292 292 291 291 290 289 288 289 288 287 287 286 284 285 285 283 282 282 283 282 283 282 282 279 281 279 276 276 278 279 279 280 280 279 279 277 276 276 276 276 277 277 276 275 274 273 273 273 272 272 271 271 270 270
291 291 291 290 289 288 288 286 287 286 287 288 287 285 284 283 281 281 281 281 280 279 278 282 280 279 279 279 279 279 278 278 277 277 277 277 277 276 276 276 275 274 274 274 273 273 272 272 271 271 271 270 270 270
292 291 290 289 286 284 287 288 287 287 285 287 285 284 281 280 280 281 280 279 278 277 278 280 279 279 278 278 278 278 279 278 277 276 276 276 276 276 276 275 276 274 272 272 273 272 271 271 270 270 270 270 269 269
290 287 288 288 285 283 285 284 288 288 287 286 284 282 281 280 280 279 280 279 278 278 279 279 279 279 278 278 277 277 276 277 274 274 275 274 273 271 273 273 273 273 273 273 271 271 271 270 270 269 269 269 268 268
288 284 287 285 284 281 283 283 282 283 281 279 280 280 280 280 279 277 280 277 277 278 277 278 278 278 276 274 274 274 276 277 275 274 273 275 272 271 271 271 271 272 272 271 271 271 270 270 269 269 268 268 268 267
286 282 286 287 285 284 283 282 278 278 278 277 278 280 278 278 277 279 279 275 276 274 275 276 276 277 276 276 275 275 275 276 276 273 272 273 274 273 270 270 270 270 270 270 269 269 268 268 268 267 267 267 266 266
284 283 282 280 282 283 278 277 279 278 276 279 279 279 277 278 278 277 274 272 275 275 277 277 278 277 275 273 274 274 275 275 276 274 272 272 272 272 272 271 270 270 269 269 268 267 267 267 266 266 265 265 265 265
279 277 280 274 274 274 272 270 270 272 275 278 277 273 279 277 277 274 274 273 274 276 276 276 277 277 276 274 274 274 273 273 272 271 270 270 270 270 270 270 270 268 267 267 267 266 266 266 266 265 265 265 265 264
273 271 275 271 271 271 271 270 272 275 275 273 272 272 273 273 270 270 273 273 274 277 273 271 271 273 273 272 272 272 272 271 270 266 266 267 266 267 268 267 267 267 266 266 266 266 265 265 265 264 264 264 264 263
273 269 270 266 268 271 270 269 270 269 271 270 272 272 271 270 270 271 272 273 273 273 273 273 272 273 270 270 268 269 270 271 271 271 268 268 269 269 268 267 267 266 265 265 265 265 264 264 264 264 264 263 263 263
270 268 269 269 269 269 268 267 267 267 264 265 262 267 269 269 271 270 271 272 272 272 272 270 270 272 272 270 270 269 269 270 271 272 271 271 270 268 267 266 265 265 265 264 264 264 264 264 264 263 263 262 262 261
264 264 268 269 270 269 266 264 264 268 269 269 268 261 264 267 269 269 269 270 270 270 270 272 271 270 271 271 271 271 271 270 269 268 268 268 267 266 265 265 265 264 264 264 263 263 263 263 262 262 262 261 261 261
261 261 262 266 269 268 265 267 267 270 268 269 269 262 260 265 270 267 269 270 272 272 272 272 271 271 270 270 270 269 268 268 267 267 266 265 265 265 265 264 264 264 264 264 263 263 263 262 262 262 261 261 260 260

GFSWCAN_925_thetae_090.txt.gz
Theta_e
293 293 293 293 292 293 293 293 293 294 294 293 293 293 293 294 294 296 296 295 294 295 297 296 296 297 296 296 298 298 301 301 303 305 306 305 306 306 307 308 308 309 310 310 307 309 311 300 307 309 303 301 300 297
293 293 293 292 292 293 293 292 293 293 293 292 292 292 293 294 294 295 296 294 293 294 297 295 295 295 295 295 296 298 300 300 301 302 303 305 305 307 306 310 306 310 304 307 305 304 299 297 297 296 296 296 296 295
292 292 292 292 292 293 293 293 293 292 291 291 292 293 294 295 295 295 296 294 292 294 295 297 297 295 294 295 295 297 298 300 300 300 301 303 305 306 310 307 305 301 299 305 305 299 297 296 295 293 293 292 292 291
292 291 291 292 293 292 293 293 291 290 291 292 293 293 293 295 295 296 296 294 294 295 297 298 294 296 294 295 295 295 296 296 297 298 300 303 305 305 305 302 302 298 298 299 301 299 298 293 292 291 291 290 288 288
291 290 290 291 293 292 293 292 291 290 292 293 293 292 293 295 296 296 296 295 295 296 298 298 297 295 296 296 296 296 296 297 298 300 301 304 303 305 301 300 298 295 296 300 301 296 295 292 290 289 288 287 287 287
291 289 289 291 292 292 292 291 292 291 292 292 292 294 295 295 296 296 295 295 295 294 298 299 297 297 297 297 297 297 297 298 299 300 302 303 303 304 306 301 294 294 294 294 296 292 291 289 288 287 286 285 284 284
290 290 291 291 292 292 291 290 291 292 292 292 293 295 296 298 297 297 298 298 296 295 297 297 299 298 298 298 298 299 298 300 300 301 302 303 302 302 301 300 293 293 292 293 293 292 291 289 288 286 285 283 283 282
290 290 291 291 291 291 290 290 292 292 292 293 295 296 298 298 297 296 297 296 295 295 295 297 299 299 299 301 302 300 300 300 301 301 302 303 300 299 296 292 290 290 291 290 290 290 289 288 286 286 285 284 284 283
291 291 291 291 291 291 290 291 291 291 292 294 295 298 297 296 295 297 295 294 294 297 298 296 299 301 299 300 302 301 301 302 302 302 302 301 300 298 293 291 289 288 289 289 288 288 287 287 286 286 285 285 284 283
290 291 291 291 291 291 290 291 291 292 294 295 297 296 295 295 296 294 295 296 296 297 297 298 298 301 301 300 301 301 301 302 301 303 301 302 295 289 288 287 287 287 287 289 289 288 287 286 285 284 283 282 282 280
290 291 291 291 291 290 289 290 292 294 294 295 294 296 296 296 295 295 298 298 297 298 298 298 299 301 301 302 302 300 303 302 303 305 304 303 298 290 287 286 285 285 285 286 286 285 285 285 284 282 281 280 279 278
290 291 291 291 291 291 291 292 293 294 296 295 297 296 296 297 299 300 299 298 298 299 299 298 297 299 300 299 302 300 301 303 306 302 304 305 293 288 286 285 284 284 283 283 283 283 282 282 281 280 279 277 275 273
291 291 291 291 291 291 292 293 293 295 297 296 297 296 299 299 301 300 299 299 300 299 299 298 298 300 300 300 302 304 306 306 301 305 305 297 289 287 285 284 283 282 281 281 280 280 279 278 277 276 274 273 273 271
291 291 291 291 291 292 293 293 294 297 297 297 300 300 299 300 300 301 301 303 301 300 299 298 300 301 301 300 304 305 303 302 303 304 305 293 288 286 284 283 282 280 279 278 277 276 275 274 273 272 272 272 272 271
291 292 292 292 292 292 293 294 296 296 293 300 299 301 298 299 296 297 296 297 296 299 301 301 301 301 302 303 301 301 302 302 302 305 296 290 286 284 282 280 278 276 276 276 275 274 273 273 273 272 271 272 271 270
291 291 292 292 293 294 295 295 295 293 292 293 293 296 293 297 297 297 297 296 297 299 301 302 301 302 303 302 301 302 303 304 302 293 289 286 282 281 280 278 277 276 276 276 275 275 274 274 274 273 272 271 271 271
293 293 296 297 296 295 296 293 291 291 293 291 292 289 293 297 300 296 296 296 294 300 304 302 302 303 297 301 301 298 302 296 288 287 286 284 281 279 277 276 275 276 276 276 275 275 274 273 273 275 276 274 274 272
292 295 297 297 297 292 291 289 290 290 290 290 293 291 290 290 294 294 292 293 296 299 298 300 298 299 301 302 301 293 287 284 286 285 283 281 279 277 277 277 277 277 276 276 276 275 275 276 278 278 276 275 274 274
292 292 295 296 295 291 291 289 290 290 289 289 288 288 289 289 288 289 290 290 290 291 294 294 297 300 300 293 291 288 285 285 284 282 281 279 278 278 278 277 277 277 277 277 278 279 278 277 277 277 276 276 276 275
292 292 293 293 294 291 291 289 289 290 291 290 289 290 289 289 288 289 290 290 291 291 293 295 295 291 290 287 285 286 285 284 283 282 281 280 278 278 279 279 280 279 279 279 278 277 277 276 275 275 274 274 275 274
293 291 290 290 290 290 291 290 290 290 289 289 288 289 289 288 289 290 290 287 291 290 292 287 287 284 281 281 283 283 283 283 285 284 283 282 280 281 280 280 279 280 280 279 279 277 276 277 275 274 274 273 272 272
292 290 291 290 291 290 290 289 290 289 290 290 290 289 291 291 291 289 286 290 289 286 285 286 284 283 282 283 283 283 282 282 282 281 281 280 282 281 281 280 280 280 279 279 278 277 276 275 273 272 272 272 271 271
292 291 291 290 290 290 290 290 291 290 291 290 289 289 289 289 287 284 289 286 285 282 282 283 282 282 282 281 281 281 281 282 282 282 281 281 281 280 280 279 279 279 278 277 276 275 275 272 271 271 271 271 271 271
290 289 290 291 291 290 291 291 291 290 290 290 290 289 287 288 285 287 290 287 284 282 282 282 282 282 282 281 283 281 281 282 281 281 280 280 279 278 278 277 276 276 276 275 274 273 272 272 270 271 270 270 270 270
291 288 289 290 289 290 290 290 290 290 290 289 288 288 287 286 288 288 289 286 283 283 283 282 283 284 284 284 281 279 279 280 281 280 278 279 277 276 275 274 274 273 272 274 273 273 272 270 269 270 270 269 269 269
288 285 289 290 290 291 291 290 290 289 288 288 288 287 287 288 288 292 287 284 284 283 283 283 284 284 283 282 281 280 278 279 279 279 276 276 277 277 276 276 275 273 271 272 272 272 271 269 269 268 269 268 267 266
288 286 284 281 285 287 288 287 286 288 288 289 288 286 288 291 292 285 280 279 282 281 282 282 282 283 281 279 277 276 276 276 277 276 274 273 272 273 275 275 274 273 270 270 269 269 269 268 268 267 267 267 267 266
282 282 286 280 281 281 282 283 285 285 284 283 286 287 289 288 286 279 278 276 278 278 277 277 280 280 278 276 274 273 272 273 273 272 271 271 271 271 271 271 271 270 269 267 267 267 267 267 267 267 266 266 265 265
280 278 280 276 277 278 278 279 280 279 277 280 283 281 279 276 274 275 275 275 276 277 276 275 272 272 271 271 272 272 272 273 273 273 274 274 272 269 268 268 268 267 267 266 266 266 266 265 265 265 265 264 264 263
278 276 277 275 276 278 276 275 276 275 275 275 276 276 275 274 272 272 274 275 277 279 277 275 273 274 273 273 270 269 270 271 272 274 275 274 273 269 268 267 267 266 266 265 265 265 265 265 264 265 264 264 264 264
276 277 277 277 277 276 275 273 273 273 274 275 274 277 276 275 273 271 272 272 272 272 273 273 273 273 273 273 273 272 272 271 271 272 272 271 270 268 267 267 266 266 265 265 265 264 264 264 265 264 264 263 262 261
276 276 276 277 276 275 274 277 277 277 277 278 276 274 274 277 277 274 269 271 273 274 273 274 273 271 271 272 272 272 272 271 270 269 269 269 268 267 266 266 265 265 264 264 264 264 263 263 263 263 262 262 261 260
274 275 275 277 276 277 275 276 277 277 277 278 276 274 273 276 277 272 268 270 272 273 272 271 272 271 271 271 271 270 270 269 268 267 267 266 266 266 265 265 265 265 264 264 263 263 262 262 262 261 261 260 259 258

GFSWCAN_925_thetae_093.txt.gz
Theta_e
295 295 294 294 294 293 293 293 294 294 294 293 293 293 293 294 295 297 297 296 297 299 299 299 299 299 299 299 301 301 304 304 304 306 306 307 307 306 309 309 309 310 312 312 311 311 314 300 306 307 301 300 300 296
294 293 293 293 293 292 293 293 293 293 294 293 293 293 293 293 294 295 297 296 295 295 299 297 297 298 298 298 299 300 301 303 304 304 304 306 308 309 308 313 307 310 305 307 305 304 300 297 298 296 297 297 297 295
294 293 293 292 292 292 292 293 293 294 293 292 292 292 293 293 294 295 297 295 294 296 297 299 300 297 296 297 297 300 302 301 301 300 301 305 307 308 310 308 309 304 302 307 304 300 297 296 295 294 293 292 292 292
293 292 292 292 291 292 292 293 293 293 292 291 291 292 293 294 295 295 297 296 296 297 299 300 296 298 298 297 297 297 299 299 300 301 302 305 307 306 307 305 303 299 301 302 301 300 297 293 292 292 291 290 289 289
292 292 292 292 292 292 292 292 293 292 291 292 292 293 293 293 295 296 297 297 296 297 299 300 299 298 298 299 299 298 299 300 301 302 303 305 305 306 305 304 300 297 297 301 301 298 296 292 290 290 289 288 289 288
292 291 290 291 291 292 293 293 291 291 291 292 293 293 293 294 296 297 296 298 296 296 298 300 300 300 299 300 300 299 299 301 300 301 302 303 304 305 307 303 295 295 295 297 296 293 292 290 289 288 287 286 286 286
291 290 289 289 291 292 292 292 291 291 291 292 292 292 294 295 296 297 299 298 297 296 299 299 301 300 300 301 301 301 300 301 301 302 303 304 304 303 304 304 295 294 294 295 295 294 293 290 289 287 286 286 285 285
291 290 290 290 291 292 292 291 292 292 291 292 292 294 295 296 296 296 298 297 296 297 298 298 301 301 300 301 302 301 301 300 301 303 303 304 303 301 299 294 293 293 292 292 292 291 290 289 288 288 287 286 286 285
290 290 291 290 291 292 291 290 291 292 292 292 294 295 296 297 296 298 296 296 297 298 300 298 301 303 301 301 302 303 302 303 303 303 303 303 304 300 295 293 292 291 292 291 291 291 291 290 289 288 288 287 286 285
290 290 290 290 291 292 290 290 291 291 291 293 295 295 295 295 297 295 296 297 297 297 299 300 301 303 302 302 303 302 302 303 303 304 304 304 297 292 290 290 289 290 291 291 291 290 290 288 287 286 286 285 284 283
291 290 290 290 291 291 290 290 291 292 293 294 293 296 296 296 296 298 299 300 298 298 299 298 300 302 302 303 303 302 304 304 304 306 306 305 301 293 290 288 288 289 289 290 289 289 288 287 286 285 284 282 281 280
291 290 291 291 291 290 291 290 290 293 294 295 295 295 295 296 300 301 300 300 299 300 302 300 299 301 302 302 303 302 302 305 306 304 306 307 295 291 289 288 287 287 287 287 286 286 286 285 284 283 282 279 277 274
291 290 291 291 291 291 291 291 291 293 296 296 298 297 298 300 303 302 300 300 302 302 302 300 300 301 302 301 302 303 303 306 305 306 307 300 292 290 289 287 286 285 285 284 284 283 283 281 280 278 276 275 274 273
291 291 291 291 291 291 291 291 292 293 295 297 300 302 301 301 302 303 303 306 305 303 302 300 301 302 302 302 304 304 305 304 306 307 307 296 291 289 287 286 286 284 283 282 281 279 277 276 275 275 274 273 273 273
290 291 291 291 290 290 291 291 293 294 293 299 301 302 301 302 300 300 300 300 300 302 302 301 302 303 303 304 304 304 304 305 304 307 299 293 289 287 286 285 282 281 279 279 278 277 276 275 275 274 274 274 273 272
291 291 290 290 290 291 292 293 293 292 294 298 298 299 298 300 300 301 299 300 299 301 302 303 302 304 304 304 303 303 304 305 305 297 293 289 286 285 284 282 280 279 280 279 277 277 276 276 276 276 274 274 273 273
291 291 291 291 292 292 292 292 291 293 297 296 296 293 299 300 304 302 301 300 298 301 306 303 303 303 303 303 303 303 305 299 294 291 289 287 285 283 281 280 279 279 279 279 278 277 277 276 275 276 277 276 275 275
291 291 291 292 291 292 291 290 293 294 295 294 297 294 293 293 298 297 295 296 299 301 301 303 301 303 304 306 306 299 293 291 290 289 287 285 282 280 280 280 279 280 279 278 278 277 277 277 280 281 278 278 277 276
292 294 294 294 292 292 292 291 292 294 293 292 291 292 293 293 292 292 293 295 295 296 300 300 303 303 305 300 298 294 291 290 288 286 284 282 281 281 281 280 280 280 279 279 279 281 281 280 280 279 279 278 279 278
296 296 295 294 295 292 292 292 292 293 294 293 292 293 294 293 292 292 293 294 296 298 301 301 301 298 297 292 292 292 290 288 286 285 284 283 281 281 281 281 281 281 281 281 281 280 280 279 278 278 277 276 276 277
290 290 292 294 291 291 292 293 293 293 291 293 292 293 292 291 293 294 294 293 296 299 300 296 293 289 286 287 289 288 287 287 288 288 286 284 282 283 282 283 282 282 283 282 282 281 279 280 279 277 276 276 275 275
291 291 291 291 292 291 292 292 293 292 293 292 292 294 293 294 294 294 292 295 296 294 293 292 290 287 286 287 286 287 286 287 287 286 285 284 285 284 283 283 282 282 282 282 281 280 279 278 277 276 275 276 274 274
292 292 292 291 292 292 291 292 292 293 293 293 292 294 294 294 293 290 295 294 293 288 287 288 286 286 286 285 285 285 285 285 285 285 284 285 284 284 283 282 282 282 282 280 279 279 278 276 274 274 274 274 274 274
291 291 294 294 293 292 292 292 292 292 292 293 294 293 293 293 290 293 296 295 290 286 287 285 286 286 285 284 285 284 285 285 285 284 284 284 283 283 282 281 281 280 280 279 278 277 276 276 274 274 274 273 273 273
294 291 293 292 293 293 293 293 293 293 293 293 293 293 292 290 294 295 295 294 288 287 286 286 287 287 288 287 285 284 284 285 284 284 283 283 282 280 280 279 278 277 276 277 277 276 276 274 274 273 273 272 272 272
292 288 292 293 293 294 294 294 293 293 293 293 293 292 291 294 294 296 293 290 287 287 286 287 288 288 287 286 285 283 283 284 283 283 281 281 281 281 280 279 278 277 275 275 276 275 275 273 272 271 271 271 269 268
292 290 288 286 290 291 292 292 292 293 293 293 292 292 293 295 297 291 284 284 286 285 284 285 286 286 286 284 283 281 281 281 282 280 278 277 277 278 279 279 278 276 274 273 273 272 272 272 271 270 270 270 270 269
286 287 289 287 287 288 289 291 292 292 291 290 293 293 294 294 291 282 282 280 283 283 284 284 285 284 283 281 280 278 276 275 275 274 274 274 273 273 273 272 271 272 271 270 270 269 270 270 270 270 269 269 268 268
285 284 284 281 284 285 285 286 287 284 282 286 292 288 284 280 278 279 278 279 280 280 280 280 280 279 278 278 278 278 277 277 277 278 278 277 274 272 271 271 270 270 270 269 267 267 267 268 268 268 267 267 267 267
282 282 283 281 282 284 281 280 281 279 279 280 281 279 279 277 275 276 277 279 281 282 280 279 278 278 278 278 276 275 275 275 277 277 278 278 276 272 270 270 269 268 269 269 269 268 267 267 267 267 268 267 267 267
281 283 283 283 282 280 279 278 278 278 279 280 280 283 281 278 276 275 276 277 279 279 279 279 279 279 278 277 276 275 274 271 272 273 273 272 271 271 270 268 268 267 267 267 267 267 267 267 268 268 267 266 265 265
282 282 282 282 280 278 279 281 281 281 281 282 280 279 279 281 280 277 273 276 278 280 279 279 278 278 277 276 274 274 274 271 270 270 270 270 269 267 267 266 266 266 266 266 266 266 265 265 266 266 265 265 264 263
280 281 281 281 280 281 279 281 281 281 282 282 281 281 281 282 280 276 272 272 277 277 278 276 274 272 271 271 271 270 269 269 268 268 268 268 267 267 266 266 265 265 265 266 266 265 265 264 264 264 263 263 262 261

GFSWCAN_925_thetae_096.txt.gz
Theta_e
296 296 296 296 295 293 293 294 294 294 294 293 293 294 293 295 295 296 298 298 298 299 299 300 300 300 300 300 301 301 305 304 304 306 305 307 309 309 310 308 309 307 311 310 312 313 310 298 302 303 301 299 298 295
296 296 295 295 294 294 293 293 294 294 294 292 293 293 293 294 294 295 298 297 297 297 299 297 298 298 299 299 300 301 302 303 303 302 303 305 308 309 311 311 306 307 305 307 303 303 298 296 297 295 295 295 294 294
295 295 294 293 294 293 293 293 293 293 294 293 293 293 293 293 293 295 298 297 295 296 299 300 302 300 298 298 298 301 303 301 301 301 302 304 309 307 309 307 309 304 302 305 304 299 296 295 294 293 292 291 291 291
294 293 293 293 293 292 292 292 293 293 294 293 292 292 292 292 294 295 296 296 297 298 299 301 298 300 299 299 298 299 299 300 301 302 302 304 308 306 307 306 302 299 301 302 300 298 295 292 292 292 291 290 289 289
294 293 292 292 292 292 292 293 293 293 292 292 292 291 292 294 294 296 297 297 298 298 299 300 299 300 299 300 300 299 299 300 302 302 304 305 306 305 307 304 298 297 296 300 299 297 294 291 291 290 289 289 289 288
294 293 292 292 292 292 291 292 293 293 291 292 292 292 294 293 294 297 296 298 298 297 298 299 300 301 300 300 301 300 300 300 301 301 303 304 305 304 306 302 296 295 296 297 295 292 291 290 289 288 288 287 287 287
293 292 291 292 292 292 292 293 293 291 291 291 293 293 293 293 296 298 299 297 298 297 299 300 301 301 300 300 301 301 300 301 302 301 303 304 304 304 304 302 295 294 295 296 295 293 292 291 289 288 287 286 286 285
292 291 290 290 291 292 292 293 291 291 291 291 293 292 293 295 296 296 298 297 297 297 299 298 300 302 301 302 303 302 302 302 301 302 304 304 304 302 298 295 294 293 293 294 292 292 291 290 289 289 288 287 286 285
292 291 290 289 290 291 292 293 291 292 292 292 292 294 295 295 295 297 297 296 297 299 300 299 300 306 302 302 303 303 302 304 303 305 305 304 305 300 296 294 293 293 294 292 293 292 291 290 290 289 288 287 286 285
291 290 290 290 290 292 292 290 291 292 292 292 295 295 294 294 297 296 296 298 298 299 299 300 301 303 303 303 304 304 304 304 304 305 304 305 297 293 292 292 291 291 292 292 292 291 290 289 288 287 286 285 284 282
291 290 290 290 290 292 292 290 291 292 292 294 294 295 296 296 297 299 298 300 299 299 299 299 301 303 302 304 304 303 304 304 304 306 306 306 300 293 290 290 290 290 291 291 290 290 289 288 286 285 284 282 280 278
291 291 290 290 290 292 291 289 291 293 294 294 295 295 295 296 298 301 300 300 300 300 302 301 300 301 303 303 303 303 302 304 305 305 306 307 296 292 290 289 289 289 288 288 288 287 286 286 285 283 281 278 276 274
292 291 291 290 291 291 291 290 291 293 295 295 296 296 298 300 300 300 300 300 302 303 304 303 301 301 302 302 303 304 302 304 305 307 306 299 294 291 290 288 287 287 286 286 285 284 282 281 280 278 276 275 274 274
291 291 291 291 291 291 291 290 290 292 293 296 299 301 301 301 301 303 305 307 306 306 303 302 301 302 303 302 302 302 306 304 306 307 306 296 293 291 289 288 287 285 284 283 281 279 278 276 275 275 274 274 273 273
290 290 291 291 291 290 290 290 292 293 292 297 298 302 301 303 302 300 301 302 303 303 302 302 303 303 304 303 303 304 305 305 305 307 300 294 291 289 287 285 284 282 281 280 278 277 276 276 275 275 275 274 273 273
290 291 292 291 290 291 291 291 292 292 291 297 299 301 302 302 300 301 301 299 301 303 303 303 303 304 304 304 304 304 305 306 303 297 293 290 288 287 285 283 281 281 280 279 278 277 276 276 276 276 275 274 274 273
290 291 291 290 290 291 291 292 292 292 296 298 299 297 300 302 302 300 301 301 300 303 305 303 303 302 304 303 304 305 305 300 294 292 290 288 287 284 282 281 281 281 280 280 279 278 277 277 276 276 277 275 275 275
291 291 290 290 290 291 292 292 292 296 297 297 298 296 297 297 298 298 298 299 300 301 302 303 303 304 305 306 306 300 294 293 292 290 288 286 284 282 281 281 281 281 280 279 278 278 278 277 278 280 279 279 278 277
291 292 291 290 292 292 293 291 292 297 295 294 294 294 295 295 295 296 295 296 297 299 300 302 301 303 306 301 298 295 293 291 289 287 285 283 282 282 281 281 281 281 280 279 279 280 281 281 281 280 280 279 280 280
291 292 291 291 291 293 294 294 294 295 295 294 294 294 295 295 294 295 295 295 296 299 300 301 303 299 298 294 296 295 292 289 287 285 284 283 282 282 282 282 282 281 281 281 282 282 281 280 279 279 278 277 277 278
291 291 292 292 292 291 294 295 296 294 293 295 295 294 293 292 293 294 295 295 297 299 300 300 295 290 289 290 291 290 289 287 288 287 285 284 283 283 283 283 282 282 283 282 282 281 281 281 280 279 278 278 277 276
290 293 292 292 292 292 293 294 295 294 294 293 294 294 294 294 294 295 295 296 298 299 297 296 293 288 289 289 289 289 288 288 289 287 285 284 285 284 284 284 283 284 284 284 283 282 281 280 278 277 277 277 276 276
292 293 292 291 293 293 293 294 294 294 294 294 294 295 295 295 295 294 295 296 296 293 292 291 289 289 288 288 288 288 288 288 287 286 285 286 285 285 284 284 284 284 283 282 281 281 280 277 276 275 276 275 276 275
292 292 295 295 295 294 293 294 294 294 294 294 295 295 295 294 293 294 296 297 293 290 290 288 288 287 287 286 287 287 287 287 286 286 286 286 285 284 283 283 283 283 282 281 280 279 278 277 276 275 275 275 275 274
296 292 294 294 294 294 293 294 294 294 295 295 296 295 294 293 294 296 296 295 291 290 289 288 288 288 288 289 287 287 287 286 286 286 285 284 284 283 282 281 280 279 279 279 278 278 277 276 275 275 274 273 273 273
294 290 294 294 295 296 295 295 295 295 295 295 295 295 293 295 296 297 296 292 290 289 288 289 290 289 289 287 286 286 286 285 285 284 284 283 282 282 281 280 279 277 277 277 278 277 277 275 274 272 272 272 271 270
293 291 290 289 293 294 295 295 296 295 295 295 294 293 294 296 297 291 287 286 288 287 287 287 288 289 288 286 285 285 284 284 284 282 280 279 280 280 280 280 280 277 276 275 275 274 274 274 273 272 271 271 271 271
289 290 290 290 291 291 294 294 294 295 295 294 294 294 296 296 292 285 284 283 286 286 286 287 287 287 285 283 281 280 279 278 278 277 276 276 275 275 275 275 275 274 273 272 272 271 272 271 271 271 271 270 270 269
288 287 286 287 288 289 289 291 291 287 285 289 295 292 286 281 281 281 281 282 284 284 284 283 282 281 280 279 279 278 278 278 278 278 278 277 275 274 272 272 272 271 271 269 269 269 268 269 268 268 268 268 268 268
285 286 286 284 285 288 284 283 284 282 282 283 283 282 280 279 277 278 279 281 282 283 282 281 281 280 280 279 279 279 279 279 279 279 280 278 276 273 272 271 270 270 271 271 270 269 269 269 269 269 269 269 268 268
285 286 287 286 285 283 281 280 280 281 282 283 285 285 280 278 277 277 279 280 283 282 280 280 280 280 280 278 277 276 275 273 275 276 276 274 272 272 271 270 270 269 269 269 269 269 268 268 269 268 268 267 266 266
285 286 285 284 282 280 281 283 284 284 282 283 282 281 280 282 281 278 276 277 281 281 281 281 280 280 279 277 277 277 274 272 272 272 272 272 271 269 268 268 268 268 268 268 267 267 267 266 266 266 266 266 264 263
284 285 284 283 281 282 282 284 284 283 284 284 283 283 284 284 281 277 275 275 279 281 280 277 276 275 275 274 273 272 272 271 271 271 270 269 268 268 267 267 267 267 267 267 267 267 266 265 265 264 264 264 262 261

GFSWCAN_925_thetae_099.txt.gz
Theta_e
297 297 297 297 295 294 294 294 295 294 293 294 293 293 293 294 295 296 297 298 297 297 296 299 300 299 298 297 296 298 300 301 299 302 303 305 309 309 310 306 307 305 307 305 306 305 304 295 297 298 299 296 294 292
296 296 297 297 295 294 293 294 294 294 294 293 292 292 294 295 294 296 298 298 296 295 295 296 296 296 298 298 297 297 303 301 299 299 300 302 307 307 308 307 304 304 306 302 302 300 296 294 293 293 292 292 292 292
296 296 296 295 294 293 292 293 294 294 294 292 293 293 293 293 293 296 297 297 295 295 294 297 300 300 300 299 298 299 302 299 299 300 299 302 307 304 306 304 303 299 300 300 300 295 294 294 292 291 290 290 290 289
296 296 295 294 294 293 292 293 293 293 294 292 292 293 293 293 293 294 296 296 296 297 294 300 299 299 299 298 298 299 298 299 299 299 301 303 305 303 304 302 298 297 298 300 298 294 292 291 291 290 290 289 288 288
295 294 292 293 293 292 293 293 292 293 294 294 292 292 292 292 293 294 296 297 297 298 297 296 297 299 299 299 299 299 299 298 298 297 299 303 303 303 299 299 296 296 295 297 295 294 291 290 289 289 288 288 288 287
294 293 292 292 292 292 292 293 293 293 292 292 292 292 293 294 294 296 294 297 297 298 296 294 298 300 300 300 300 300 299 298 298 297 298 301 303 299 301 296 295 295 294 296 294 290 288 288 288 288 288 288 287 286
294 293 292 292 292 292 292 293 293 292 291 292 292 293 293 293 295 297 297 297 298 297 296 295 296 300 300 300 299 299 299 297 298 298 299 302 302 299 295 294 294 295 295 294 292 291 290 290 288 287 286 286 285 284
293 292 292 292 292 292 292 292 293 291 291 292 293 293 293 294 295 296 297 298 297 296 297 298 296 299 300 299 299 299 299 298 298 299 300 302 301 296 295 294 293 292 293 292 291 290 289 289 288 288 286 285 284 283
293 292 290 291 291 292 293 293 291 290 291 292 293 293 295 295 295 295 297 296 297 297 297 298 298 301 299 300 300 299 298 294 299 299 301 301 303 295 295 294 294 294 294 293 292 290 290 289 289 287 286 285 284 282
292 291 290 290 290 292 293 292 291 291 291 292 294 294 294 294 296 297 296 296 296 298 298 296 296 297 301 297 297 298 299 297 300 300 301 300 295 293 293 292 292 292 292 292 291 290 288 287 286 284 283 282 280 278
292 291 290 289 290 292 293 291 290 291 292 294 294 295 295 296 297 297 296 297 294 297 297 296 296 295 299 297 297 299 296 298 300 302 303 304 296 292 291 290 290 291 291 289 288 287 286 285 284 282 280 278 277 275
291 291 290 290 290 292 291 289 292 292 293 294 295 295 295 295 296 298 294 295 299 297 297 299 295 297 299 300 296 298 300 297 300 300 302 301 294 290 289 289 287 287 287 287 286 285 284 283 282 280 277 275 274 273
292 291 291 289 291 292 290 290 291 293 294 294 295 294 297 297 299 298 295 297 294 295 297 295 294 299 295 299 295 300 300 300 301 299 301 297 292 289 288 287 286 286 285 282 281 280 279 278 277 276 274 274 273 273
291 290 290 289 291 292 290 290 292 293 293 295 296 298 297 297 298 295 295 295 295 295 295 295 295 295 294 295 299 301 299 301 303 298 302 293 291 288 287 286 284 281 279 278 277 276 275 275 275 274 274 273 273 272
291 291 290 290 291 291 290 290 292 292 292 295 296 299 293 295 298 298 298 298 298 294 294 294 295 295 296 299 299 300 301 301 299 303 296 291 287 285 283 282 280 278 277 276 276 275 275 275 275 274 274 273 273 272
290 291 291 291 292 291 290 291 292 292 292 294 296 300 300 298 298 298 298 299 297 295 293 295 296 296 297 299 301 299 301 298 299 294 291 287 285 283 281 279 279 279 278 277 276 276 275 275 275 275 274 274 274 273
290 291 292 291 290 290 291 290 292 292 294 296 297 294 297 299 299 296 297 297 298 294 298 297 298 298 300 301 302 302 298 297 292 290 288 287 283 280 279 280 280 279 278 277 277 276 276 277 276 275 275 274 274 275
290 291 291 291 291 291 290 291 292 294 294 295 294 295 296 295 297 296 296 295 297 296 296 298 299 300 299 300 298 296 293 291 289 288 286 284 281 280 280 280 280 279 279 278 277 277 277 276 276 277 278 278 277 277
291 291 290 290 290 291 291 290 291 296 295 293 292 293 294 294 293 293 291 295 296 297 296 295 297 298 298 297 297 293 291 288 286 285 283 282 281 281 281 281 281 280 279 278 278 278 278 278 279 280 280 279 278 278
291 291 290 289 291 292 293 293 292 295 292 291 293 293 293 293 292 293 293 293 295 296 298 295 294 295 295 293 292 292 287 285 283 283 282 282 282 281 281 281 281 280 279 279 279 281 281 280 279 279 278 277 277 277
291 291 290 290 291 291 293 293 294 294 293 294 293 293 292 291 292 292 294 293 295 292 292 291 293 285 289 290 291 289 286 284 283 282 282 282 281 282 281 281 281 280 280 281 282 281 281 281 279 278 278 277 277 276
290 291 291 291 292 291 292 293 294 292 293 292 293 293 293 293 293 293 293 294 295 291 289 289 287 283 285 286 288 287 286 286 286 283 282 282 282 282 281 282 281 282 282 282 282 281 280 279 278 277 277 277 276 275
291 290 290 291 292 292 293 293 294 293 292 293 293 294 294 295 294 292 294 294 293 289 291 287 288 288 288 289 288 288 288 287 285 283 282 283 283 283 284 283 283 284 284 283 282 281 279 278 277 276 276 275 275 275
292 292 293 292 292 292 292 294 294 294 293 294 294 295 294 294 292 293 294 292 288 287 286 286 287 286 287 287 285 287 287 286 284 284 284 284 284 284 284 284 284 282 283 281 280 279 277 277 276 275 275 275 274 274
293 292 294 294 292 292 293 292 292 293 289 291 294 294 294 292 293 293 292 290 289 284 283 287 286 285 282 281 285 287 287 285 284 285 285 285 283 283 283 281 279 279 279 279 278 278 277 276 275 275 274 273 272 272
294 291 293 293 293 292 292 292 291 292 294 295 295 293 288 292 293 294 291 290 290 289 288 288 287 287 285 286 284 285 285 286 285 284 284 284 283 281 278 276 277 277 277 278 278 277 277 275 274 273 272 272 272 271
292 291 289 289 292 294 293 293 293 292 292 294 294 290 293 294 292 287 283 283 286 288 288 288 288 288 286 285 285 286 285 284 283 280 280 281 282 281 280 278 278 276 276 276 276 275 274 273 272 272 271 271 271 270
288 289 289 291 290 289 294 294 293 293 292 293 290 292 293 288 285 281 281 283 286 286 287 287 288 286 282 282 283 282 280 280 280 279 279 277 277 278 278 278 276 276 275 273 273 272 272 272 271 271 270 270 269 269
287 288 287 288 289 287 288 289 290 286 283 286 290 287 282 280 280 280 281 282 286 285 282 281 280 281 280 280 280 279 279 279 278 273 270 268 273 272 273 274 273 271 271 270 270 270 270 270 269 268 269 269 268 268
286 287 286 285 284 286 281 280 281 279 280 282 280 280 278 277 278 279 280 282 283 282 281 281 280 279 279 278 279 277 278 278 278 277 273 270 273 272 272 271 271 271 271 270 270 269 269 269 269 269 269 268 267 266
285 287 287 286 283 282 280 278 280 280 279 281 283 278 274 274 278 277 279 280 281 281 281 280 280 279 279 278 276 275 274 276 278 279 278 276 273 272 271 270 270 270 270 269 269 269 267 268 267 267 267 266 265 264
285 286 284 283 281 281 280 281 281 281 279 279 279 275 276 277 275 275 277 278 280 280 280 280 280 279 278 278 277 277 276 274 275 274 274 273 272 271 270 269 269 269 268 268 267 267 266 266 266 265 264 263 263 261
284 284 282 280 279 280 280 283 283 283 283 283 277 277 280 279 275 272 276 277 278 280 278 277 277 277 277 277 275 273 273 273 272 272 272 271 270 269 268 268 267 268 268 267 267 266 265 265 264 263 263 262 260 259

GFSWCAN_925_thetae_102.txt.gz
Theta_e
296 296 295 294 294 294 295 295 294 293 293 293 294 292 293 294 295 297 297 297 296 288 293 297 299 297 295 295 294 296 297 298 298 299 301 303 307 308 306 305 306 304 305 303 303 303 303 293 294 298 296 294 292 289
297 297 296 295 294 294 294 294 294 293 294 293 292 293 294 295 296 297 297 296 296 292 293 296 296 297 296 297 295 296 300 298 296 298 299 301 304 304 305 306 303 302 302 300 299 297 294 292 291 291 292 291 291 288
296 296 297 296 294 293 294 294 294 293 293 292 292 293 294 294 295 297 297 296 295 291 291 295 299 299 299 298 298 297 299 297 298 298 298 301 307 303 306 300 299 297 298 297 296 294 293 292 290 289 289 289 288 287
297 297 296 296 294 293 293 294 294 294 293 293 293 293 293 293 293 295 296 296 296 294 292 295 297 298 298 299 298 298 297 297 297 296 298 301 304 302 303 298 295 295 295 297 295 293 291 290 290 289 288 287 287 286
296 296 295 294 293 292 293 293 293 294 292 292 292 292 292 292 293 294 295 296 297 296 293 294 296 298 298 298 298 298 298 296 295 295 296 302 302 302 299 296 295 295 294 295 294 292 290 290 289 288 288 288 286 285
295 295 294 293 293 293 293 293 293 294 293 292 291 291 292 293 294 296 290 297 297 297 292 291 294 297 298 299 299 299 297 296 295 296 296 298 302 298 299 296 295 294 291 293 290 289 287 287 287 287 286 286 285 284
292 292 293 292 292 293 293 293 294 294 292 292 291 293 294 294 296 297 295 297 298 297 294 295 294 297 300 299 297 297 297 295 296 296 297 301 300 296 288 287 294 295 290 289 288 288 288 286 287 286 285 284 283 283
292 292 292 292 292 293 293 293 292 292 291 291 293 293 293 294 295 296 297 297 297 296 295 292 294 295 299 297 297 296 297 295 295 296 297 300 296 290 288 291 291 291 291 291 290 289 287 287 287 286 284 283 282 281
293 292 292 292 291 292 292 293 292 291 293 293 293 294 294 294 294 295 297 297 297 297 296 293 292 296 297 297 297 296 295 292 295 296 298 300 300 293 288 290 289 291 292 290 289 289 289 288 287 285 284 283 281 280
292 291 291 292 292 292 293 292 290 290 292 293 294 293 292 293 296 296 296 293 295 297 297 294 292 294 300 293 294 295 295 295 300 298 298 296 294 293 293 292 293 292 293 293 290 289 288 287 285 284 282 280 279 277
292 290 290 291 292 293 292 291 290 291 293 293 294 295 296 296 297 296 295 296 293 296 294 293 296 291 296 295 295 296 293 295 299 300 302 301 295 292 292 291 290 291 289 289 289 287 286 284 282 281 279 278 276 275
291 290 289 289 291 293 293 290 292 292 293 294 295 295 295 295 295 297 295 293 296 296 293 298 292 295 295 297 294 296 296 295 298 300 303 301 292 291 290 289 287 287 286 286 285 284 283 282 280 279 277 275 274 272
291 290 289 290 292 293 290 290 292 293 294 295 295 295 296 296 297 297 294 295 290 291 294 291 292 297 293 295 292 295 298 293 299 301 303 294 290 289 287 286 284 283 282 282 281 280 279 278 278 276 273 273 273 272
290 290 289 290 292 292 290 292 293 294 294 295 296 296 295 295 296 291 290 289 291 290 292 290 291 294 290 293 292 298 295 300 302 298 298 291 288 287 286 285 283 280 279 278 277 277 276 275 274 274 274 273 273 273
290 290 289 290 292 291 290 292 292 292 291 294 296 295 294 292 296 297 297 292 291 288 291 292 292 292 291 297 298 299 300 302 296 295 292 289 287 285 283 281 278 276 275 275 275 274 274 274 274 273 273 273 273 273
290 290 291 290 292 291 291 291 291 291 292 293 295 298 297 297 297 297 298 298 295 291 289 292 293 291 292 292 300 297 298 295 296 293 288 286 284 281 280 279 278 276 276 275 275 274 274 274 274 274 273 273 273 273
291 291 291 291 291 291 290 290 291 291 291 294 297 292 296 297 296 296 296 296 294 292 297 293 295 294 296 298 298 295 292 293 291 289 287 286 283 277 277 277 276 276 275 275 275 275 275 275 274 274 274 274 274 274
291 291 291 292 290 290 290 290 291 293 292 292 294 294 294 294 296 295 294 294 296 293 292 296 294 296 299 297 294 295 292 289 287 287 285 282 279 278 278 277 277 277 276 276 276 276 276 276 275 275 276 277 276 275
291 292 291 290 289 289 285 288 290 293 293 292 292 291 293 293 292 290 291 293 294 293 293 292 296 293 288 294 295 291 290 282 286 281 283 281 279 279 279 279 278 277 277 277 276 276 277 277 278 278 279 279 278 277
291 291 291 289 289 291 291 292 290 292 290 287 292 292 292 292 291 292 292 292 294 295 297 294 291 292 292 286 287 289 282 282 282 281 280 280 279 279 280 279 279 278 278 277 277 278 277 278 279 278 278 278 277 277
291 291 290 290 291 291 292 291 291 291 289 290 290 292 289 290 291 292 293 293 294 295 291 286 286 280 286 288 291 286 284 283 282 281 281 280 280 280 280 280 280 278 278 278 278 279 280 280 279 278 278 278 277 277
291 290 290 290 290 290 290 291 293 290 290 290 293 292 289 291 292 292 292 293 294 289 286 286 285 282 283 285 286 286 284 284 283 282 281 281 280 280 280 280 279 278 279 279 280 280 280 280 279 278 277 277 276 275
290 290 290 290 290 289 288 292 292 291 290 293 292 291 290 291 292 292 293 293 289 284 286 285 286 287 287 288 287 286 285 284 282 281 280 281 281 280 281 281 281 280 279 280 281 281 279 278 277 277 276 275 275 275
290 289 291 290 289 286 289 292 293 294 292 294 294 292 293 293 292 292 293 288 283 282 283 285 286 285 285 286 283 285 286 284 282 281 281 281 280 281 282 282 281 281 282 283 282 280 278 277 276 275 275 275 274 274
288 287 292 293 291 289 289 291 291 292 288 288 289 287 292 290 290 292 291 285 284 281 277 284 284 284 281 277 282 285 285 284 282 281 282 282 282 282 281 281 281 282 281 280 279 278 277 276 275 275 274 273 272 272
293 288 289 291 285 288 289 289 288 289 289 291 287 287 283 291 292 289 288 288 288 287 286 286 284 283 283 285 281 284 284 284 283 282 283 283 282 280 277 276 276 278 279 279 278 277 276 276 275 274 272 271 271 271
291 290 288 288 289 290 285 285 289 286 285 287 289 284 291 293 292 284 280 282 284 287 288 287 287 286 283 283 284 284 284 284 284 281 281 282 282 282 282 279 276 277 277 278 278 277 276 275 273 272 271 270 270 269
284 284 286 285 285 286 285 285 284 285 283 288 288 290 290 289 283 277 276 282 283 286 287 288 288 287 285 284 284 283 281 281 280 280 280 279 279 279 279 279 278 276 276 275 275 274 273 273 272 271 270 270 268 268
282 283 284 284 284 285 283 288 287 281 280 282 283 279 276 276 275 276 280 281 284 286 281 280 279 281 281 280 280 281 280 280 278 275 273 270 271 273 275 276 276 275 273 272 271 271 271 270 269 269 268 268 267 266
282 282 282 283 284 283 277 276 275 271 275 278 277 277 275 273 277 278 280 281 281 280 280 279 279 279 278 278 276 277 277 278 279 279 274 270 272 273 273 273 272 270 270 269 269 269 269 269 269 268 267 267 266 265
285 286 286 284 282 279 280 278 276 274 272 276 275 275 273 272 277 277 278 280 280 280 279 279 278 278 278 276 276 276 275 278 278 278 278 276 273 272 272 271 271 270 270 270 269 268 268 268 267 266 265 264 263 262
283 285 283 281 280 280 279 278 276 275 275 274 274 269 269 269 271 270 276 279 280 280 279 279 278 277 278 277 277 278 278 277 277 277 276 274 272 271 270 270 270 270 269 268 267 267 266 266 265 264 263 262 261 260
281 279 279 278 277 277 277 279 281 279 277 276 272 268 271 272 271 269 275 277 278 279 279 279 278 277 277 277 277 276 276 275 275 275 274 272 271 270 269 269 268 268 268 267 266 266 265 265 264 263 261 260 259 258

GFSWCAN_925_thetae_105.txt.gz
Theta_e
296 296 296 295 294 295 296 296 293 294 295 294 293 294 296 296 296 296 296 296 295 291 294 297 298 295 294 294 293 295 295 296 297 299 302 302 303 305 305 303 304 302 303 301 303 303 304 291 293 297 294 292 289 287
295 295 295 294 295 295 296 294 293 293 294 293 293 294 294 297 296 296 296 295 295 292 293 296 296 295 295 295 294 296 296 297 294 298 300 301 301 300 300 300 300 301 299 298 297 295 292 291 291 291 291 290 288 286
295 294 294 294 295 294 293 293 293 293 293 293 294 294 295 296 297 296 296 296 295 289 292 295 297 298 297 297 297 296 296 296 297 296 297 300 304 302 304 299 298 296 297 295 294 292 292 290 289 288 288 287 287 286
296 294 294 294 294 295 294 293 293 293 293 293 294 294 294 296 296 296 296 296 296 291 292 295 296 297 297 299 298 297 296 296 295 295 297 297 303 302 302 296 294 294 295 295 293 291 290 289 288 287 287 287 286 284
296 296 295 294 293 294 294 293 293 292 293 293 293 293 293 293 294 296 296 296 297 293 292 293 294 297 298 298 297 297 297 294 294 295 296 302 301 302 295 295 292 295 294 292 293 290 290 288 288 287 286 285 285 284
296 296 295 293 293 294 294 294 292 292 292 293 292 292 292 293 294 295 290 297 297 297 291 291 293 295 297 297 297 298 296 294 293 295 296 296 302 297 297 295 294 290 291 290 291 289 287 287 286 286 285 284 284 283
296 295 294 293 292 293 293 294 293 292 292 292 292 293 293 295 296 296 294 297 297 296 291 291 294 296 298 297 295 295 295 294 294 295 296 301 300 294 292 292 293 290 287 288 288 287 287 287 286 285 285 284 283 281
294 293 293 292 293 293 293 294 294 293 292 292 293 293 294 296 296 296 297 297 297 296 294 290 294 298 299 295 296 294 295 294 294 295 295 299 298 289 292 291 293 292 289 288 288 288 287 285 285 284 283 282 281 280
292 292 292 293 293 293 293 293 292 291 292 293 293 294 294 294 293 295 297 296 296 295 292 289 292 299 295 295 295 295 293 292 293 295 297 300 297 293 288 292 291 290 290 288 287 287 286 286 285 283 282 282 280 279
292 292 292 293 293 293 292 292 291 293 293 293 293 292 291 293 297 296 295 290 290 292 296 291 291 294 297 291 292 294 293 294 298 298 296 296 294 292 289 288 289 291 288 289 288 288 288 286 284 283 282 281 279 278
292 292 292 292 292 293 293 291 292 293 294 294 293 294 295 296 296 295 295 295 293 293 293 291 292 291 294 294 294 294 292 294 298 299 301 298 294 292 291 291 291 291 291 290 288 288 287 285 283 281 280 278 276 275
291 291 292 292 293 293 291 291 292 293 293 293 295 295 295 295 296 296 294 293 296 295 290 292 291 293 294 294 293 294 295 294 297 300 302 299 289 291 290 289 289 287 287 287 286 284 283 282 281 279 277 275 274 273
290 289 290 293 293 292 291 291 292 293 294 295 295 294 294 296 295 296 292 295 289 290 292 290 291 294 291 293 291 294 292 291 297 299 302 293 290 290 287 286 285 284 284 283 282 281 280 279 278 277 274 273 272 272
290 289 289 291 293 292 291 292 293 294 294 295 295 295 295 294 296 288 289 288 289 288 290 289 291 293 290 293 287 291 293 298 295 297 297 288 289 287 286 285 284 281 280 279 278 278 277 276 274 274 274 273 273 273
290 290 290 292 292 290 292 293 293 293 291 294 295 294 294 290 293 295 296 294 290 286 290 292 291 292 290 296 297 296 297 299 293 293 287 286 286 285 284 281 279 277 275 275 275 274 273 273 273 273 273 273 273 273
290 291 291 292 291 291 292 292 291 291 292 293 293 296 295 296 296 296 297 296 294 291 288 292 293 292 294 290 298 293 295 294 289 285 286 284 284 282 281 280 278 277 276 275 275 274 274 274 274 273 273 273 273 273
289 290 291 292 291 291 290 289 290 289 291 292 296 290 295 296 296 296 295 296 292 291 291 294 291 293 293 296 298 292 289 290 288 288 287 286 284 278 277 277 277 276 275 275 274 274 274 274 274 273 273 273 273 274
291 290 291 292 291 289 289 289 290 292 292 292 293 292 293 294 296 295 294 293 295 294 292 294 295 299 298 296 291 285 285 288 288 287 285 283 280 277 278 276 276 276 275 275 275 274 274 274 273 274 274 275 274 274
291 291 291 291 289 288 284 287 290 290 292 292 291 291 292 292 291 290 292 293 294 293 291 291 294 293 289 288 289 282 278 281 285 282 282 281 280 278 277 277 277 276 275 275 275 274 275 275 276 276 277 277 278 278
291 291 291 289 291 290 288 288 289 292 289 286 291 292 292 292 290 291 291 292 294 295 296 292 289 285 287 285 284 282 279 280 283 282 280 278 278 278 277 277 276 276 276 276 276 276 276 276 277 278 279 279 278 278
291 291 290 290 291 290 291 290 290 291 289 289 291 292 290 290 291 292 293 292 294 295 290 286 281 279 282 285 288 285 282 282 280 280 279 278 278 278 278 278 277 277 277 276 277 277 277 278 279 278 278 277 277 276
290 290 290 290 288 289 290 290 292 289 289 291 292 291 286 288 285 289 288 290 293 288 286 284 283 281 283 284 285 286 284 283 282 281 281 280 279 279 279 278 278 276 277 277 277 278 279 280 280 279 277 277 276 276
290 289 288 288 289 288 289 291 291 290 288 293 292 290 285 284 285 290 290 291 288 284 285 285 286 287 286 287 287 285 284 283 281 280 280 280 280 280 279 279 279 278 277 278 278 279 280 280 279 277 277 276 275 274
289 289 288 286 288 283 287 291 292 292 288 291 293 292 290 288 291 290 292 288 283 279 282 284 285 283 284 285 281 283 284 283 281 280 280 279 278 279 280 280 280 280 280 280 280 280 279 278 277 276 275 275 274 274
284 282 289 287 288 289 287 288 290 290 285 292 292 288 292 289 287 291 289 285 284 277 276 282 283 281 281 276 279 284 284 283 280 279 280 280 279 280 280 280 280 280 280 281 280 279 277 277 276 275 275 274 273 272
286 282 289 290 283 287 288 286 286 286 289 288 284 286 282 291 291 288 287 282 288 280 284 284 279 282 281 282 280 282 283 283 282 280 281 281 281 279 277 277 277 278 281 282 281 278 277 276 275 274 273 272 271 270
291 289 287 288 288 289 285 283 287 287 290 290 289 284 283 288 286 284 278 279 283 284 286 287 286 286 284 283 283 284 283 283 283 281 281 282 281 281 282 280 278 280 279 279 279 278 277 275 274 273 271 270 270 269
284 284 288 288 288 286 286 283 284 284 282 285 285 285 287 288 284 274 274 281 281 284 285 287 287 286 285 283 283 283 282 281 281 280 280 279 279 279 280 280 279 278 278 277 277 277 276 274 272 271 270 269 268 267
281 278 282 283 284 286 286 285 284 280 279 281 284 279 278 274 272 273 279 280 282 283 283 282 280 282 281 280 280 282 282 281 279 277 275 272 272 274 276 277 276 276 275 274 273 273 272 271 270 269 268 268 266 265
280 280 280 280 286 286 277 276 275 273 272 275 275 275 273 271 277 277 279 280 281 282 281 280 279 279 277 277 275 276 278 279 280 280 276 273 274 274 275 275 274 273 272 271 270 269 269 269 268 268 267 266 265 264
283 284 282 280 278 274 274 275 277 277 272 272 270 271 271 267 276 277 278 279 279 279 279 278 278 278 277 276 276 276 276 278 280 280 281 279 276 274 274 272 271 270 270 269 269 269 269 268 267 266 265 264 263 262
284 285 281 280 278 277 278 280 280 279 273 273 273 266 268 268 272 268 276 278 279 279 278 278 278 277 277 278 278 279 279 278 278 278 277 276 274 272 271 271 270 270 269 269 268 267 267 266 265 264 263 262 261 259
281 278 279 279 279 279 278 279 280 279 275 273 270 267 268 271 273 269 275 276 278 279 278 278 277 277 277 278 279 278 278 277 277 275 274 273 272 271 271 270 269 269 268 267 267 266 266 265 264 263 261 260 259 258

GFSWCAN_925_thetae_108.txt.gz
Theta_e
297 296 296 297 297 297 295 295 295 295 295 296 297 297 296 296 296 297 295 295 296 292 294 297 296 295 294 293 292 294 294 294 296 298 301 301 302 301 304 302 302 301 302 301 302 304 303 291 294 298 293 289 287 285
296 296 295 295 296 295 294 295 294 294 294 295 296 296 296 295 295 295 295 295 296 293 294 296 295 295 294 293 293 296 294 296 292 297 300 299 301 301 298 298 299 301 297 297 296 295 291 290 291 290 290 288 286 285
295 295 295 296 296 293 294 294 294 293 293 294 295 296 296 296 295 295 295 296 296 292 294 295 296 297 295 296 297 296 295 295 295 294 298 298 302 303 302 298 298 297 295 294 293 292 290 289 288 287 287 286 285 284
294 295 295 295 294 293 293 293 293 294 294 294 294 296 296 296 296 296 297 296 295 291 294 296 295 297 296 297 297 296 295 294 293 293 296 299 300 302 298 295 294 293 294 294 292 291 290 288 286 287 286 284 283 283
294 294 294 294 293 294 294 293 293 293 294 294 293 294 296 296 296 296 296 297 296 293 294 293 294 296 297 298 297 297 295 293 293 294 295 302 301 299 292 294 291 295 294 290 288 288 288 288 284 285 284 284 283 283
294 294 294 294 294 293 293 292 293 293 294 293 293 293 293 295 295 295 292 296 296 294 292 292 292 295 296 296 296 296 294 292 292 294 295 296 301 295 289 293 293 289 292 290 290 288 285 287 285 285 285 284 283 282
296 294 293 293 294 293 292 293 293 293 292 292 292 294 295 295 296 294 294 296 296 295 291 291 295 295 296 296 294 294 293 292 293 294 295 300 299 295 286 290 292 288 289 288 287 287 287 285 285 284 284 283 281 280
295 293 293 293 294 294 292 292 292 292 292 292 294 296 296 296 296 296 297 297 296 295 290 290 296 298 297 295 296 292 294 293 293 294 294 299 297 291 291 289 289 287 287 287 288 288 286 285 284 283 282 281 280 279
294 293 293 293 293 293 294 293 292 292 293 293 294 295 294 294 293 296 296 296 296 294 291 289 294 297 294 294 293 294 292 291 292 294 296 300 297 291 288 293 291 289 289 289 287 286 285 285 284 283 282 281 280 279
292 292 293 293 293 294 293 292 291 293 293 294 293 292 289 295 296 295 295 290 289 291 293 291 290 298 296 290 292 293 292 293 299 300 295 295 291 292 288 290 290 290 288 287 287 287 286 284 283 282 282 281 279 278
292 293 293 293 293 292 291 292 293 293 293 293 292 295 295 296 295 292 290 290 290 292 292 290 291 293 293 293 297 294 294 294 297 298 300 297 294 292 289 289 289 288 288 287 287 287 286 284 283 281 280 279 278 276
292 292 293 293 292 292 292 293 293 293 293 294 295 295 295 295 295 294 294 293 294 294 290 291 290 293 294 293 294 295 294 292 295 299 300 298 290 292 291 291 291 289 288 288 287 285 284 283 282 280 278 276 275 274
292 292 292 293 293 291 291 293 292 294 296 295 294 295 294 295 294 289 291 295 289 290 290 289 290 292 291 292 290 293 289 290 296 300 301 293 292 291 290 287 286 286 287 285 284 283 282 280 279 278 275 274 273 272
290 292 293 293 292 291 292 292 294 294 294 294 294 294 292 292 295 288 289 287 288 286 288 289 290 292 289 292 285 290 289 294 290 295 296 288 291 289 287 286 285 284 282 282 280 279 278 277 276 276 274 273 272 271
289 290 293 293 292 292 292 293 293 293 291 293 294 295 293 290 292 289 292 294 292 285 289 291 291 293 292 294 293 291 294 293 291 292 285 282 287 286 284 282 281 279 278 277 277 275 274 274 273 272 273 273 273 273
291 292 293 292 291 292 292 291 291 291 291 292 294 296 294 295 295 296 296 296 293 292 287 291 295 293 294 289 298 291 294 292 289 286 284 279 284 283 282 281 279 278 277 275 275 274 273 273 273 273 273 273 273 273
289 291 292 292 291 291 291 289 290 289 290 292 293 291 295 296 294 295 295 295 292 294 289 294 290 292 292 295 295 291 288 285 282 286 287 284 281 279 278 278 277 276 275 275 274 273 273 273 273 272 272 273 273 273
290 292 292 290 290 289 289 289 290 290 292 291 290 293 293 294 295 294 293 293 295 295 294 293 294 297 295 293 289 283 290 288 285 285 284 284 281 278 279 277 277 277 275 274 274 273 273 273 273 273 274 274 274 274
290 292 291 290 288 288 282 287 288 289 291 290 291 291 291 292 291 290 291 292 293 293 290 290 294 292 289 284 285 284 279 282 286 283 278 281 280 278 278 277 277 276 275 274 273 273 274 274 275 275 275 276 276 276
291 292 290 289 290 290 287 287 289 291 290 289 291 292 291 291 290 291 291 292 293 295 295 291 288 285 285 283 283 283 279 280 283 283 281 276 279 277 276 276 276 275 275 275 275 275 275 275 276 276 277 278 277 278
291 290 289 290 290 289 289 289 289 290 292 290 291 292 291 291 291 292 292 292 293 292 288 284 280 277 280 283 286 283 281 282 280 281 280 278 278 277 277 277 276 276 275 275 275 276 276 277 278 278 278 278 277 277
289 290 290 290 287 288 288 290 292 290 290 292 292 291 287 287 290 290 288 288 289 286 284 282 282 281 282 284 284 286 284 283 282 280 279 278 278 278 277 276 276 275 275 276 276 276 277 278 278 279 277 277 276 276
289 289 288 287 284 286 285 290 290 290 290 292 292 291 284 282 284 288 284 286 285 282 282 284 286 287 285 286 286 285 284 283 280 280 279 280 279 279 278 277 277 276 275 276 277 278 278 279 280 279 277 276 275 274
289 288 280 284 285 281 286 289 291 291 289 291 288 287 287 286 289 284 286 286 282 278 281 283 285 282 283 284 280 282 283 282 280 280 280 279 278 278 279 278 278 279 279 279 278 278 279 279 278 276 276 276 274 274
284 283 283 286 287 287 287 286 289 289 288 290 286 283 286 289 288 284 286 285 277 280 274 279 282 280 283 283 281 282 283 283 279 278 279 280 278 278 278 278 279 279 279 278 278 279 278 277 276 276 275 274 273 272
282 278 284 283 287 288 288 285 283 283 281 284 283 285 282 291 290 286 287 279 280 286 278 284 284 282 284 284 282 280 282 282 282 279 279 280 279 278 276 276 276 278 279 280 280 278 276 276 275 274 273 272 271 270
288 282 286 286 287 286 281 279 284 285 289 287 284 283 283 285 286 285 279 278 278 282 283 284 285 286 285 282 282 283 283 282 283 281 280 280 280 280 281 279 279 281 281 281 281 280 278 275 274 273 272 270 270 269
286 286 286 288 289 286 281 279 280 284 285 285 285 286 285 284 285 276 274 280 280 282 283 284 285 285 285 283 282 282 281 281 280 280 279 278 278 279 280 281 280 280 279 279 279 278 277 275 274 272 270 269 268 267
283 279 284 285 285 288 289 287 285 281 280 283 284 281 280 275 271 272 278 279 281 282 281 281 280 282 281 280 280 280 280 280 279 277 275 272 273 275 278 278 278 278 277 277 276 275 275 273 272 270 269 268 266 265
278 277 279 277 282 285 282 279 279 275 276 276 275 275 273 271 276 277 278 279 280 281 282 281 280 280 277 277 275 277 278 280 280 280 276 273 274 275 275 276 275 275 274 273 272 271 270 270 268 267 267 265 264 264
281 279 277 275 276 272 272 272 274 275 275 274 272 275 274 267 275 276 277 278 279 279 279 277 278 278 278 276 276 276 276 279 280 281 281 280 277 275 274 274 273 272 271 271 270 269 269 268 267 266 265 264 263 262
281 283 280 278 274 274 275 276 277 276 269 272 272 265 267 269 273 267 275 276 277 277 278 278 277 276 278 278 278 279 280 279 279 280 280 278 275 274 273 271 270 270 270 269 269 268 268 267 266 265 264 262 261 259
279 278 277 279 277 277 276 278 278 277 273 272 269 265 266 271 275 268 273 274 276 278 278 277 277 276 277 278 279 278 278 278 277 277 277 275 274 271 270 270 270 269 269 268 267 267 266 265 264 263 262 260 259 258

GFSWCAN_925_thetae_111.txt.gz
Theta_e
297 296 296 296 295 296 297 298 298 298 298 297 297 297 297 297 298 298 294 296 297 296 296 297 296 296 295 295 297 296 298 297 298 301 303 303 302 303 304 301 303 302 302 302 304 304 304 291 295 299 293 290 287 286
297 296 295 294 295 295 296 296 297 297 297 296 296 296 296 296 297 298 295 296 297 295 296 294 294 294 293 293 296 296 296 297 298 300 300 301 302 302 301 303 298 302 298 298 296 296 291 290 292 291 290 288 286 285
296 296 295 295 295 294 295 295 296 296 296 296 296 295 295 295 295 297 295 296 296 295 295 295 296 295 296 296 296 298 297 296 297 296 300 301 302 303 302 300 299 297 296 294 294 291 290 289 289 288 288 286 285 284
296 295 294 294 294 294 294 294 294 295 296 296 296 295 295 295 295 297 296 295 296 294 297 297 295 295 296 297 296 296 295 294 295 296 300 302 302 301 299 297 297 295 295 294 292 291 289 288 288 287 286 285 284 283
296 294 293 294 294 293 294 294 294 295 296 296 296 296 296 296 296 296 295 295 295 296 297 296 293 295 297 296 296 296 295 295 296 298 300 302 301 299 295 295 295 295 294 294 295 291 290 288 287 286 285 284 284 283
294 294 293 294 293 293 293 294 294 294 294 295 295 296 295 295 295 295 293 295 295 296 296 297 292 295 295 296 296 296 295 294 295 298 298 299 300 299 297 297 293 291 292 291 291 289 288 287 286 285 285 285 283 282
294 294 294 293 293 292 293 293 293 293 293 293 294 294 295 296 295 295 294 296 295 295 295 296 298 295 296 295 294 295 293 295 296 297 298 302 299 295 293 297 292 290 290 289 288 288 287 287 286 285 284 283 282 280
293 294 293 293 293 293 293 292 292 292 294 296 296 296 296 296 296 296 296 296 296 293 292 295 297 299 296 297 298 293 297 296 295 296 297 300 297 294 297 290 290 289 288 289 289 288 288 286 285 284 282 281 281 280
293 294 294 293 292 292 292 292 292 292 295 296 294 294 295 295 294 296 295 295 295 294 294 293 298 298 295 295 295 296 295 299 294 298 299 300 299 299 293 291 289 288 289 289 287 286 286 286 284 283 282 282 281 280
293 293 293 294 293 293 291 293 293 293 294 294 294 292 292 295 295 295 294 291 291 291 293 294 292 299 297 295 297 298 295 299 301 300 297 300 299 293 292 291 290 289 289 288 288 287 286 285 284 283 283 282 281 279
293 293 293 294 293 292 292 293 293 293 293 294 294 295 295 295 295 292 291 293 293 294 293 293 294 298 295 298 299 296 298 297 300 300 301 300 299 293 290 291 290 290 288 288 288 287 286 285 284 283 282 280 279 277
293 293 293 292 291 292 293 293 293 294 294 295 295 295 295 295 293 293 293 293 294 296 293 295 294 295 296 295 299 296 297 296 299 299 302 302 295 291 291 291 290 288 288 288 287 286 285 284 283 281 280 278 277 275
293 293 292 292 292 293 293 293 295 294 294 294 294 295 294 294 292 290 291 295 294 293 293 293 295 295 295 294 294 296 295 296 296 299 301 297 293 292 291 291 290 288 288 286 286 285 283 281 280 278 276 276 275 273
292 293 293 291 291 292 292 294 295 295 294 294 293 293 290 293 293 291 292 291 290 290 292 293 294 297 293 295 291 295 293 296 297 297 299 294 292 291 290 289 288 287 285 284 282 281 279 278 276 276 276 274 273 272
293 293 292 292 291 292 293 293 293 293 291 293 293 295 294 292 293 293 292 295 293 289 292 295 295 296 294 294 295 293 296 297 295 298 294 289 290 288 287 287 285 283 281 281 279 277 275 275 274 272 273 272 272 272
293 293 293 292 292 292 291 292 292 292 291 292 293 296 294 295 297 297 297 296 293 293 291 295 297 295 295 293 297 293 296 296 297 291 291 284 286 286 285 284 282 280 280 277 276 275 274 274 273 272 271 272 272 272
291 292 292 292 292 291 290 290 291 289 290 292 293 291 296 295 295 296 296 295 293 294 295 295 292 294 294 295 296 294 296 294 288 291 287 283 284 283 282 280 279 278 276 276 274 274 274 273 272 272 271 272 272 273
292 292 292 291 290 289 289 289 290 290 292 291 292 293 293 294 294 294 293 293 295 295 295 296 294 297 296 295 296 292 291 290 287 287 287 285 282 280 280 279 278 277 276 275 274 273 272 272 272 273 273 273 273 273
292 291 290 289 288 288 284 287 288 290 292 291 291 291 292 292 291 291 292 292 293 293 293 295 296 295 295 291 293 290 286 289 288 285 282 282 282 279 278 278 277 276 275 274 273 273 273 273 274 274 274 274 274 274
291 290 289 290 290 289 287 287 289 291 291 291 291 292 291 292 291 291 292 292 294 295 295 294 293 292 291 290 287 290 286 284 285 285 283 280 279 278 277 278 278 276 275 275 275 274 274 275 275 275 276 276 276 276
290 290 289 289 289 290 288 289 289 290 292 291 291 291 291 291 292 292 293 292 295 293 293 289 288 285 282 283 285 283 282 284 285 286 286 281 278 278 277 277 276 276 276 276 276 275 275 276 276 276 277 277 277 277
289 290 289 289 287 287 287 289 292 290 291 292 292 291 290 288 291 292 290 289 291 289 288 287 287 285 285 286 285 285 284 283 282 280 280 278 279 278 278 277 277 276 276 276 276 275 276 277 277 277 278 277 276 276
289 289 288 287 283 282 285 289 291 291 291 292 292 291 288 285 286 288 288 288 287 283 283 285 286 287 285 285 285 284 283 283 282 280 279 279 279 278 277 277 277 276 276 275 276 276 277 277 278 277 276 276 275 274
289 287 280 283 284 281 285 286 291 290 290 290 290 287 286 289 290 287 289 288 285 280 283 283 284 284 284 284 283 282 282 282 279 278 279 279 278 278 277 277 277 277 277 277 277 277 277 278 278 277 276 276 274 273
287 284 280 279 286 286 288 284 287 288 285 287 287 284 288 290 288 287 288 286 282 285 281 281 283 283 287 286 283 282 282 282 280 279 278 279 278 277 277 277 277 277 278 277 276 277 277 277 276 276 275 274 273 272
281 277 282 281 286 286 287 287 287 283 281 282 284 283 285 288 289 287 287 281 283 286 281 282 285 286 286 285 284 282 281 282 281 279 278 279 279 278 277 277 277 276 278 279 278 277 276 275 275 275 273 273 272 270
282 281 283 284 287 286 282 279 285 283 283 284 283 286 283 287 288 285 280 278 280 281 282 283 284 286 286 283 282 282 282 281 282 280 279 279 279 279 279 278 278 279 278 278 279 280 277 275 274 273 272 270 269 269
284 283 286 283 288 286 284 278 279 283 285 286 285 286 285 285 286 282 279 279 279 280 282 282 283 284 284 282 281 280 280 280 279 279 278 278 278 279 280 280 280 280 280 280 280 279 277 276 274 272 271 269 268 267
285 280 283 284 284 285 286 288 286 283 281 284 286 285 283 280 275 274 278 278 279 280 280 280 279 281 280 279 279 279 279 278 279 278 277 276 275 275 278 279 279 279 279 278 277 277 275 274 273 271 269 268 266 265
281 277 279 278 282 287 285 280 282 279 278 279 278 278 277 275 276 276 277 278 279 280 281 281 279 280 277 277 275 276 277 279 280 280 278 277 276 276 276 277 277 276 276 276 274 273 272 271 269 268 267 265 264 264
280 278 276 276 279 275 273 270 271 273 271 273 272 277 276 272 274 275 275 276 277 278 279 277 277 278 277 276 276 277 277 279 280 281 281 280 277 276 276 276 275 275 274 274 272 271 269 268 267 266 265 264 263 262
282 282 279 279 276 272 272 273 274 275 271 271 272 266 269 272 276 271 273 275 275 276 277 277 277 276 278 278 278 280 280 280 280 280 279 278 276 275 274 273 272 272 271 270 269 269 268 267 266 264 263 262 261 260
278 278 279 280 277 277 276 279 278 276 271 271 271 268 268 273 278 270 272 272 274 276 277 276 276 276 276 278 279 278 278 278 278 278 277 276 275 274 272 271 270 270 269 269 268 267 266 265 264 263 262 261 259 259

GFSWCAN_925_thetae_114.txt.gz
Theta_e
295 296 295 296 296 297 297 298 298 298 298 298 298 298 298 298 298 298 296 297 302 302 300 300 300 300 300 301 302 301 302 301 302 305 307 307 306 306 306 304 305 307 308 309 308 310 308 294 297 302 296 293 292 292
295 295 297 297 297 297 297 298 298 298 298 298 299 298 298 297 297 298 298 297 300 301 298 296 296 296 297 298 301 301 302 303 304 306 305 304 304 304 305 307 301 306 302 305 301 301 293 293 295 294 293 292 291 290
294 295 296 297 298 298 298 297 297 297 298 298 297 296 296 296 298 298 297 298 298 300 299 298 299 298 298 298 299 302 301 302 302 302 304 303 304 304 305 304 302 299 297 298 299 294 293 292 292 292 292 291 289 288
295 294 295 295 297 297 297 296 296 296 295 295 295 295 296 297 297 297 297 296 299 299 300 299 297 298 297 298 299 300 300 300 302 303 304 304 303 303 304 302 302 300 298 297 294 293 292 291 290 290 289 288 287 286
294 294 295 295 295 296 296 296 296 296 295 295 295 295 296 297 296 296 296 296 297 300 300 299 298 298 298 298 299 299 300 302 302 304 304 303 301 302 301 300 302 298 298 299 303 295 295 292 289 289 288 287 286 286
293 294 295 295 294 295 295 296 296 296 296 296 295 295 295 296 297 297 302 298 297 298 299 301 298 298 298 299 300 300 300 300 301 303 303 302 302 303 304 304 296 294 294 295 295 293 292 290 289 288 288 287 286 286
294 293 294 294 294 294 294 294 295 295 295 295 295 295 295 295 295 299 300 298 296 299 301 300 299 299 299 300 300 301 300 300 301 302 303 303 303 301 304 304 295 293 292 292 292 291 289 289 288 288 287 286 285 285
293 293 293 293 293 293 293 294 294 295 296 296 296 295 295 295 297 297 296 295 296 298 300 300 299 301 299 300 301 300 301 301 300 301 303 303 302 302 303 294 293 292 291 291 291 291 291 290 288 287 287 285 285 284
293 293 293 292 292 292 293 295 296 295 295 295 295 295 295 296 298 297 295 295 295 299 301 300 300 301 300 301 302 302 301 302 300 302 302 302 302 304 301 294 292 292 292 292 290 291 290 289 288 287 286 286 285 283
292 292 292 292 292 293 293 294 295 295 294 294 295 297 297 297 295 295 297 299 299 299 300 300 299 300 301 302 302 302 302 302 302 303 302 302 303 297 295 295 293 292 292 291 290 290 289 288 288 287 287 286 284 282
294 293 293 292 293 294 293 294 294 294 294 296 297 298 297 295 297 298 298 299 298 299 299 299 299 301 300 302 303 302 302 302 301 303 302 303 304 298 295 294 293 292 291 291 291 290 289 289 288 287 286 284 283 281
294 293 292 292 293 293 293 293 294 295 296 296 297 296 297 297 297 297 297 296 299 299 298 300 301 301 302 301 303 301 301 301 303 301 303 303 301 296 295 294 293 292 290 290 289 289 288 287 286 285 284 282 280 279
292 291 293 293 293 293 294 294 295 294 294 296 297 297 297 296 298 298 298 299 300 299 299 300 301 302 301 300 301 300 301 302 300 301 302 303 297 294 295 294 292 291 290 289 288 287 286 286 285 283 282 279 276 275
292 292 293 293 292 293 294 294 295 294 296 297 297 296 297 297 298 298 299 300 296 299 300 302 300 302 300 300 299 300 300 300 302 301 303 302 296 294 293 293 291 291 289 288 287 285 284 281 280 278 277 275 274 272
292 291 291 292 292 292 292 292 293 293 295 297 297 297 298 296 297 296 296 297 296 298 301 301 300 300 299 299 299 299 299 301 301 303 303 298 294 293 292 292 291 289 287 286 284 282 280 278 277 275 274 274 273 272
292 292 293 292 292 291 291 292 292 293 293 296 297 298 297 301 300 300 300 299 297 299 300 300 299 299 298 299 299 300 300 301 304 301 297 292 291 292 291 290 289 287 286 285 283 280 278 277 276 274 272 272 272 273
292 293 292 291 290 290 290 290 292 294 294 296 297 296 298 300 299 299 301 299 297 300 300 300 300 299 298 299 300 299 303 303 299 295 294 291 290 290 289 286 284 283 283 282 280 278 277 275 272 273 273 272 273 273
293 292 291 290 289 289 290 291 293 294 295 295 297 296 295 296 300 300 298 298 300 299 299 300 299 300 301 301 302 302 299 294 291 292 292 289 288 286 286 285 283 282 281 279 278 276 274 274 276 277 276 274 275 274
292 291 289 289 288 289 291 291 292 294 294 294 295 295 296 296 295 295 296 295 296 297 299 298 300 301 301 301 304 297 294 293 293 291 288 286 286 284 284 283 281 281 279 278 278 278 277 277 279 278 277 276 278 278
290 289 290 290 290 291 290 291 291 293 294 294 294 294 294 295 293 295 296 295 296 298 299 299 300 301 301 300 298 298 296 293 292 292 290 287 284 283 283 283 283 281 279 279 279 278 278 278 278 278 278 278 280 279
290 289 289 289 290 291 291 291 291 292 292 293 292 293 293 293 294 295 295 294 296 297 298 298 299 296 290 290 291 292 291 291 293 294 293 289 285 285 283 283 282 282 282 281 280 279 279 280 279 279 278 279 280 280
290 290 290 289 290 290 291 291 293 292 293 293 293 292 293 293 294 294 293 295 296 297 297 296 296 294 292 291 291 289 288 288 286 284 284 285 286 285 284 283 282 283 283 282 282 280 280 280 279 279 280 279 278 277
289 289 289 288 289 290 290 290 292 292 292 293 292 292 293 293 292 291 294 295 295 292 291 291 291 290 291 288 287 287 287 287 288 287 285 286 286 285 284 283 283 283 283 282 281 281 280 279 279 279 278 277 277 275
289 288 288 288 289 289 289 292 292 292 291 292 293 292 293 292 291 292 294 295 294 289 289 288 290 289 288 288 290 288 286 286 286 285 284 285 285 284 283 283 282 282 283 281 280 280 279 279 278 277 277 277 277 276
290 288 288 287 288 289 290 292 292 291 292 291 292 293 292 291 293 293 294 295 291 290 288 287 289 290 292 291 289 286 283 285 287 286 283 284 284 282 282 281 281 281 280 280 280 279 279 278 278 278 277 277 276 274
288 286 289 288 288 288 289 290 291 292 292 292 292 291 292 293 293 294 293 292 290 289 288 288 289 291 290 288 288 285 283 283 284 285 282 282 283 284 283 282 281 279 279 280 279 279 278 278 277 276 276 274 273 272
289 289 288 287 289 288 289 289 289 291 292 292 293 292 293 293 294 294 288 286 287 285 284 284 285 288 289 286 283 282 282 282 283 283 281 280 280 281 282 282 282 280 278 279 279 279 278 277 276 275 274 272 271 271
289 288 290 289 289 290 291 291 292 292 294 293 292 292 293 293 295 289 287 282 282 282 282 282 281 283 285 282 281 280 279 278 278 278 278 277 277 278 279 279 279 279 278 278 279 278 277 276 274 272 271 269 268 268
288 288 289 288 290 291 292 293 293 292 290 292 294 294 293 288 283 284 282 280 280 281 284 284 281 280 279 279 279 279 279 280 282 282 283 282 281 276 275 276 277 278 278 278 277 275 274 273 272 270 268 266 264 264
288 287 290 287 289 292 292 289 290 285 284 284 284 285 284 283 279 277 277 279 282 284 283 283 282 282 282 282 280 279 279 280 282 283 283 283 281 275 274 275 276 275 275 274 272 271 273 273 271 269 267 265 263 262
285 286 288 288 290 287 283 280 280 280 281 283 280 285 288 282 279 274 275 275 275 276 279 281 281 281 280 280 282 281 281 279 280 281 281 280 277 275 274 274 274 274 274 272 271 270 269 268 266 265 264 263 262 261
286 288 288 287 287 281 280 283 284 285 283 283 285 278 280 282 286 279 272 273 276 279 278 279 280 280 279 279 279 280 280 280 279 279 278 277 276 275 275 275 274 273 272 271 270 268 267 266 265 264 262 261 260 259
283 284 284 285 284 284 282 283 284 284 282 283 283 279 280 282 285 276 271 271 272 274 277 276 275 275 276 277 278 277 277 277 277 277 276 277 276 276 274 273 272 271 270 269 268 267 266 265 263 262 261 260 259 258

GFSWCAN_925_thetae_117.txt.gz
Theta_e
296 296 299 305 304 304 303 300 301 300 300 301 302 304 302 301 300 300 300 303 305 307 304 303 304 305 304 304 304 304 304 304 305 306 308 309 309 309 310 308 308 310 311 312 309 313 313 298 300 304 300 298 298 297
297 296 297 300 301 302 302 302 302 302 302 300 299 299 299 299 299 301 301 301 302 304 304 301 300 301 302 303 304 304 305 305 306 307 308 308 307 307 309 309 305 308 307 309 305 304 296 297 299 298 297 297 296 294
297 297 297 297 298 298 298 298 299 298 298 298 298 298 299 298 298 300 301 301 301 303 302 302 301 300 301 303 303 304 304 305 306 307 307 307 306 306 309 308 306 302 301 304 301 297 295 295 295 296 296 294 293 292
297 297 297 297 297 298 298 297 297 298 298 298 297 297 298 299 300 301 301 301 301 302 302 300 300 300 300 301 302 304 305 304 306 306 306 306 306 305 307 307 306 304 301 301 298 295 294 294 294 293 292 291 290 290
296 297 297 297 297 297 297 297 297 296 296 296 296 297 299 299 299 300 300 301 300 301 301 301 299 299 300 301 302 303 304 306 307 307 305 305 304 304 304 305 306 302 304 303 306 297 298 295 292 291 291 290 289 289
295 296 296 297 298 297 297 297 297 297 297 297 297 297 298 298 299 299 304 300 299 299 300 301 299 300 300 300 301 302 304 304 305 305 304 304 303 304 305 307 300 298 297 298 298 297 295 292 291 291 291 290 289 289
295 295 295 296 296 295 295 295 295 296 296 296 296 297 298 299 300 302 302 300 300 300 301 300 300 300 300 300 301 301 302 303 304 304 305 303 304 303 305 306 298 295 295 296 295 293 292 291 291 291 290 289 289 288
294 293 294 294 295 296 296 296 295 295 296 296 296 297 298 298 298 298 297 298 300 301 302 302 301 301 300 302 302 302 302 302 301 303 304 305 304 304 304 299 295 294 295 295 294 295 293 292 291 290 290 289 289 288
293 293 293 295 296 296 295 295 295 295 295 296 296 298 299 299 299 297 298 300 301 302 302 301 302 302 302 302 302 302 302 303 301 303 303 303 305 305 305 297 295 294 294 294 294 294 293 292 291 290 290 290 289 287
292 292 292 294 296 295 295 294 294 294 295 297 299 299 299 298 296 299 301 303 303 302 302 303 302 302 302 303 303 303 302 303 304 303 303 304 305 301 300 298 296 295 296 294 294 293 293 292 291 291 290 290 288 286
292 294 294 293 293 295 295 295 294 296 298 300 300 300 298 297 300 301 303 302 302 302 301 301 302 304 302 304 304 303 303 302 301 304 303 304 305 301 299 298 296 296 295 294 294 293 293 292 291 290 290 288 286 284
293 293 293 293 293 294 294 295 296 298 298 298 299 299 299 300 300 301 300 300 301 302 301 302 302 302 304 303 303 303 302 303 304 303 303 304 302 299 298 297 295 295 294 293 293 292 291 291 290 289 288 286 284 283
293 293 293 294 294 295 295 295 295 296 298 299 299 299 300 299 302 302 301 301 302 301 303 303 304 303 303 303 303 302 303 303 303 303 304 305 301 298 297 296 294 293 292 291 292 291 290 289 288 287 286 283 280 278
293 293 292 292 292 294 295 294 294 297 299 301 302 299 301 300 299 300 304 303 300 303 305 305 304 303 303 302 303 303 301 302 302 304 304 305 299 297 295 294 294 293 292 291 290 289 288 286 285 284 281 279 278 276
292 292 292 291 291 291 292 293 295 298 299 300 299 299 300 299 299 298 299 300 302 303 304 303 303 302 302 302 301 301 301 302 302 305 304 299 297 295 295 295 293 291 290 289 287 286 284 283 281 279 278 277 276 275
293 293 292 291 290 290 291 295 296 297 298 299 299 301 301 300 300 300 300 302 302 303 303 302 301 300 300 301 301 302 302 302 305 301 297 294 295 295 294 293 292 290 289 288 286 284 281 280 279 278 277 276 274 275
293 293 291 290 289 291 292 295 296 297 298 298 299 298 300 300 300 299 303 302 302 303 303 302 302 300 300 301 302 302 304 302 298 296 295 294 293 294 292 291 290 289 288 287 285 283 281 280 277 276 276 275 275 275
293 291 289 289 290 292 293 295 296 297 297 299 299 298 297 298 300 299 302 302 301 301 300 301 301 301 303 303 304 304 299 295 293 293 293 291 292 290 289 289 287 287 286 284 283 281 279 277 278 279 278 276 277 276
291 290 289 289 290 293 295 294 296 296 297 297 297 297 298 299 299 299 300 300 300 300 301 301 302 302 303 304 301 298 296 296 295 293 290 289 288 288 288 287 286 285 284 282 281 281 280 280 281 280 278 278 279 278
289 289 290 291 292 293 293 294 294 295 296 296 296 296 296 296 297 297 299 299 298 299 300 301 303 303 303 301 301 300 297 295 296 295 292 290 288 287 287 286 287 284 283 282 282 281 281 281 281 280 280 280 281 281
293 291 292 292 293 293 294 294 293 294 294 295 294 295 296 296 297 298 298 297 297 299 301 301 301 297 296 294 296 297 295 296 298 297 296 292 289 289 287 287 285 285 284 284 283 282 282 282 281 281 280 282 282 282
292 291 293 291 292 293 293 293 293 293 295 294 294 294 295 296 296 296 296 297 298 300 300 299 299 298 297 295 295 294 293 292 291 290 290 290 290 290 288 287 286 286 286 285 284 283 283 282 281 281 281 282 282 280
292 291 291 291 292 292 291 293 293 293 294 295 294 294 294 294 293 293 295 297 298 297 295 295 294 293 295 291 291 291 291 292 293 292 290 292 291 289 288 287 287 287 286 285 285 284 284 283 282 282 282 281 280 278
290 290 291 291 292 291 291 293 292 292 293 294 294 294 294 294 292 294 297 299 298 294 294 292 294 294 293 292 294 292 290 291 291 289 289 290 289 288 287 286 286 286 286 285 284 284 283 282 282 282 280 280 279 278
292 290 291 290 291 292 292 293 293 293 294 293 294 295 294 293 295 297 297 299 296 292 292 291 292 293 293 293 292 290 286 289 291 291 287 288 288 286 285 285 284 285 285 284 284 283 282 281 281 281 281 281 279 278
291 290 292 291 291 291 292 292 293 293 294 294 294 294 293 295 296 296 296 294 293 290 289 290 290 291 292 292 292 289 287 286 288 289 286 286 286 286 285 284 283 282 283 284 283 283 282 281 281 280 280 279 278 276
290 291 291 290 291 291 292 292 292 293 293 294 295 293 294 295 296 297 293 290 290 287 286 286 287 289 290 290 287 286 285 285 286 286 284 284 284 284 285 285 284 283 281 282 282 282 281 281 280 279 278 276 276 275
291 291 292 291 291 292 293 293 293 294 295 295 295 294 295 296 297 293 291 286 285 285 285 285 285 286 287 286 285 284 282 281 281 281 281 280 280 281 281 281 281 280 281 281 281 281 280 279 278 277 276 275 273 272
291 290 291 291 291 292 293 294 294 295 293 295 295 296 296 293 289 289 286 285 284 285 286 286 284 283 283 283 283 283 283 283 284 284 285 284 282 279 279 279 280 279 279 279 279 279 278 277 276 274 272 271 269 268
291 291 291 291 291 292 294 292 294 289 289 290 290 291 290 289 285 281 283 284 285 286 285 286 285 285 285 285 283 283 282 283 284 286 286 285 282 278 278 278 277 277 276 275 273 273 273 272 269 268 267 266 266 265
289 289 291 291 292 291 288 285 285 286 286 288 287 289 292 288 284 279 280 279 280 281 282 284 284 284 284 284 284 283 283 281 281 282 282 280 279 278 277 276 275 274 273 272 272 271 271 270 269 269 268 266 265 264
289 291 291 291 292 287 285 287 288 288 289 288 290 286 286 287 289 282 276 277 280 281 282 282 284 284 282 283 282 281 283 280 279 279 279 278 277 275 275 274 274 274 273 273 272 271 270 270 269 267 265 264 264 262
288 288 288 289 289 288 287 287 288 288 287 287 288 285 286 287 288 279 276 274 275 277 279 279 279 279 279 279 278 278 277 276 276 276 275 274 274 273 273 273 272 271 271 270 270 269 268 267 266 265 263 262 261 261

GFSWCAN_925_thetae_120.txt.gz
Theta_e
297 301 302 302 304 300 298 300 300 299 299 299 299 299 299 301 300 301 302 304 306 310 308 309 309 308 306 306 307 307 305 305 306 307 307 306 311 312 311 310 308 308 308 309 308 310 312 301 301 304 302 302 301 298
298 301 301 302 307 306 300 299 300 300 300 300 299 300 300 300 301 302 303 305 305 306 306 304 304 304 305 305 307 306 306 306 307 306 307 311 312 310 310 310 308 310 309 309 304 305 299 299 301 300 300 300 297 295
298 300 301 301 303 306 301 299 300 300 301 300 299 300 301 300 302 302 303 303 301 302 303 303 303 302 304 304 305 306 307 306 307 307 310 310 309 307 309 309 309 305 303 306 303 299 297 298 298 298 297 296 295 292
297 298 299 301 301 300 301 301 301 301 301 301 301 301 302 301 302 302 302 303 303 304 303 302 301 301 302 304 305 306 307 306 307 308 308 308 309 307 309 309 308 306 303 304 300 297 296 296 297 296 294 293 292 291
297 296 297 298 299 300 301 301 301 301 301 301 301 301 301 301 302 301 301 302 302 303 303 302 301 301 301 302 304 305 306 308 307 307 306 307 305 305 307 306 308 304 306 303 306 299 299 297 295 293 292 292 291 290
297 297 296 297 297 297 298 298 299 299 299 300 299 299 300 300 300 301 302 301 301 300 301 301 300 301 302 303 304 305 307 308 306 308 307 305 304 306 308 307 302 299 299 300 300 298 297 294 293 292 291 291 290 290
297 297 297 297 297 297 297 297 297 297 297 298 299 300 300 301 301 302 302 302 300 300 303 301 300 301 301 302 303 303 304 304 305 306 306 305 305 304 306 306 300 297 297 298 296 294 293 292 292 292 291 291 290 289
296 296 296 296 297 298 298 298 298 299 299 299 300 300 300 299 300 300 300 300 301 302 302 304 302 302 301 303 302 302 303 303 304 304 305 305 305 305 304 301 297 295 297 296 295 296 293 293 292 291 291 290 289 289
295 295 295 294 295 295 296 298 298 299 299 299 300 300 300 299 300 300 301 301 302 303 305 303 304 303 302 303 303 303 303 306 302 304 305 304 306 307 306 299 297 295 296 296 295 294 293 292 292 291 291 291 290 288
295 295 295 295 294 294 295 296 297 298 298 299 299 300 300 299 298 300 301 304 305 303 303 304 302 303 304 305 303 303 303 304 304 304 304 304 306 303 302 300 297 296 296 295 295 295 293 293 292 292 292 291 290 287
293 293 294 295 295 295 295 295 297 299 300 301 302 302 299 299 302 303 306 304 303 302 303 304 304 305 303 307 305 304 305 303 302 305 303 304 305 303 301 299 297 297 296 296 295 295 294 293 292 292 291 291 289 286
294 294 294 295 295 296 297 298 298 299 300 300 299 300 301 302 303 302 301 302 303 301 302 305 305 304 305 304 304 304 302 304 304 304 303 303 303 301 300 298 297 296 296 295 295 294 293 292 292 291 291 289 286 283
293 293 294 295 295 294 294 297 298 299 300 300 300 300 301 303 303 303 301 303 302 303 305 305 305 304 304 304 304 303 304 304 304 303 304 306 302 299 298 297 296 295 294 294 294 293 292 291 291 290 285 282 281 279
291 291 291 291 293 293 294 297 298 300 301 303 302 300 302 301 300 302 305 304 303 305 306 306 306 304 304 303 305 302 303 302 303 304 304 304 301 299 297 295 294 294 292 293 292 291 290 288 284 283 282 281 279 278
291 291 290 290 291 292 296 297 299 300 301 301 300 301 300 298 298 300 303 304 305 306 306 305 305 304 303 302 303 301 301 302 303 305 303 299 298 296 295 295 293 291 290 290 289 286 285 283 282 281 280 279 278 277
293 292 290 290 292 292 296 298 298 299 300 299 300 301 300 301 300 301 302 304 305 305 305 304 302 301 301 302 302 303 302 303 304 300 298 296 296 295 295 292 291 290 289 288 286 285 283 282 281 280 278 277 276 276
293 291 289 290 293 295 297 298 298 300 298 299 300 297 300 299 299 299 305 304 304 304 304 303 303 301 302 301 302 303 305 301 298 296 294 295 295 294 293 291 290 289 289 288 285 283 282 281 279 278 277 276 276 276
293 292 289 290 294 296 296 297 299 298 298 299 300 298 298 299 301 301 302 303 304 302 301 301 302 301 304 303 304 302 297 295 294 294 292 292 292 292 292 291 290 289 288 286 284 282 281 279 279 279 278 277 277 277
291 291 292 292 293 295 296 296 297 297 298 299 299 299 299 300 299 299 302 302 301 301 303 302 303 304 304 302 300 297 296 296 294 292 290 290 290 290 290 289 289 288 286 285 284 283 281 281 281 280 279 279 279 278
293 292 293 294 294 295 295 296 296 297 297 297 298 297 297 297 298 297 302 300 301 302 301 303 303 302 301 299 299 298 295 294 294 293 290 289 289 288 288 287 287 286 284 283 283 282 282 282 282 280 279 280 280 280
293 292 293 294 294 294 295 295 294 295 295 296 296 296 297 298 298 299 300 299 301 302 302 301 298 297 296 297 297 298 297 297 296 296 294 291 289 289 288 288 286 286 285 284 284 283 282 283 282 281 280 282 282 281
292 293 293 292 294 294 294 294 294 295 296 295 295 295 296 297 298 298 297 299 300 300 300 300 299 298 297 296 296 295 294 293 292 293 293 291 291 290 289 288 287 287 286 286 285 284 284 283 282 282 282 283 283 281
292 293 292 292 293 293 293 294 294 294 296 296 295 295 295 294 294 295 296 298 299 297 297 296 295 295 294 293 292 292 293 294 294 292 292 292 291 290 289 288 288 288 287 286 285 284 284 283 283 282 283 282 280 280
291 291 292 293 293 292 292 294 293 293 295 295 296 295 294 294 294 296 299 301 297 296 295 294 296 295 294 294 295 292 292 292 290 290 291 290 289 289 288 287 287 287 287 286 285 285 285 283 283 283 282 281 280 280
292 291 292 292 293 293 293 294 294 294 295 294 295 296 294 294 297 298 298 299 296 292 291 292 294 293 293 294 292 291 289 291 291 290 289 290 288 287 286 286 286 287 287 286 285 285 284 283 283 282 282 280 279 280
292 291 292 292 292 292 292 293 293 294 294 295 295 294 294 296 297 297 297 294 294 291 290 290 291 292 292 292 292 291 289 288 290 289 287 287 287 287 286 286 285 285 285 285 285 284 283 283 282 282 282 281 279 277
291 292 292 292 292 292 293 293 293 294 293 294 295 294 294 295 295 297 293 290 290 288 287 287 288 289 290 289 287 287 286 286 287 286 285 284 284 285 286 285 285 284 283 284 284 284 282 282 282 281 280 278 277 276
292 292 293 291 292 292 293 293 293 294 295 295 295 294 294 296 297 293 290 287 286 286 286 286 286 286 286 286 285 284 283 283 282 282 281 281 281 282 282 283 283 282 282 283 283 282 282 281 279 278 277 276 275 274
292 291 291 291 292 292 293 294 295 295 294 296 295 296 296 294 290 289 287 286 285 286 286 286 285 284 284 284 284 284 283 284 284 284 285 282 281 280 281 281 281 282 282 282 281 281 280 278 277 276 274 273 272 271
292 291 292 291 291 293 294 291 293 290 291 291 291 293 292 290 285 284 285 285 286 286 286 287 286 286 286 285 284 284 284 284 285 287 287 285 281 280 279 279 279 278 279 279 277 276 276 275 274 272 270 269 268 267
290 290 291 292 292 293 290 288 287 287 288 289 290 290 293 289 284 281 280 280 281 282 283 285 285 285 285 286 285 284 283 283 282 282 282 280 279 279 278 277 276 276 276 275 274 274 272 271 270 269 268 267 266 265
290 291 292 292 293 289 288 288 289 289 291 289 290 290 288 288 290 282 277 278 281 283 283 284 285 286 284 283 283 283 284 282 281 281 280 279 278 277 276 275 275 274 274 273 273 272 271 270 269 268 266 266 265 264
290 290 290 290 290 289 289 288 290 290 290 289 290 288 288 287 287 280 277 276 277 278 279 280 280 280 280 281 280 279 280 279 279 279 278 277 276 275 275 275 274 273 273 272 271 270 269 268 267 266 265 263 262 262